[[{"header":{"parameterUnit":"m.s-1","parameterCategory":1,"la1":31.0,"la2":29.5877,"lo1":-88.7671,"lo2":-86.6584,"dy":0.0162,"dx":0.0185,"nx":115,"ny":88,"refTime":"2023-10-25T00:00:00:Z","depth":0,"parameterNumber":2,"parameterNumberName":"U-component_of_WINDS"},"data":[0.0,0.0,0.0,0.0,0.0,0.0,0.0,0.0,0.0,0.0,0.0,0.0,0.0,0.0,0.0,0.0,0.0,0.0,0.0,0.0,0.0,0.0,0.0,0.0,0.0,0.0,0.0,0.0,0.0,0.0,0.0,0.0,0.0,0.0,0.0,0.0,0.0,0.0,0.0,0.0,0.0,0.0,0.0,0.0,0.0,0.0,0.0,0.0,0.0,0.0,0.0,0.0,0.0,0.0,0.0,0.0,0.0,0.0,0.0,0.0,0.0,0.0,0.0,0.0,0.0,0.0,0.0,0.0,0.0,0.0,0.0,0.0,0.0,0.0,0.0,0.0,0.0,0.0,0.0,0.0,0.0,0.0,0.0,0.0,0.0,0.0,0.0,0.0,0.0,0.0,0.0,0.0,0.0,0.0,0.0,0.0,0.0,0.0,0.0,0.0,0.0,0.0,0.0,0.0,0.0,0.0,0.0,0.0,0.0,0.0,0.0,0.0,0.0,0.0,0.0,0.0,0.0,0.0,0.0,0.0,0.0,0.0,0.0,0.0,0.0,0.0,0.0,0.0,0.0,0.0,0.0,0.0,0.0,0.0,0.0,0.0,0.0,0.0,0.0,0.0,0.0,0.0,0.0,0.0,0.0,0.0,0.0,0.0,0.0,0.0,0.0,0.0,0.0,0.0,0.0,0.0,0.0,0.0,0.0,0.0,0.0,0.0,0.0,0.0,0.0,0.0,0.0,0.0,0.0,0.0,0.0,0.0,0.0,0.0,0.0,0.0,0.0,0.0,0.0,0.0,0.0,0.0,0.0,0.0,0.0,0.0,0.0,0.0,0.0,0.0,0.0,0.0,0.0,0.0,0.0,0.0,0.0,0.0,0.0,0.0,0.0,0.0,0.0,0.0,0.0,0.0,0.0,0.0,0.0,0.0,0.0,0.0,0.0,0.0,0.0,0.0,0.0,0.0,0.0,0.0,0.0,0.0,0.0,0.0,0.0,0.0,0.0,0.0,0.0,0.0,0.0,0.0,0.0,0.0,0.0,0.0,0.0,0.0,0.0,0.0,0.0,0.0,0.0,0.0,0.0,0.0,0.0,0.0,0.0,0.0,0.0,0.0,0.0,0.0,0.0,0.0,0.0,0.0,0.0,0.0,0.0,0.0,0.0,0.0,0.0,0.0,0.0,0.0,0.0,0.0,0.0,0.0,0.0,0.0,0.0,0.0,0.0,0.0,0.0,0.0,0.0,0.0,0.0,0.0,0.0,0.0,0.0,0.0,0.0,0.0,0.0,0.0,0.0,0.0,0.0,0.0,0.0,0.0,0.0,0.0,0.0,0.0,0.0,0.0,0.0,0.0,0.0,0.0,0.0,0.0,0.0,0.0,0.0,0.0,0.0,0.0,0.0,0.0,0.0,0.0,0.0,0.0,0.0,0.0,0.0,0.0,0.0,0.0,0.0,0.0,0.0,0.0,0.0,0.0,0.0,0.0,0.0,0.0,0.0,0.0,0.0,0.0,0.0,0.0,0.0,0.0,0.0,0.0,0.0,0.0,0.0,0.0,0.0,0.0,0.0,0.0,0.0,0.0,0.0,0.0,0.0,0.0,0.0,0.0,0.0,0.0,0.0,0.0,0.0,0.0,0.0,0.0,0.0,0.0,0.0,0.0,0.0,0.0,0.0,0.0,0.0,0.0,0.0,0.0,0.0,0.0,0.0,0.0,0.0,0.0,0.0,0.0,0.0,0.0,0.0,0.0,0.0,0.0,0.0,0.0,0.0,0.0,0.0,0.0,0.0,0.0,0.0,0.0,0.0,0.0,0.0,0.0,0.0,0.0,0.0,0.0,0.0,0.0,0.0,0.0,0.0,0.0,0.0,0.0,0.0,0.0,0.0,0.0,0.0,0.0,0.0,0.0,0.0,0.0,0.0,0.0,0.0,0.0,0.0,0.0,0.0,0.0,0.0,0.0,0.0,0.0,0.0,0.0,0.0,0.0,0.0,0.0,0.0,0.0,0.0,0.0,0.0,0.0,0.0,0.0,0.0,0.0,0.0,0.0,0.0,0.0,0.0,0.0,0.0,0.0,0.0,0.0,0.0,0.0,0.0,0.0,0.0,0.0,0.0,0.0,0.0,0.0,0.0,0.0,0.0,0.0,0.0,0.0,0.0,0.0,0.0,0.0,0.0,0.0,0.0,0.0,0.0,0.0,0.0,0.0,0.0,0.0,0.0,0.0,0.0,0.0,0.0,0.0,0.0,0.0,0.0,0.0,0.0,0.0,0.0,0.0,0.0,0.0,0.0,0.0,0.0,0.0,0.0,0.0,0.0,0.0,0.0,0.0,0.0,0.0,0.0,0.0,0.0,0.0,0.0,0.0,0.0,0.0,0.0,0.0,0.0,0.0,0.0,0.0,0.0,0.0,0.0,0.0,0.0,0.0,0.0,0.0,0.0,0.0,0.0,0.0,0.0,0.0,0.0,0.0,0.0,0.0,0.0,0.0,0.0,0.0,0.0,0.0,0.0,0.0,0.0,0.0,0.0,0.0,0.0,0.0,0.0,0.0,0.0,0.0,0.0,0.0,0.0,0.0,0.0,0.0,0.0,0.0,0.0,0.0,0.0,0.0,0.0,0.0,0.0,0.0,0.0,0.0,0.0,0.0,0.0,0.0,0.0,0.0,0.0,0.0,0.0,0.0,0.0,0.0,0.0,0.0,0.0,0.0,0.0,0.0,0.0,0.0,0.0,0.0,0.0,0.0,0.0,0.0,0.0,0.0,0.0,0.0,0.0,0.0,0.0,0.0,0.0,0.0,0.0,0.0,0.0,0.0,0.0,0.0,0.0,0.0,0.0,0.0,0.0,0.0,0.0,0.0,0.0,0.0,0.0,0.0,0.0,0.0,0.0,0.0,0.0,0.0,0.0,0.0,0.0,0.0,0.0,0.0,0.0,0.0,0.0,0.0,0.0,0.0,0.0,0.0,0.0,0.0,0.0,0.0,0.0,0.0,0.0,0.0,0.0,0.0,0.0,0.0,0.0,0.0,0.0,0.0,0.0,0.0,0.0,0.0,0.0,0.0,0.0,0.0,0.0,0.0,0.0,0.0,0.0,0.0,0.0,0.0,0.0,0.0,0.0,0.0,0.0,0.0,0.0,0.0,0.0,0.0,0.0,0.0,0.0,0.0,0.0,0.0,0.0,0.0,0.0,0.0,0.0,0.0,0.0,0.0,0.0,0.0,0.0,0.0,0.0,0.0,0.0,0.0,0.0,0.0,0.0,0.0,0.0,0.0,0.0,0.0,0.0,0.0,0.0,0.0,0.0,0.0,0.0,0.0,0.0,0.0,0.0,0.0,0.0,0.0,0.0,0.0,0.0,0.0,0.0,0.0,0.0,0.0,0.0,0.0,0.0,0.0,0.0,0.0,0.0,0.0,0.0,0.0,0.0,0.0,0.0,0.0,0.0,0.0,0.0,0.0,0.0,0.0,0.0,0.0,0.0,0.0,0.0,0.0,0.0,0.0,0.0,0.0,0.0,0.0,0.0,0.0,0.0,0.0,0.0,0.0,0.0,0.0,0.0,0.0,0.0,0.0,0.0,0.0,0.0,0.0,0.0,0.0,0.0,0.0,0.0,0.0,0.0,0.0,0.0,0.0,0.0,0.0,0.0,0.0,0.0,0.0,0.0,0.0,0.0,0.0,0.0,0.0,0.0,0.0,0.0,0.0,0.0,0.0,0.0,0.0,0.0,0.0,0.0,0.0,0.0,0.0,0.0,0.0,0.0,0.0,0.0,0.0,0.0,0.0,0.0,0.0,0.0,0.0,0.0,0.0,0.0,0.0,0.0,0.0,0.0,0.0,0.0,0.0,0.0,0.0,0.0,0.0,0.0,0.0,0.0,0.0,0.0,0.0,0.0,0.0,0.0,0.0,0.0,0.0,0.0,0.0,0.0,0.0,0.0,0.0,0.0,0.0,0.0,0.0,0.0,0.0,0.0,0.0,0.0,0.0,0.0,0.0,0.0,0.0,0.0,0.0,0.0,0.0,0.0,0.0,0.0,0.0,0.0,0.0,0.0,0.0,0.0,0.0,0.0,0.0,0.0,0.0,0.0,0.0,0.0,0.0,0.0,0.0,0.0,0.0,0.0,0.0,0.0,0.0,0.0,0.0,0.0,0.0,0.0,0.0,0.0,0.0,0.0,0.0,0.0,0.0,0.0,0.0,0.0,0.0,0.0,0.0,0.0,0.0,0.0,0.0,0.0,0.0,0.0,0.0,0.0,0.0,-0.7169,0.0,0.0,0.0,0.0,0.0,0.0,0.0,0.0,0.0,0.0,0.0,0.0,0.0,0.0,0.0,0.0,0.0,0.0,0.0,0.0,0.0,0.0,0.0,0.0,0.0,0.0,0.0,0.0,0.0,0.0,0.0,0.0,0.0,0.0,0.0,0.0,0.0,0.0,0.0,0.0,0.0,0.0,0.0,0.0,0.0,0.0,0.0,0.0,0.0,0.0,0.0,0.0,0.0,0.0,0.0,0.0,0.0,0.0,0.0,0.0,0.0,0.0,0.0,0.0,0.0,0.0,0.0,0.0,0.0,0.0,0.0,0.0,0.0,0.0,0.0,0.0,0.0,0.0,0.0,0.0,0.0,0.0,0.0,0.0,0.0,0.0,0.0,0.0,0.0,0.0,0.0,0.0,0.0,0.0,0.0,0.0,0.0,0.0,0.0,0.0,0.0,0.0,0.0,0.0,0.0,0.0,0.0,0.0,0.0,0.0,-0.5747,-0.5479,-0.7138,-0.7564,-0.6725,0.0,0.0,0.0,0.0,0.0,0.0,0.0,0.0,0.0,0.0,0.0,0.0,0.0,0.0,0.0,0.0,0.0,0.0,0.0,0.0,0.0,0.0,0.0,0.0,0.0,0.0,0.0,0.0,0.0,0.0,0.0,0.0,0.0,0.0,0.0,0.0,0.0,0.0,0.0,0.0,0.0,0.0,0.0,0.0,0.0,0.0,0.0,0.0,0.0,0.0,0.0,0.0,0.0,0.0,0.0,0.0,0.0,0.0,0.0,0.0,0.0,0.0,0.0,0.0,0.0,0.0,0.0,0.0,0.0,0.0,0.0,0.0,0.0,0.0,0.0,0.0,0.0,0.0,0.0,0.0,0.0,0.0,0.0,0.0,0.0,0.0,0.0,0.0,0.0,0.0,0.0,0.0,0.0,0.0,0.0,0.0,0.0,0.0,0.0,0.0,0.0,0.0,0.0,0.0,0.0,0.0,0.0,0.0,0.0,0.0,0.0,0.0,-0.6046,-0.675,-0.7128,0.0,0.0,0.0,0.0,0.0,0.0,0.0,0.0,0.0,0.0,0.0,0.0,0.0,0.0,0.0,0.0,0.0,0.0,0.0,0.0,0.0,0.0,0.0,0.0,0.0,0.0,0.0,0.0,0.0,0.0,0.0,0.0,0.0,0.0,0.0,0.0,0.0,0.0,0.0,0.0,0.0,0.0,0.0,0.0,0.0,0.0,0.0,0.0,0.0,0.0,0.0,0.0,0.0,0.0,0.0,0.0,0.0,0.0,0.0,0.0,0.0,0.0,0.0,0.0,0.0,0.0,0.0,0.0,0.0,0.0,0.0,0.0,0.0,0.0,0.0,0.0,0.0,0.0,0.0,0.0,0.0,0.0,0.0,0.0,0.0,0.0,0.0,0.0,0.0,0.0,0.0,0.0,0.0,0.0,0.0,0.0,0.0,0.0,0.0,0.0,0.0,0.0,0.0,0.0,0.0,0.0,0.0,0.0,0.0,0.0,-0.5117,-0.6367,-0.6534,0.0,-0.848,0.0,0.0,0.0,0.0,0.0,0.0,0.0,0.0,0.0,0.0,0.0,0.0,0.0,0.0,0.0,0.0,0.0,0.0,0.0,0.0,0.0,0.0,0.0,0.0,0.0,0.0,0.0,0.0,0.0,0.0,0.0,0.0,0.0,0.0,0.0,0.0,0.0,0.0,0.0,0.0,0.0,0.0,0.0,0.0,0.0,0.0,0.0,0.0,0.0,0.0,0.0,0.0,0.0,0.0,0.0,0.0,0.0,0.0,0.0,0.0,0.0,0.0,0.0,0.0,0.0,0.0,0.0,0.0,0.0,0.0,0.0,0.0,0.0,0.0,0.0,0.0,0.0,0.0,0.0,0.0,0.0,0.0,0.0,0.0,0.0,0.0,0.0,0.0,0.0,0.0,0.0,0.0,0.0,0.0,0.0,0.0,0.0,0.0,0.0,0.0,0.0,0.0,0.0,0.0,0.0,0.0,0.0,0.0,0.0,0.0,-0.5171,-0.5348,-0.6137,-0.7318,0.0,0.0,0.0,0.0,0.0,0.0,0.0,0.0,0.0,0.0,0.0,0.0,0.0,0.0,0.0,0.0,0.0,0.0,0.0,0.0,0.0,0.0,0.0,0.0,0.0,0.0,0.0,0.0,0.0,0.0,0.0,0.0,0.0,0.0,0.0,0.0,0.0,0.0,0.0,0.0,0.0,0.0,0.0,0.0,0.0,0.0,0.0,0.0,0.0,0.0,0.0,0.0,0.0,0.0,0.0,0.0,0.0,0.0,0.0,0.0,0.0,0.0,0.0,0.0,0.0,0.0,0.0,0.0,0.0,0.0,0.0,0.0,0.0,0.0,0.0,0.0,0.0,0.0,0.0,0.0,0.0,0.0,0.0,0.0,0.0,0.0,0.0,0.0,0.0,0.0,0.0,0.0,0.0,0.0,0.0,0.0,0.0,0.0,0.0,0.0,0.0,0.0,0.0,0.0,0.0,0.0,0.0,0.0,0.0,0.0,-0.5171,-0.4783,-0.4012,-0.5242,-0.648,-0.7558,0.0,0.0,0.0,0.0,0.0,0.0,0.0,0.0,0.0,0.0,0.0,0.0,0.0,0.0,0.0,0.0,0.0,0.0,0.0,0.0,0.0,0.0,0.0,0.0,0.0,0.0,0.0,0.0,0.0,0.0,0.0,0.0,0.0,0.0,0.0,0.0,0.0,0.0,0.0,0.0,0.0,0.0,0.0,0.0,0.0,0.0,0.0,0.0,0.0,0.0,0.0,0.0,0.0,0.0,0.0,0.0,0.0,0.0,0.0,0.0,0.0,0.0,0.0,0.0,0.0,0.0,0.0,0.0,0.0,0.0,0.0,0.0,0.0,0.0,0.0,0.0,0.0,0.0,0.0,0.0,0.0,0.0,0.0,0.0,0.0,0.0,0.0,0.0,0.0,0.0,0.0,0.0,0.0,0.0,0.0,0.0,0.0,0.0,0.0,0.0,0.0,0.0,0.0,0.0,0.0,0.0,0.0,0.0,-0.6372,-0.5183,-0.384,-0.254,-0.3741,-0.4504,0.0,0.0,0.0,0.0,0.0,0.0,0.0,0.0,0.0,0.0,0.0,0.0,0.0,0.0,0.0,0.0,0.0,0.0,0.0,0.0,0.0,0.0,0.0,0.0,0.0,0.0,0.0,0.0,0.0,0.0,0.0,0.0,0.0,0.0,0.0,0.0,0.0,0.0,0.0,0.0,0.0,0.0,0.0,0.0,0.0,0.0,0.0,0.0,0.0,0.0,0.0,0.0,0.0,0.0,0.0,0.0,0.0,0.0,0.0,0.0,0.0,0.0,0.0,0.0,0.0,0.0,0.0,0.0,0.0,0.0,0.0,0.0,0.0,0.0,0.0,0.0,0.0,0.0,0.0,0.0,0.0,0.0,0.0,0.0,0.0,0.0,0.0,0.0,0.0,0.0,0.0,0.0,0.0,0.0,0.0,0.0,0.0,0.0,0.0,0.0,0.0,0.0,0.0,0.0,0.0,0.0,0.0,0.0,0.0,-0.5199,-0.4768,-0.5119,-0.6243,-0.334,-0.161,0.0,0.0,0.0,0.0,0.0,0.0,0.0,0.0,0.0,0.0,0.0,0.0,0.0,0.0,0.0,0.0,0.0,0.0,0.0,0.0,0.0,0.0,0.0,0.0,0.0,0.0,0.0,0.0,0.0,0.0,0.0,0.0,0.0,0.0,0.0,0.0,0.0,0.0,0.0,0.0,0.0,0.0,0.0,0.0,0.0,0.0,0.0,0.0,0.0,0.0,0.0,0.0,0.0,0.0,0.0,0.0,0.0,0.0,0.0,0.0,0.0,0.0,0.0,0.0,0.0,0.0,0.0,0.0,0.0,0.0,0.0,0.0,0.0,0.0,0.0,0.0,0.0,0.0,0.0,0.0,0.0,0.0,0.0,0.0,0.0,0.0,0.0,0.0,0.0,0.0,0.0,0.0,0.0,0.0,0.0,0.0,0.0,0.0,0.0,0.0,0.0,0.0,0.0,0.0,0.0,0.0,0.0,0.0,0.0,-0.578,0.0,-0.432,-0.3724,0.0497,0.1952,0.0,0.0,0.0,0.0,0.0,0.0,0.0,0.0,0.0,0.0,0.0,0.0,0.0,0.0,0.0,0.0,0.0,0.0,0.0,0.0,0.0,0.0,0.0,0.0,0.0,0.0,0.0,0.0,0.0,0.0,0.0,0.0,0.0,0.0,0.0,0.0,0.0,0.0,0.0,0.0,0.0,0.0,0.0,0.0,0.0,0.0,0.0,0.0,0.0,0.0,0.0,0.0,0.0,0.0,0.0,0.0,0.0,0.0,0.0,0.0,0.0,0.0,0.0,0.0,0.0,0.0,0.0,0.0,0.0,0.0,0.0,0.0,0.0,0.0,0.0,0.0,0.0,0.0,0.0,0.0,0.0,0.0,0.0,0.0,0.0,0.0,0.0,0.0,0.0,0.0,0.0,0.0,0.0,0.0,0.0,0.0,0.0,0.0,0.0,0.0,0.0,0.0,0.0,0.0,0.0,0.0,0.0,0.0,-0.5931,-0.8492,-0.6079,-0.1759,0.572,0.7432,0.6046,0.0,0.0,0.0,0.0,0.0,0.0,0.0,0.0,0.0,0.0,0.0,0.0,0.0,0.0,0.0,0.0,0.0,0.0,0.0,0.0,0.0,0.0,0.0,0.0,0.0,0.0,0.0,0.0,0.0,0.0,0.0,0.0,0.0,0.0,0.0,0.0,0.0,0.0,0.0,0.0,0.0,0.0,0.0,0.0,0.0,0.0,0.0,0.0,0.0,0.0,0.0,0.0,0.0,0.0,0.0,0.0,0.0,0.0,0.0,0.0,0.0,0.0,0.0,0.0,0.0,0.0,0.0,0.0,0.0,0.0,0.0,0.0,0.0,0.0,0.0,0.0,0.0,0.0,0.0,0.0,0.0,0.0,0.0,0.0,0.0,0.0,0.0,0.0,0.0,0.0,0.0,0.0,0.0,0.0,0.0,0.0,0.0,0.0,0.0,0.0,0.0,0.0,0.0,0.0,0.0,0.0,0.0,0.0,0.0,-1.1486,-1.0754,-0.921,-0.6651,0.5175,0.985,0.0,0.0,0.0,0.0,0.0,0.0,0.0,0.0,0.0,0.0,0.0,0.0,0.0,0.0,0.0,0.0,0.0,0.0,0.0,0.0,0.0,0.0,0.0,0.0,0.0,0.0,0.0,0.0,0.0,0.0,0.0,0.0,0.0,0.0,0.0,0.0,0.0,0.0,0.0,0.0,0.0,0.0,0.0,0.0,0.0,0.0,0.0,0.0,0.0,0.0,0.0,0.0,0.0,0.0,0.0,0.0,0.0,0.0,0.0,0.0,0.0,0.0,0.0,0.0,0.0,0.0,0.0,0.0,0.0,0.0,0.0,0.0,0.0,0.0,0.0,0.0,0.0,0.0,0.0,0.0,0.0,0.0,0.0,0.0,0.0,0.0,0.0,0.0,0.0,0.0,0.0,0.0,0.0,0.0,0.0,0.0,0.0,0.0,0.0,0.0,0.0,0.0,0.0,0.0,0.0,0.0,0.0,0.0,0.0,-1.3366,-1.2061,-1.1054,-1.0473,0.2281,0.9044,0.8646,0.0,0.0,0.0,0.0,0.0,0.0,0.0,0.0,0.0,0.0,0.0,0.0,0.0,0.0,0.0,0.0,0.0,0.0,0.0,0.0,0.0,0.0,0.0,0.0,0.0,0.0,0.0,0.0,0.0,0.0,0.0,0.0,0.0,0.0,0.0,0.0,0.0,0.0,0.0,0.0,0.0,0.0,0.0,0.0,0.0,0.0,0.0,0.0,0.0,0.0,0.0,0.0,0.0,0.0,0.0,0.0,0.0,0.0,0.0,0.0,0.0,0.0,0.0,0.0,0.0,0.0,0.0,0.0,0.0,0.0,0.0,0.0,0.0,0.0,0.0,0.0,0.0,0.0,0.0,0.0,0.0,0.0,0.0,0.0,0.0,0.0,0.0,0.0,0.0,0.0,0.0,0.0,0.0,0.0,0.0,0.0,0.0,0.0,0.0,0.0,0.0,0.0,0.0,0.0,0.0,0.0,0.0,0.0,-1.4593,-1.0905,-0.8372,-0.6999,-0.1165,0.4029,0.0,0.0,0.0,0.0,0.0,0.0,0.0,0.0,0.0,0.0,0.0,0.0,0.0,0.0,0.0,0.0,0.0,0.0,0.0,0.0,0.0,0.0,0.0,0.0,0.0,0.0,0.0,0.0,0.0,0.0,0.0,0.0,0.0,0.0,0.0,0.0,0.0,0.0,0.0,0.0,0.0,0.0,0.0,0.0,0.0,0.0,0.0,0.0,0.0,0.0,0.0,0.0,0.0,0.0,0.0,0.0,0.0,0.0,0.0,0.0,0.0,0.0,0.0,0.0,0.0,0.0,0.0,0.0,0.0,0.0,0.0,0.0,0.0,0.0,0.0,0.0,0.0,0.0,0.0,0.0,0.0,0.0,0.0,0.0,0.0,0.0,0.0,0.0,0.0,0.0,0.0,0.0,0.0,0.0,0.0,0.0,0.0,0.0,0.0,0.0,0.0,0.0,0.0,0.0,0.0,0.0,0.0,0.0,0.0,-1.425,-1.3467,-1.2797,-1.2055,-0.9929,-0.4302,0.0,0.0,0.0,0.0,0.0,0.0,0.0,0.0,0.0,0.0,0.0,0.0,0.0,0.0,0.0,0.0,0.0,0.0,0.0,0.0,0.0,0.0,0.0,0.0,0.0,0.0,0.0,0.0,0.0,0.0,0.0,0.0,0.0,0.0,0.0,0.0,0.0,0.0,0.0,0.0,0.0,0.0,0.0,0.0,0.0,0.0,0.0,0.0,0.0,0.0,0.0,0.0,0.0,0.0,0.0,0.0,0.0,0.0,0.0,0.0,0.0,0.0,0.0,0.0,0.0,0.0,0.0,0.0,0.0,0.0,0.0,0.0,0.0,0.0,0.0,0.0,0.0,0.0,0.0,0.0,0.0,0.0,0.0,0.0,0.0,0.0,0.0,0.0,0.0,0.0,0.0,0.0,0.0,0.0,0.0,0.0,0.0,0.0,0.0,0.0,0.0,0.0,0.0,0.0,0.0,0.0,0.0,0.0,-1.5269,-1.4398,-1.4345,-1.4334,-1.4328,-1.1886,-0.6624,0.0,0.0,0.0,0.0,0.0,0.0,0.0,0.0,0.0,0.0,0.0,0.0,0.0,0.0,0.0,0.0,0.0,0.0,0.0,0.0,0.0,0.0,0.0,0.0,0.0,0.0,0.0,0.0,0.0,0.0,0.0,0.0,0.0,0.0,0.0,0.0,0.0,0.0,0.0,0.0,0.0,0.0,0.0,0.0,0.0,0.0,0.0,0.0,0.0,0.0,0.0,0.0,0.0,0.0,0.0,0.0,0.0,0.0,0.0,0.0,0.0,0.0,0.0,0.0,0.0,0.0,0.0,0.0,0.0,0.0,0.0,0.0,0.0,0.0,0.0,0.0,0.0,0.0,0.0,0.0,0.0,0.0,0.0,0.0,0.0,0.0,0.0,0.0,0.0,0.0,0.0,0.0,0.0,0.0,0.0,0.0,0.0,0.0,0.0,0.0,0.0,0.0,0.0,0.0,0.0,0.0,0.0,0.0,-1.4757,-1.4812,-1.419,-1.4201,-1.4664,-1.0632,-0.607,0.0,0.0,0.0,0.0,0.0,0.0,0.0,0.0,0.0,0.0,0.0,0.0,0.0,0.0,0.0,0.0,0.0,0.0,0.0,0.0,0.0,0.0,0.0,0.0,0.0,0.0,0.0,0.0,0.0,0.0,0.0,0.0,0.0,0.0,0.0,0.0,0.0,0.0,0.0,0.0,0.0,0.0,0.0,0.0,0.0,0.0,0.0,0.0,0.0,0.0,0.0,0.0,0.0,0.0,0.0,0.0,0.0,0.0,0.0,0.0,0.0,0.0,0.0,0.0,0.0,0.0,0.0,0.0,0.0,0.0,0.0,0.0,0.0,0.0,0.0,0.0,0.0,0.0,0.0,0.0,0.0,0.0,0.0,0.0,0.0,0.0,0.0,0.0,0.0,0.0,0.0,0.0,0.0,0.0,0.0,0.0,0.0,0.0,0.0,0.0,0.0,0.0,0.0,0.0,0.0,0.0,0.0,0.0,-1.5238,-1.5389,-1.4824,-1.4778,-1.541,-1.5233,-1.0885,0.0,0.0,0.0,0.0,0.0,0.0,0.0,0.0,0.0,0.0,0.0,0.0,0.0,0.0,0.0,0.0,0.0,0.0,0.0,0.0,0.0,0.0,0.0,0.0,0.0,0.0,0.0,0.0,0.0,0.0,0.0,0.0,0.0,0.0,0.0,0.0,0.0,0.0,0.0,0.0,0.0,0.0,0.0,0.0,0.0,0.0,0.0,0.0,1.9828,0.0,0.0,0.0,0.0,0.0,0.0,0.0,0.0,0.0,0.0,0.0,0.0,0.0,0.0,0.0,0.0,0.0,0.0,0.0,0.0,0.0,0.0,0.0,0.0,0.0,0.0,0.0,0.0,0.0,0.0,0.0,0.0,0.0,0.0,0.0,0.0,0.0,0.0,0.0,0.0,0.0,0.0,0.0,0.0,0.0,0.0,0.0,0.0,0.0,0.0,0.0,0.0,0.0,0.0,0.0,0.0,0.0,0.0,0.0,-1.4901,-1.5164,-1.4606,-1.4549,-1.5219,-1.7115,-1.2798,0.0,0.0,0.0,0.0,0.0,0.0,0.0,0.0,0.0,0.0,0.0,0.0,0.0,0.0,0.0,0.0,0.0,0.0,0.0,0.0,0.0,0.0,0.0,0.0,0.0,0.0,0.0,0.0,0.0,0.0,0.0,0.0,0.0,0.0,0.0,0.0,0.0,0.0,0.0,0.0,0.0,0.0,0.0,0.0,0.0,0.0,0.0,0.0,0.0,0.0,0.0,0.0,0.0,0.0,0.0,0.0,0.0,0.0,0.0,0.0,0.0,0.0,0.0,0.0,0.0,0.0,0.0,0.0,0.0,0.0,0.0,0.0,0.0,0.0,0.0,0.0,0.0,0.0,0.0,0.0,0.0,0.0,0.0,0.0,0.0,0.0,0.0,0.0,0.0,0.0,0.0,0.0,0.0,0.0,0.0,0.0,0.0,0.0,0.0,0.0,0.0,0.0,0.0,0.0,0.0,0.0,0.0,-1.4893,-1.4701,-1.5186,-1.4596,-1.4676,-1.5448,-1.8036,-1.3339,-0.0661,0.0,0.0,0.0,0.0,0.0,0.0,0.0,0.0,0.0,0.0,0.0,0.0,0.0,0.0,0.0,0.0,0.0,0.0,0.0,0.0,0.0,0.0,0.0,0.0,0.0,0.0,0.0,0.0,0.0,0.0,0.0,0.0,0.0,0.0,0.0,0.0,0.0,0.0,1.9954,1.9338,0.0,0.0,0.0,0.0,0.0,0.0,0.0,0.0,2.0145,0.0,0.0,0.0,0.0,0.0,0.0,0.0,0.0,0.0,0.0,0.0,0.0,0.0,0.0,0.0,0.0,0.0,0.0,0.0,0.0,0.0,0.0,0.0,0.0,0.0,0.0,0.0,0.0,0.0,0.0,0.0,0.0,0.0,0.0,0.0,0.0,0.0,0.0,0.0,0.0,0.0,0.0,0.0,0.0,0.0,0.0,0.0,0.0,0.0,0.0,0.0,0.0,0.0,0.0,0.0,0.0,-1.2109,-1.4759,-1.6539,-1.7397,-1.6868,-1.721,-1.8567,-1.9609,-1.3749,-0.0872,0.0,0.0,0.0,0.0,0.0,0.0,0.0,0.0,0.0,0.0,0.0,0.0,0.0,0.0,0.0,0.0,0.0,0.0,0.0,0.0,0.0,0.0,0.0,0.0,0.0,0.0,0.0,0.0,0.0,0.0,0.0,0.0,0.0,0.0,0.0,0.0,0.0,0.0,0.0,1.9936,2.0075,0.0,0.0,0.0,0.0,0.0,0.0,0.0,0.0,2.1426,0.0,0.0,0.0,0.0,0.0,0.0,0.0,0.0,0.0,0.0,0.0,0.0,0.0,0.0,0.0,0.0,0.0,0.0,0.0,0.0,0.0,0.0,0.0,0.0,0.0,0.0,0.0,0.0,0.0,0.0,0.0,0.0,0.0,0.0,0.0,0.0,0.0,0.0,0.0,0.0,0.0,0.0,0.0,0.0,0.0,0.0,0.0,0.0,0.0,0.0,0.0,0.0,0.0,0.0,0.0,-0.9827,-1.3882,-1.6554,-1.7478,-1.7263,-1.7673,-1.8913,-2.06,-1.4651,0.0,0.0,0.0,0.0,0.0,0.0,0.0,0.0,0.0,0.0,0.0,0.0,0.0,0.0,0.0,0.0,0.0,0.0,0.0,0.0,0.0,0.0,0.0,0.0,0.0,0.0,0.0,0.0,0.0,0.0,0.0,0.0,0.0,0.0,0.0,0.0,0.0,0.0,0.0,0.0,2.041,2.0548,2.0726,0.0,0.0,0.0,0.0,0.0,0.0,2.2185,2.2125,0.0,0.0,0.0,0.0,0.0,0.0,0.0,0.0,0.0,0.0,0.0,0.0,0.0,0.0,0.0,0.0,0.0,0.0,0.0,0.0,0.0,0.0,0.0,0.0,0.0,0.0,0.0,0.0,0.0,0.0,0.0,0.0,0.0,0.0,0.0,0.0,0.0,0.0,0.0,0.0,0.0,0.0,0.0,0.0,0.0,0.0,0.0,0.0,0.0,0.0,0.0,0.0,0.0,0.0,0.0,-0.9007,-1.3697,-1.6701,-1.7804,-1.7855,-1.835,-1.9446,-2.1673,-1.5747,0.0,0.0,0.0,0.0,0.0,0.0,0.0,0.0,0.0,0.0,0.0,0.0,0.0,0.0,0.0,0.0,0.0,0.0,0.0,0.0,0.0,0.0,0.0,0.0,0.0,0.0,0.0,0.0,0.0,0.0,0.0,0.0,0.0,0.0,0.0,0.0,0.0,0.0,0.0,0.0,0.0,2.1152,2.1848,2.2058,0.0,0.0,0.0,0.0,2.2637,2.2746,0.0,0.0,0.0,0.0,0.0,0.0,0.0,0.0,0.0,0.0,0.0,0.0,0.0,0.0,0.0,0.0,0.0,0.0,0.0,0.0,0.0,0.0,0.0,0.0,0.0,0.0,0.0,0.0,0.0,0.0,0.0,0.0,0.0,0.0,0.0,0.0,0.0,0.0,0.0,0.0,0.0,0.0,0.0,0.0,0.0,0.0,0.0,0.0,0.0,0.0,0.0,0.0,0.0,0.0,0.0,0.0,-1.1067,-1.5704,-1.8838,-2.0262,-2.0379,-2.1092,-2.2534,-2.3396,-1.6904,0.0,0.0,0.0,0.0,0.0,0.0,0.0,0.0,0.0,0.0,0.0,0.0,0.0,0.0,0.0,0.0,0.0,0.0,0.0,0.0,0.0,0.0,0.0,0.0,0.0,0.0,0.0,0.0,0.0,0.0,0.0,0.0,0.0,0.0,0.0,0.0,0.0,0.0,0.0,0.0,0.0,2.2332,2.19,2.2433,2.2896,0.0,0.0,2.2993,2.3693,2.3927,0.0,0.0,0.0,0.0,0.0,0.0,0.0,0.0,0.0,0.0,0.0,0.0,0.0,0.0,0.0,0.0,0.0,0.0,0.0,0.0,0.0,0.0,0.0,0.0,0.0,0.0,0.0,0.0,0.0,0.0,0.0,0.0,0.0,0.0,0.0,0.0,0.0,0.0,0.0,0.0,0.0,0.0,0.0,0.0,0.0,0.0,0.0,0.0,0.0,0.0,0.0,0.0,0.0,0.0,0.0,-0.9502,-1.5752,-1.8313,-2.0035,-2.1032,-2.1269,-2.2013,-2.3355,-2.3964,-1.861,0.0,0.0,0.0,0.0,0.0,0.0,0.0,0.0,0.0,0.0,0.0,0.0,0.0,0.0,0.0,0.0,0.0,0.0,0.0,0.0,0.0,0.0,0.0,0.0,0.0,0.0,0.0,0.0,0.0,0.0,0.0,0.0,0.0,0.0,0.0,0.0,0.0,0.0,0.0,0.0,0.0,0.0,2.3287,2.3563,0.0,0.0,0.0,2.405,2.4261,0.0,0.0,0.0,0.0,0.0,0.0,0.0,0.0,0.0,0.0,0.0,0.0,0.0,0.0,0.0,0.0,0.0,0.0,0.0,0.0,0.0,0.0,0.0,0.0,0.0,0.0,0.0,0.0,0.0,0.0,0.0,0.0,0.0,0.0,0.0,0.0,0.0,0.0,0.0,0.0,0.0,0.0,0.0,0.0,0.0,0.0,0.0,0.0,0.0,0.0,0.0,0.0,0.0,0.0,0.0,0.0,0.0,-2.071,-2.109,-2.1542,-2.222,-2.2398,-2.2982,-2.4096,-2.4355,0.0,0.0,0.0,0.0,0.0,0.0,0.0,0.0,0.0,0.0,0.0,0.0,0.0,0.0,0.0,0.0,0.0,0.0,0.0,0.0,0.0,0.0,0.0,0.0,0.0,0.0,0.0,2.0441,0.0,0.0,0.0,0.0,0.0,0.0,0.0,0.0,0.0,0.0,0.0,0.0,0.0,0.0,2.3535,2.4153,2.4243,2.4261,0.0,0.0,2.4732,2.4355,2.3968,2.382,0.0,0.0,0.0,0.0,0.0,0.0,0.0,0.0,0.0,0.0,0.0,0.0,0.0,0.0,0.0,0.0,0.0,0.0,0.0,0.0,0.0,0.0,0.0,0.0,0.0,0.0,0.0,0.0,0.0,0.0,0.0,0.0,0.0,0.0,0.0,0.0,0.0,0.0,0.0,0.0,0.0,0.0,0.0,0.0,0.0,0.0,0.0,0.0,0.0,0.0,0.0,0.0,0.0,0.0,-1.6894,-2.4682,-2.3962,-2.3829,-2.478,-2.4436,-2.4641,-2.553,-2.486,-2.1248,0.0,0.0,0.0,0.0,0.0,0.0,0.0,0.0,0.0,0.0,0.0,0.0,0.0,0.0,0.0,0.0,0.0,0.0,0.0,0.0,0.0,0.0,0.0,0.0,0.0,0.0,0.0,0.0,0.0,0.0,0.0,0.0,0.0,0.0,0.0,0.0,0.0,0.0,0.0,0.0,0.0,2.406,2.364,2.3835,2.3948,0.0,2.4358,2.4559,2.3858,2.3961,2.4077,2.3798,0.0,0.0,0.0,0.0,0.0,0.0,0.0,0.0,0.0,0.0,0.0,0.0,0.0,0.0,0.0,0.0,0.0,0.0,0.0,0.0,0.0,0.0,0.0,0.0,0.0,0.0,0.0,0.0,0.0,0.0,0.0,0.0,0.0,0.0,0.0,0.0,0.0,0.0,0.0,0.0,0.0,0.0,0.0,0.0,0.0,0.0,0.0,0.0,0.0,0.0,0.0,0.0,0.0,-1.6255,-2.1983,-2.4065,-2.5173,-2.535,-2.5608,-2.6079,-2.6723,-2.5967,-2.4128,0.0,0.0,0.0,0.0,0.0,0.0,0.0,0.0,0.0,0.0,0.0,0.0,0.0,0.0,0.0,0.0,0.0,0.0,0.0,0.0,0.0,0.0,0.0,0.0,0.0,0.0,0.0,0.0,2.3415,2.4062,2.3748,0.0,0.0,0.0,0.0,0.0,0.0,0.0,0.0,0.0,0.0,2.3722,2.3536,2.3617,0.0,0.0,2.4321,2.4613,2.4094,2.4132,2.4152,2.4016,2.4113,0.0,0.0,0.0,0.0,0.0,0.0,0.0,0.0,0.0,0.0,0.0,0.0,0.0,0.0,0.0,0.0,0.0,0.0,0.0,0.0,0.0,0.0,0.0,0.0,0.0,0.0,0.0,0.0,0.0,0.0,0.0,0.0,0.0,0.0,0.0,0.0,0.0,0.0,0.0,0.0,0.0,0.0,0.0,0.0,0.0,0.0,0.0,0.0,0.0,0.0,0.0,0.0,-1.7235,-2.0307,-2.4479,-2.6548,-2.6302,-2.6786,-2.73,-2.7825,-2.7016,-2.6359,0.0,0.0,0.0,0.0,0.0,0.0,0.0,0.0,0.0,0.0,0.0,0.0,0.0,0.0,0.0,0.0,0.0,0.0,0.0,0.0,0.0,0.0,0.0,0.0,0.0,0.0,0.0,0.0,2.3773,2.445,2.4819,0.0,0.0,0.0,0.0,0.0,0.0,0.0,0.0,0.0,0.0,2.3343,2.3271,2.3386,2.3554,2.3764,2.4247,2.4547,2.4321,2.4248,2.4211,2.4209,0.0,0.0,0.0,0.0,0.0,0.0,0.0,0.0,0.0,0.0,0.0,0.0,0.0,0.0,0.0,0.0,0.0,0.0,0.0,0.0,0.0,0.0,0.0,0.0,0.0,0.0,0.0,0.0,0.0,0.0,-2.0587,0.0,0.0,0.0,0.0,0.0,0.0,0.0,0.0,0.0,0.0,0.0,0.0,0.0,0.0,0.0,0.0,0.0,0.0,0.0,0.0,0.0,0.0,-2.1073,-2.1327,-2.5782,-2.8131,-2.8095,-2.8101,-2.838,-2.8916,-2.7933,-2.7501,-2.7668,0.0,0.0,0.0,0.0,0.0,0.0,0.0,0.0,0.0,0.0,0.0,0.0,0.0,0.0,0.0,0.0,0.0,0.0,0.0,0.0,0.0,0.0,0.0,0.0,0.0,0.0,2.359,2.4155,2.462,0.0,0.0,0.0,0.0,0.0,0.0,0.0,0.0,0.0,0.0,2.3006,2.2928,2.2737,2.3158,2.3596,2.393,2.4122,2.4291,2.4456,2.4329,2.4206,0.0,0.0,0.0,0.0,0.0,0.0,0.0,0.0,0.0,0.0,0.0,0.0,0.0,0.0,0.0,0.0,0.0,0.0,0.0,0.0,0.0,0.0,0.0,0.0,0.0,0.0,0.0,-2.5579,-2.5372,0.0,0.0,0.0,0.0,0.0,0.0,0.0,0.0,0.0,0.0,0.0,-2.3758,-2.4951,0.0,0.0,0.0,0.0,0.0,0.0,0.0,0.0,0.0,0.0,0.0,0.0,-2.0951,-2.121,-2.6137,-2.8802,-2.8805,-2.9025,-2.9372,-2.9861,-2.8955,-2.834,-2.8002,0.0,0.0,0.0,0.0,0.0,0.0,0.0,0.0,0.0,0.0,0.0,0.0,0.0,0.0,0.0,0.0,0.0,0.0,0.0,0.0,0.0,0.0,0.0,0.0,0.0,2.2877,0.0,0.0,0.0,0.0,0.0,0.0,0.0,0.0,0.0,0.0,0.0,2.3933,2.3234,2.3153,2.2961,2.25,2.2947,2.3343,0.0,0.0,0.0,0.0,0.0,0.0,0.0,0.0,0.0,0.0,0.0,0.0,0.0,0.0,2.4358,2.4478,2.4588,2.4708,2.4836,0.0,0.0,0.0,0.0,0.0,0.0,0.0,0.0,0.0,0.0,0.0,0.0,0.0,0.0,-2.7004,0.0,-2.6543,0.0,0.0,0.0,0.0,0.0,0.0,0.0,0.0,-2.505,-2.5846,-2.4801,-2.7296,-2.7424,0.0,-2.7597,-2.2859,0.0,0.0,0.0,0.0,0.0,0.0,0.0,0.0,-2.122,-2.2229,-2.6795,-2.9251,-2.9251,-2.9619,-3.0002,-3.0366,-2.9795,-2.9042,-2.8143,-2.1315,-1.9195,0.0,0.0,0.0,0.0,0.0,0.0,0.0,0.0,0.0,0.0,0.0,0.0,0.0,0.0,0.0,0.0,0.0,0.0,0.0,0.0,0.0,0.0,0.0,2.2402,0.0,0.0,0.0,0.0,0.0,0.0,0.0,0.0,0.0,2.4146,2.382,2.3298,2.294,2.2883,2.2851,2.2705,0.0,0.0,0.0,0.0,0.0,0.0,0.0,2.4697,2.4798,2.4835,2.4876,2.5014,2.5034,2.5034,2.5034,0.0,0.0,2.4486,2.4444,2.4526,2.467,2.47,2.4716,2.479,2.4828,2.4858,0.0,0.0,0.0,0.0,0.0,0.0,0.0,0.0,-2.7634,-2.7653,0.0,-2.7308,0.0,0.0,0.0,0.0,0.0,-2.6036,0.0,0.0,-2.9267,-3.0443,-3.029,-3.0304,-3.0032,-2.9489,-2.8873,-2.7176,-2.4303,-2.07,0.0,0.0,0.0,0.0,0.0,0.0,-2.2093,-2.4556,-2.7837,-2.9523,-2.954,-2.9848,-3.0198,-3.0573,-3.0388,-2.9599,-2.8118,-2.694,-2.4339,-1.9858,-1.4956,0.0,0.0,0.0,0.0,0.0,0.0,0.0,0.0,0.0,0.0,0.0,0.0,0.0,0.0,0.0,0.0,0.0,0.0,0.0,0.0,2.0124,0.0,0.0,0.0,0.0,0.0,0.0,0.0,0.0,0.0,0.0,2.3199,2.287,2.241,2.2422,0.0,0.0,0.0,0.0,2.4584,2.5572,2.5254,2.5336,2.6618,2.616,2.5721,2.5948,0.0,0.0,2.6512,2.6594,2.6557,2.6594,2.6539,2.6117,2.4593,2.4487,2.4534,2.4513,2.4495,2.4578,2.4697,2.467,2.4632,-3.047,0.0,0.0,0.0,0.0,-2.9668,-2.9726,-2.9781,-2.9781,-2.9766,-2.9776,-2.9531,0.0,0.0,0.0,0.0,0.0,0.0,-2.7366,-2.7656,-2.9338,-3.0222,-3.0398,-2.9975,-2.9677,-2.9506,-2.9326,-2.8598,-2.7452,-2.672,-2.344,-1.7843,0.0,0.0,0.0,0.0,-2.399,-2.6075,-2.8758,-3.0144,-3.0125,-3.0287,-3.0447,-3.0614,-3.0537,-3.0095,-2.917,-2.7899,-2.6244,-2.4025,-1.7332,0.0,0.0,0.0,0.0,0.0,0.0,0.0,0.0,0.0,0.0,0.0,0.0,0.0,0.0,0.0,0.0,0.0,0.0,0.0,1.84,1.8226,1.8504,0.0,0.0,0.0,0.0,0.0,0.0,0.0,0.0,0.0,2.2254,2.2583,2.2903,0.0,0.0,2.3708,2.4505,2.4715,2.4888,2.5207,2.5721,0.0,0.0,2.7233,2.753,2.6206,2.5991,2.6144,2.6512,2.6612,2.6612,2.6631,2.6612,2.6429,2.6007,2.5479,2.4967,2.445,2.441,2.4479,2.441,2.4601,2.4864,-3.2256,-3.1706,-3.094,-3.0603,-3.0648,-3.0648,-3.068,-3.0771,-3.079,-3.0771,-3.0771,-3.0654,-3.0535,-3.0439,-2.9959,0.0,0.0,0.0,-2.8681,-2.8896,-2.9766,-3.0241,-3.0367,-3.0018,-2.9859,-2.9844,-2.9628,-2.9435,-2.9326,-2.9435,-2.7496,-2.3588,0.0,0.0,-2.3135,-2.4344,-2.6009,-2.8129,-2.9652,-3.0441,-3.0422,-3.0508,-3.0551,-3.0563,-3.056,-3.0123,-2.9244,-2.84,-2.7398,-2.623,-2.1214,-1.7376,0.0,0.0,0.0,0.0,0.0,0.0,0.0,0.0,0.0,0.0,0.0,1.5308,1.7511,0.0,0.0,0.0,1.7353,1.7204,1.4898,1.5757,0.0,0.0,0.0,0.0,0.0,0.0,0.0,2.1163,2.044,2.0462,2.187,2.2656,2.317,2.342,2.3836,2.435,2.49,0.0,2.5399,2.5853,2.6325,2.672,2.6939,2.7857,2.8095,2.6739,2.6499,2.6726,2.7222,2.731,2.7356,2.7504,2.7567,2.742,2.6995,2.6594,2.6098,2.5309,2.5243,2.5338,2.5374,2.5672,2.5885,-3.3555,-3.3359,-3.157,-3.0876,-3.0914,-3.0914,-3.0987,-3.1094,-3.1055,-3.0996,-3.0996,-3.0918,-3.0836,-3.0716,-3.0464,0.0,-3.033,-3.0239,-3.0316,-3.049,-3.0439,-3.0398,-3.0398,-3.0398,-3.0436,-3.0494,-2.9939,-2.9992,-3.0571,-3.0064,-2.9796,-2.9725,-2.7434,-2.6514,-2.6918,-2.6945,-2.8091,-3.0352,-3.0453,-3.0507,-3.0513,-3.0576,-3.0582,-3.0515,-3.0457,-2.9863,-2.8666,-2.8549,-2.795,-2.674,-2.5612,-2.3401,-1.9792,0.0,0.0,0.0,0.0,0.0,0.0,0.0,0.0,0.0,0.0,0.0,0.0,0.0,0.0,1.3057,1.3423,0.0,1.0713,1.3253,0.0,0.0,0.0,1.8349,1.8641,1.8225,1.8451,1.9767,0.0,0.0,2.1901,2.2995,2.3273,2.215,2.3408,2.4575,2.4893,2.5347,2.601,2.6988,2.6916,2.7086,2.7897,2.8021,2.7817,2.74,2.7365,2.7572,2.8182,2.833,2.8529,2.8819,2.8957,2.8682,2.7706,2.771,2.7658,2.6924,2.667,2.6686,2.6911,2.7024,2.7165,-3.498,-3.4297,-3.3181,-3.273,-3.2772,-3.2753,-3.2792,-3.2754,-3.2168,-3.1894,-3.1836,-3.1191,-3.0879,-3.0857,-3.0792,-3.0713,-3.0618,-3.0529,-3.0498,-3.049,-3.0439,-3.0398,-3.0398,-3.0398,-3.0756,-3.134,-3.1258,-3.1621,-3.2416,-3.2306,-3.2235,-3.2196,-3.1616,-3.0491,-2.8914,-2.9094,-2.9632,-3.0472,-3.049,-3.054,-3.0642,-3.0618,-3.0577,-3.0575,-3.0065,-2.9431,-2.8621,-2.8095,-2.7496,-2.6724,-2.5691,-2.4505,-2.307,-1.9263,0.0,0.0,0.0,0.0,0.0,0.0,0.0,0.0,0.0,0.9122,1.2351,0.0,1.197,0.0,0.9543,1.0286,1.292,1.3482,0.0,0.0,1.6108,1.7199,1.5915,1.776,1.9478,2.0258,2.1585,2.2362,2.2123,2.3099,2.3348,2.2017,2.3186,2.4666,2.5882,2.598,2.6115,2.6707,2.6762,2.6909,2.7495,2.776,2.7895,2.7754,2.7771,2.7908,2.8342,2.8394,2.8522,2.8905,2.8975,2.8883,2.8627,2.8682,2.865,2.8393,2.7588,2.6801,2.6782,2.7008,2.7213,-3.6875,-3.6387,-3.5898,-3.5723,-3.5605,-3.4062,-3.3379,-3.3359,-3.291,-3.2734,-3.2715,-3.2207,-3.2012,-3.2012,-3.2012,-3.1949,-3.1848,-3.1824,-3.1771,-3.1705,-3.1668,-3.166,-3.1641,-3.1651,-3.1903,-3.2348,-3.2367,-3.2637,-3.313,-3.3149,-3.3149,-3.313,-3.3149,-3.2483,-3.1237,-3.1302,-3.148,-3.165,-3.1319,-3.1192,-3.1269,-3.0831,-3.0618,-3.0586,-3.0075,-2.9491,-2.8927,-2.8227,-2.7589,-2.697,-2.6071,-2.5271,-2.4623,-2.1699,-1.8457,0.0,0.0,0.0,0.0,0.0,0.0,0.0,0.0,0.0,0.0,0.0,0.9649,1.0768,0.949,1.0039,1.3384,1.2752,1.2199,1.239,1.4143,1.5137,1.4612,1.6356,1.7988,1.901,2.0535,2.159,2.168,2.2606,2.3106,2.254,2.3065,2.3989,2.5292,2.5786,2.612,2.635,2.6555,2.6952,2.76,2.8216,2.8561,2.8421,2.8389,2.8578,2.9062,2.8889,2.8838,2.9375,2.9255,2.8975,2.8975,2.8975,2.8975,2.8888,2.839,2.7906,2.7851,2.8015,2.8147,-3.8711,-3.8613,-3.8613,-3.8613,-3.8379,-3.5332,-3.4004,-3.3887,-3.3672,-3.3496,-3.3379,-3.3379,-3.3379,-3.3379,-3.3379,-3.3356,-3.33,-3.3297,-3.3255,-3.3223,-3.3198,-3.3212,-3.3212,-3.3212,-3.327,-3.3362,-3.3367,-3.3412,-3.3554,-3.3554,-3.3554,-3.3535,-3.3535,-3.3549,-3.3517,-3.3464,-3.3336,-3.3122,-3.2478,-3.2166,-3.2163,-3.1256,-3.0748,-3.0698,-3.0182,-2.9677,-2.923,-2.8419,-2.7741,-2.7189,-2.6317,-2.5561,-2.4957,-2.2644,-1.9603,0.0,-1.0484,0.0,0.0,0.0,0.0,0.0,0.0,0.0,0.0,0.3962,0.7134,1.19,1.0513,1.0237,1.2279,1.1434,1.1006,1.1637,1.213,1.2921,1.4155,1.4864,1.5868,1.7388,1.8871,2.0141,2.0922,2.1735,2.2493,2.295,2.2902,2.3245,2.4288,2.5368,2.6118,2.6208,2.6686,2.747,2.8252,2.9008,2.9334,2.9051,2.9019,2.9333,2.9892,2.9465,2.9269,2.9981,2.974,2.9232,2.9044,2.9153,2.9342,2.9439,2.9274,2.9122,2.9153,2.9161,2.9414,-3.9238,-3.8613,-3.8613,-3.8613,-3.8535,-3.7891,-3.7207,-3.6465,-3.5059,-3.4062,-3.3398,-3.3379,-3.3379,-3.3379,-3.3379,-3.3379,-3.3378,-3.3324,-3.3292,-3.3262,-3.3239,-3.3212,-3.3212,-3.3212,-3.3556,-3.4218,-3.4257,-3.4637,-3.5381,-3.5381,-3.5385,-3.5385,-3.5401,-3.532,-3.523,0.0,0.0,0.0,-3.3045,-3.3006,-3.3035,-3.2095,-3.1529,-3.1374,-3.0015,0.0,-2.8879,-2.754,-2.6766,-2.6622,-2.5405,0.0,0.0,0.0,0.0,0.0,0.0,0.0,0.0,0.0,0.0,0.0,-0.1812,-0.0457,0.1748,0.2477,0.3975,0.6586,0.7065,0.7623,0.8577,0.976,1.0661,1.1334,1.1644,1.2405,1.3777,1.5195,1.6694,1.8139,1.9731,2.0737,2.0514,2.0777,2.1161,2.1912,2.2421,2.3166,2.4297,2.5505,2.6548,2.7514,2.8089,2.8723,2.9323,2.9488,2.9506,2.9138,2.9246,2.9489,2.9657,2.9344,2.9437,3.0459,3.0454,3.0021,2.9229,3.0039,3.0852,3.0944,3.043,2.9787,2.9214,2.9085,2.9089,-4.0293,0.0,-3.9819,-3.9821,0.0,-3.9351,-3.8922,-3.8496,-3.7187,-3.6387,-3.5937,-3.5527,-3.5312,-3.5293,-3.4883,-3.4687,-3.4687,-3.4645,-3.4642,-3.4622,-3.4591,-3.4563,-3.4583,-3.4602,-3.4797,-3.5224,-3.5224,-3.5486,-3.5929,-3.5917,-3.5898,-3.5898,-3.5837,-3.5759,-3.5703,-3.5669,-3.5251,-3.4433,-3.4046,-3.3828,-3.3732,-3.2737,-3.2171,-3.2053,0.0,0.0,0.0,0.0,0.0,0.0,0.0,0.0,0.0,0.0,0.0,-1.7722,-1.4636,-1.2163,-1.0585,-0.9981,-0.9189,-0.8032,-0.6369,-0.3776,0.0,0.1051,0.2183,0.3658,0.4847,0.5659,0.605,0.764,0.8936,0.9641,1.0799,1.1971,1.3012,1.4053,1.5149,1.625,1.7473,1.8283,1.8496,1.951,2.0267,2.1003,2.1929,2.3067,2.4419,2.5621,2.6777,2.7928,2.8975,2.96,2.9844,3.0214,3.0267,3.0133,3.0228,3.0413,3.0612,3.0154,3.0115,3.1139,3.1382,3.1121,3.046,3.0894,3.1648,3.2238,3.1642,3.0742,3.021,2.9586,2.8975,-4.115,-4.1126,-4.1019,-4.1049,-4.1092,-4.0268,-4.0003,-4.0059,0.0,0.0,0.0,-3.7851,-3.7539,-3.748,-3.6777,-3.6465,-3.6445,-3.6465,-3.6465,-3.6465,-3.6465,-3.6445,-3.6465,-3.6309,-3.623,-3.6211,-3.6054,-3.5975,-3.5975,-3.5893,-3.5869,-3.5845,-3.5761,-3.5716,-3.5675,-3.5621,-3.5602,-3.5568,-3.4994,-3.4595,-3.4438,-3.3369,-3.2775,-3.2713,-3.145,-3.0816,-3.0789,-2.8993,-2.7724,-2.7175,-2.5826,-2.4776,-2.4085,-2.2698,-2.1479,-2.0611,-1.9366,-1.8139,-1.6925,-1.5118,-1.3722,-1.2957,-0.9873,-0.6309,-0.2274,-0.0913,0.024,0.1231,0.2682,0.3641,0.3969,0.5582,0.6876,0.7502,0.9445,1.097,1.1696,1.2432,1.3237,1.404,1.4977,1.5596,1.6707,1.8374,1.9801,2.0563,2.1841,2.3152,2.4638,2.5953,2.7042,2.8026,2.9107,2.9967,3.0207,3.0544,3.1038,3.1055,3.1106,3.1329,3.1485,3.1116,3.1076,3.1864,3.2265,3.2279,3.1913,3.1884,3.2272,3.3534,3.2636,3.1604,3.1494,3.0467,2.9494,-4.0959,-4.0857,-4.0843,-4.0908,-4.1023,-4.0863,-4.0901,-4.0859,-3.9297,-3.8613,-3.8594,-3.8476,-3.8418,-3.8398,-3.8281,-3.8242,-3.8242,-3.8223,-3.8242,0.0,-3.8242,-3.8223,-3.8203,-3.7461,-3.7109,-3.7051,-3.6316,-3.5913,-3.5907,-3.5777,-3.5723,-3.5723,-3.571,-3.5679,-3.5602,-3.5621,-3.5449,-3.5209,-3.5282,-3.5279,-3.5059,-3.4133,-3.3462,-3.3089,-3.2175,-3.1514,-3.1267,-2.9323,-2.7982,-2.7453,-2.5556,-2.4059,-2.2995,-2.274,-2.1965,-2.0722,-1.9991,-1.9251,-1.8377,-1.7143,-1.539,-1.3075,-1.0471,-0.7731,-0.4897,-0.4483,-0.3743,-0.2111,-0.0541,0.09,0.2355,0.3988,0.5054,0.5408,0.7162,0.868,0.9566,1.0975,1.2452,1.3881,1.4646,1.5534,1.6925,1.8309,1.9572,2.0806,2.2141,2.3699,2.4955,2.6526,2.7563,2.8217,2.8968,2.9643,3.0137,3.0336,3.0658,3.1134,3.1151,3.119,3.1312,3.1188,3.1342,3.2219,3.2888,3.3321,3.3325,3.346,3.3387,3.364,3.2876,3.2415,3.236,3.1616,3.0834,-4.0979,-4.0902,-4.0799,-4.0796,-4.0883,-4.0902,-4.0964,-4.1021,-4.018,-3.9864,-3.9961,-3.9512,-3.9297,-3.9258,-3.8809,-3.8573,-3.8502,-3.8502,-3.8453,-3.8448,-3.8428,-3.8428,-3.8409,-3.8018,-3.7839,-3.778,-3.6938,-3.6493,-3.6448,-3.5947,-3.5638,-3.5638,-3.5611,-3.5512,-3.5339,-3.5325,-3.5174,-3.4889,-3.5153,-3.5172,-3.4916,-3.4329,-3.3923,-3.3752,-3.2767,-3.2059,-3.1719,-3.0184,-2.8978,-2.8216,-2.6422,-2.5056,-2.4264,-2.3274,-2.2239,-2.126,-2.0631,-1.9838,-1.872,-1.7446,-1.5763,-1.3679,-1.2514,-1.0623,-0.7546,-0.6532,-0.549,-0.4229,-0.3439,-0.2321,-0.0562,0.114,0.2557,0.3556,0.5317,0.7003,0.827,0.9283,1.0793,1.2742,1.3899,1.5178,1.6957,1.8164,1.9192,2.0369,2.2018,2.348,2.4116,2.475,2.5886,2.7478,2.8404,2.9191,3.0048,3.0293,3.0559,3.1095,3.0918,3.0878,3.1095,3.1181,3.1448,3.1987,3.2692,3.3126,3.3315,3.3212,3.3068,3.2898,3.3021,3.291,3.2857,3.2437,3.1708,-4.0988,-4.0944,-4.08,-4.0752,-4.0801,-4.0801,-4.0844,-4.093,-4.0831,-4.0914,-4.1004,-4.0383,-4.0111,-4.0076,-3.9412,-3.9113,-3.9039,-3.9039,-3.8989,-3.8916,-3.8909,-3.8902,-3.884,-3.8696,-3.858,-3.8482,-3.7677,-3.7242,-3.7128,-3.6309,-3.5751,-3.5585,-3.5534,-3.5383,-3.519,-3.5122,-3.4963,-3.4714,-3.4813,-3.4813,-3.4593,-3.4334,-3.4128,-3.3926,-3.3269,-3.2639,-3.211,-3.1075,-3.0029,-2.9064,-2.7586,-2.6358,-2.5481,-2.4131,-2.2991,-2.2207,-2.1438,-2.0317,-1.8806,-1.7639,-1.63,-1.4694,-1.4486,-1.3288,-1.0615,-0.8595,-0.6797,-0.5594,-0.5209,-0.4449,-0.2655,-0.1123,0.027,0.1685,0.354,0.5124,0.651,0.7678,0.9169,1.1358,1.2798,1.438,1.6337,1.7546,1.8701,2.0341,2.1968,2.2989,2.3119,2.3097,2.4177,2.6017,2.7365,2.8245,2.9432,2.9745,3.0081,3.0683,3.0377,3.0335,3.0617,3.0814,3.11,3.1476,3.1863,3.2283,3.2648,3.2694,3.2466,3.2329,3.2606,3.3039,3.3135,3.3049,3.2606,-4.0925,-4.0816,-4.0813,-4.0785,-4.0801,-4.0801,-4.0828,-4.0836,-4.0801,-4.0809,-4.0804,-4.0746,-4.0752,-4.0883,-4.0769,-4.0726,-4.0837,-4.0937,-4.0808,-4.0671,-4.0754,-4.068,-4.0424,-3.9813,-3.9482,-3.933,-3.8462,-3.8003,-3.7954,-3.7019,-3.6246,-3.5578,-3.5507,-3.5479,-3.5432,-3.5207,-3.4963,-3.4713,-3.4423,-3.4269,-3.4265,-3.4218,-3.3887,-3.3314,-3.3561,-3.331,-3.2456,-3.17,-3.0865,-2.9904,-2.8677,-2.7275,-2.5717,-2.5323,-2.4658,-2.348,-2.2285,-2.0788,-1.8931,-1.856,-1.7788,-1.6415,-1.5553,-1.473,-1.3562,-1.1458,-0.8728,-0.6197,-0.537,-0.4647,-0.2932,-0.1811,-0.1078,-0.0539,0.1468,0.2907,0.3593,0.623,0.8759,0.9729,1.1184,1.3027,1.5385,1.6566,1.8131,2.0991,2.236,2.3025,2.3002,2.306,2.3289,2.452,2.5741,2.6842,2.7659,2.8258,2.8934,2.948,2.954,2.954,2.9689,2.9935,3.0283,3.0903,3.1014,3.1367,3.1965,3.2284,3.2369,3.2091,3.2299,3.2681,3.3105,3.3385,3.335,-4.0964,-4.0894,-4.0824,-4.085,-4.0889,-4.0824,-4.0801,-4.0793,-4.0762,-4.071,-4.0629,-4.0629,-4.0713,-4.0896,-4.0877,-4.089,-4.0909,-4.0909,-4.0816,-4.0701,-4.0701,-4.0688,-4.059,-4.0307,-4.0133,-4.0062,-3.9226,-3.8813,-3.8568,-3.7401,-3.6526,-3.6166,-3.5743,-3.5432,-3.5273,-3.5138,-3.4963,-3.4713,-3.4379,-3.4218,-3.4195,-3.4043,-3.3725,-3.3273,-3.3361,-3.3027,-3.2213,-3.1795,-3.1357,-3.0675,-2.9515,-2.8388,-2.7259,-2.6495,-2.5358,-2.3759,-2.206,-2.0657,-1.9411,-1.8922,-1.8429,-1.7841,-1.6666,-1.5496,-1.4214,-1.2764,-1.0532,-0.751,-0.6894,-0.6179,-0.4463,-0.3405,-0.2479,-0.1348,0.0136,0.1464,0.2536,0.4187,0.6212,0.9066,0.995,1.1403,1.4395,1.6788,1.8787,2.0921,2.2159,2.2801,2.2543,2.2807,2.2975,2.311,2.4182,2.5563,2.6509,2.736,2.8018,2.8482,2.8435,2.8355,2.9164,2.8793,2.8973,3.0286,3.0393,3.067,3.1406,3.1596,3.1674,3.1651,3.1858,3.223,3.2663,3.3118,3.34,-4.095,-4.0925,-4.085,-4.087,-4.0968,-4.0857,-4.0801,-4.0813,-4.0762,-4.0665,-4.059,-4.0554,-4.0636,-4.0752,-4.079,-4.0733,-4.0731,-4.0721,-4.066,-4.0574,-4.054,-4.053,-4.0504,-4.0489,-4.0489,-4.0412,-3.9908,-3.9508,-3.92,-3.8104,-3.7296,-3.6988,-3.6238,-3.5744,-3.5529,-3.5291,-3.4982,-3.4713,-3.4379,-3.4171,-3.4093,-3.3902,-3.3625,-3.3243,-3.3214,-3.2777,-3.1896,-3.1842,-3.1623,-3.1213,-3.0142,-2.9197,-2.8405,-2.7378,-2.594,-2.4109,-2.2478,-2.1206,-2.0425,-1.9693,-1.9073,-1.8661,-1.7523,-1.6193,-1.483,-1.3578,-1.163,-0.9035,-0.8231,-0.7227,-0.5599,-0.4292,-0.303,-0.1822,-0.0694,0.0574,0.1706,0.2513,0.4481,0.7537,0.8063,0.9632,1.3049,1.626,1.8859,2.0473,2.1458,2.2387,2.2197,2.2482,2.2457,2.231,2.3458,2.4584,2.5602,2.6328,2.7077,2.7545,2.741,2.759,2.8639,2.801,2.8077,2.9636,2.9735,3.0236,3.1061,3.1269,3.123,3.1291,3.1545,3.188,3.223,3.2663,3.3014,-4.0809,-4.0809,-4.0801,-4.087,-4.0972,-4.0857,-4.0801,-4.0801,-4.0805,-4.0785,-4.0761,-4.0699,-4.0711,-4.0696,-4.0696,-4.0742,-4.0788,-4.0788,-4.0732,-4.0667,-4.0667,-4.0623,-4.0504,-4.0489,-4.0489,-4.0489,-4.0392,-4.0008,-3.9354,-3.9181,-3.8757,-3.793,-3.7084,-3.6628,-3.6415,-3.5608,-3.4982,-3.4694,-3.4379,-3.4074,-3.385,-3.3834,-3.3578,-3.3243,-3.3184,-3.2745,-3.1915,-3.1789,-3.1585,-3.119,-3.0534,-2.9646,-2.8506,-2.7774,-2.6533,-2.4859,-2.3947,-2.2999,-2.1827,-2.1025,-2.0156,-1.8915,-1.8058,-1.7257,-1.6312,-1.4378,-1.244,-1.0497,-0.9088,-0.7488,-0.5681,-0.4122,-0.2962,-0.251,-0.1058,-0.0074,0.0155,0.1955,0.3285,0.4589,0.5966,0.8326,1.1833,1.4844,1.76,1.9486,2.0095,2.049,2.1913,2.1894,2.1968,2.2652,2.3458,2.4292,2.4439,2.5148,2.5863,2.6385,2.6701,2.6864,2.7291,2.7745,2.8417,2.8965,2.9329,2.9962,3.0821,3.119,3.1151,3.1235,3.147,3.177,3.1825,3.2213,3.255,-4.0801,-4.0801,-4.0801,-4.0843,-4.0864,-4.0816,-4.0801,-4.0801,-4.0801,-4.0779,-4.0742,-4.0726,-4.0723,-4.0711,-4.061,-4.0596,-4.061,-4.0604,-4.0604,-4.0554,-4.0574,-4.0564,-4.0504,-4.0489,-4.0489,-4.0489,-4.0489,-4.0335,-4.0027,-3.9546,-3.9161,-3.8757,-3.7969,-3.7198,-3.6498,-3.609,-3.5513,-3.4751,-3.436,-3.4147,-3.3993,-3.3625,-3.335,-3.3196,-3.2903,-3.2433,-3.1825,-3.1582,-3.1162,-3.0642,-3.0377,-2.9735,-2.8542,-2.7487,-2.6501,-2.5436,-2.4693,-2.3757,-2.2542,-2.1773,-2.1064,-2.0105,-1.8967,-1.8098,-1.7464,-1.589,-1.4259,-1.2844,-1.0524,-0.8538,-0.6757,-0.4968,-0.3562,-0.2843,-0.175,-0.068,0.0078,0.1238,0.231,0.3174,0.5466,0.8548,1.0972,1.3863,1.6235,1.7629,1.8277,1.8957,1.9629,2.0309,2.1055,2.153,2.2224,2.2967,2.3543,2.4221,2.4908,2.5453,2.5892,2.6534,2.7034,2.7357,2.7898,2.8497,2.8934,2.9524,3.0318,3.0918,3.0918,3.0821,3.1089,3.147,3.1411,3.1806,3.2074,-4.0723,-4.0761,-4.0781,-4.0788,-4.0793,-4.0801,-4.0801,-4.0801,-4.0801,-4.077,-4.0712,-4.0726,-4.0723,-4.0687,-4.0559,-4.0489,-4.0489,-4.0504,-4.0489,-4.0489,-4.0489,-4.0489,-4.0489,-4.0489,-4.0489,-4.0489,-4.0489,-4.0489,-4.045,-3.995,-3.97,-3.9623,-3.8735,-3.7893,-3.7144,-3.652,-3.5741,-3.5002,-3.4349,-3.3969,-3.381,-3.3259,-3.2983,-3.2921,-3.2517,-3.2127,-3.1825,-3.1411,-3.1015,-3.0601,-3.0251,-2.9451,-2.8258,-2.7387,-2.6653,-2.5973,-2.5308,-2.4347,-2.3067,-2.2127,-2.1328,-2.0614,-1.9269,-1.8351,-1.8075,-1.6658,-1.5286,-1.3777,-1.1648,-0.9179,-0.7588,-0.5974,-0.4502,-0.3145,-0.2168,-0.1154,-0.0078,0.0941,0.2032,0.3263,0.5667,0.8291,1.0461,1.2708,1.4727,1.6165,1.6812,1.7173,1.8312,1.9291,2.0462,2.0921,2.1486,2.2111,2.2641,2.3368,2.4157,2.4778,2.5133,2.5892,2.6481,2.6864,2.7327,2.7981,2.8591,2.9132,2.9772,3.046,3.0559,3.0335,3.0764,3.1274,3.1312,3.1393,3.1696,-4.0582,-4.0692,-4.0711,-4.0731,-4.076,-4.0768,-4.0785,-4.0785,-4.0805,-4.0768,-4.0781,-4.0721,-4.0723,-4.0687,-4.0559,-4.0504,-4.0519,-4.0504,-4.0489,-4.0489,-4.0489,-4.0489,-4.0489,-4.0489,-4.0489,-4.0489,-4.0489,-4.0489,-4.0469,-4.0412,-4.0373,-4.023,-3.9353,-3.8709,-3.8671,-3.6969,-3.5882,-3.5261,-3.4286,-3.3552,-3.3178,-3.2777,-3.25,-3.2433,-3.2022,-3.1789,-3.1752,-3.1411,-3.1151,-3.0975,-3.0081,-2.8857,-2.7944,-2.755,-2.721,-2.6509,-2.5877,-2.4857,-2.3525,-2.2159,-2.12,-2.0322,-1.8833,-1.8105,-1.7833,-1.6402,-1.4872,-1.358,-1.1563,-0.943,-0.7881,-0.6806,-0.5418,-0.3297,-0.2351,-0.1327,-0.0235,0.094,0.2419,0.4196,0.5835,0.7538,0.9925,1.1624,1.3288,1.5134,1.5738,1.6235,1.7967,1.8829,1.9998,2.1071,2.1319,2.1354,2.1906,2.2578,2.3359,2.408,2.4376,2.4894,2.555,2.604,2.6558,2.7202,2.8015,2.8607,2.9194,2.9848,3.0166,3.0149,3.0699,3.1095,3.1252,3.1351,3.1432,-4.0534,-4.0579,-4.0559,-4.0582,-4.0597,-4.0597,-4.0648,-4.074,-4.0731,-4.0751,-4.0721,-4.0715,-4.0723,-4.0687,-4.0559,-4.0545,-4.0623,-4.0564,-4.0489,-4.0489,-4.0489,-4.0489,-4.0489,-4.0489,-4.0489,-4.0489,-4.0489,-4.0489,-4.0489,-4.0489,-4.0406,-4.0155,-3.9872,-3.9157,-3.8254,-3.7547,-3.6696,-3.5219,-3.4491,-3.3846,-3.3178,-3.2433,-3.2022,-3.1968,-3.162,-3.1372,-3.1372,-3.1269,-3.1015,-3.0658,-3.0208,-2.9451,-2.8415,-2.7795,-2.724,-2.6602,-2.6323,-2.5583,-2.4218,-2.3197,-2.2064,-2.0986,-1.9925,-1.9148,-1.8302,-1.6579,-1.5068,-1.3885,-1.1919,-1.0063,-0.89,-0.7893,-0.6409,-0.4339,-0.3247,-0.2113,-0.0784,0.1095,0.3044,0.4516,0.5644,0.7315,0.9246,1.0622,1.187,1.3541,1.4498,1.5764,1.6374,1.7784,1.871,1.9835,2.0042,2.0671,2.1493,2.2157,2.2776,2.3428,2.378,2.4118,2.4724,2.5106,2.5686,2.6371,2.7238,2.7951,2.8591,2.9073,2.9374,2.9789,3.0166,3.0559,3.1055,3.1213,3.1218,-4.0489,-4.0489,-4.0489,-4.0489,-4.0489,-4.0489,-4.0545,-4.0623,-4.0636,-4.0636,-4.0623,-4.0623,-4.0623,-4.061,-4.053,-4.0545,-4.061,-4.053,-4.0457,-4.0408,-4.0473,-4.0489,-4.0473,-4.0389,-4.0285,-4.0175,-4.0157,-4.0175,-4.0175,-4.0157,-4.0082,-3.9922,-3.9797,-3.9307,-3.8361,-3.7922,-3.6989,-3.5684,-3.4663,-3.382,-3.3062,-3.2107,-3.1565,-3.149,-3.114,-3.0878,-3.0838,-3.0658,-3.0576,-3.0535,-3.0251,-2.9406,-2.8286,-2.776,-2.7152,-2.6336,-2.5986,-2.5423,-2.4075,-2.3129,-2.2339,-2.1127,-2.0306,-1.9412,-1.8247,-1.6575,-1.5101,-1.4112,-1.2105,-1.0415,-0.9367,-0.8551,-0.7161,-0.5458,-0.3898,-0.2422,-0.0705,0.0938,0.2728,0.4203,0.5674,0.7218,0.8832,0.9744,1.0864,1.2137,1.3947,1.5163,1.5587,1.6862,1.8094,1.8854,1.9085,1.9998,2.1146,2.1773,2.2231,2.2776,2.322,2.3636,2.4092,2.415,2.4526,2.5315,2.6105,2.6805,2.7405,2.8066,2.8529,2.9025,2.9585,3.0064,3.0518,3.0757,3.0861,-4.0473,-4.0473,-4.0489,-4.0489,-4.0489,-4.0489,-4.0504,-4.0504,-4.0504,-4.0519,-4.0519,-4.0519,-4.0519,-4.0504,-4.0504,-4.0504,-4.0504,-4.0485,-4.0356,-4.0269,-4.0339,-4.0406,-4.0336,-4.0139,-3.9943,-3.9712,-3.9649,-3.9668,-3.9712,-3.9712,-3.9599,-3.9552,-3.9314,-3.908,-3.8785,-3.804,-3.7326,-3.6392,-3.4863,-3.3794,-3.3149,-3.1927,-3.1331,-3.1348,-3.0733,-3.0393,-3.0335,-2.9908,-3.0038,-3.0757,-2.9892,-2.8857,-2.7944,-2.761,-2.6982,-2.5797,-2.5522,-2.4794,-2.3446,-2.2712,-2.1758,-2.0739,-1.9975,-1.8972,-1.8047,-1.641,-1.5026,-1.4314,-1.2345,-1.0565,-0.9528,-0.8865,-0.7795,-0.6173,-0.4215,-0.1953,0.0784,0.0625,0.1635,0.3971,0.5616,0.7019,0.8993,0.9367,1.0346,1.2057,1.3954,1.495,1.5587,1.6645,1.8114,1.8529,1.8539,1.9452,2.0677,2.2143,2.2609,2.2763,2.3113,2.3292,2.3649,2.3708,2.3872,2.4553,2.5106,2.5783,2.6467,2.7238,2.8,2.8607,2.9134,2.9585,2.9935,3.0225,3.0535,-4.0195,-4.0233,-4.0406,-4.0489,-4.0489,-4.0489,-4.0489,-4.0489,-4.0489,-4.0489,-4.0489,-4.0489,-4.0489,-4.0489,-4.0489,-4.0489,-4.0473,-4.0473,-4.0356,-4.0139,-4.0158,-4.0043,-3.9882,-3.9757,-3.9668,-3.9576,-3.9571,-3.9599,-3.9599,-3.9552,-3.9457,-3.9238,-3.9152,-3.8999,-3.8741,-3.8493,-3.7794,-3.6777,-3.59,-3.4814,-3.3783,-3.2622,-3.2043,-3.1911,-3.0917,-3.0342,-3.0251,-2.9717,-2.9496,-2.9777,-2.918,-2.8638,-2.8189,-2.781,-2.7137,-2.6351,-2.5882,-2.5339,-2.4144,-2.3113,-2.2113,-2.0771,-2.0268,-1.9584,-1.8057,-1.6254,-1.5242,-1.4609,-1.3077,-1.1174,-0.983,-0.9489,-0.8174,-0.5297,-0.3832,-0.2118,-0.0235,0.0313,0.0933,0.3186,0.5146,0.7088,0.8689,0.9448,1.0121,1.2057,1.373,1.5092,1.5376,1.6376,1.7774,1.8066,1.8269,1.9177,2.0325,2.204,2.2929,2.296,2.3065,2.3125,2.3471,2.3708,2.4002,2.4465,2.4724,2.5217,2.6,2.673,2.7449,2.811,2.8543,2.895,2.954,2.9908,3.0225,-3.9982,-4.0101,-4.0286,-4.0389,-4.0489,-4.0489,-4.0489,-4.0489,-4.0489,-4.0489,-4.0473,-4.0372,-4.0339,-4.0302,-4.0194,-4.0138,-4.0119,-4.0138,-4.0024,-3.9882,-3.9712,-3.9576,-3.9414,-3.9389,-3.9333,-3.9216,-3.9216,-3.9234,-3.9189,-3.9216,-3.9109,-3.8961,-3.8952,-3.8844,-3.8719,-3.8658,-3.8232,-3.7244,-3.6435,-3.5518,-3.4597,-3.339,-3.242,-3.1901,-3.0876,-3.0145,-2.9273,-2.881,-2.8717,-2.8873,-2.8701,-2.8383,-2.814,-2.781,-2.724,-2.651,-2.5757,-2.4778,-2.38,-2.2713,-2.1479,-2.0398,-2.0074,-1.9365,-1.8114,-1.6576,-1.5728,-1.5021,-1.3738,-1.205,-1.0351,-0.957,-0.7957,-0.5619,-0.3921,-0.2281,-0.0236,0.0625,0.1479,0.311,0.4985,0.7099,0.8993,0.9296,1.0346,1.1909,1.3448,1.4235,1.4665,1.6088,1.7157,1.7432,1.7979,1.8792,1.9943,2.1495,2.2476,2.2567,2.2884,2.2944,2.3245,2.3603,2.3649,2.3943,2.4266,2.4768,2.5605,2.6269,2.6797,2.7363,2.7815,2.8367,2.8919,2.9422,2.9733,-3.9731,-3.9983,-4.0041,-4.0195,-4.0353,-4.0406,-4.0336,-4.0389,-4.0353,-4.0353,-4.0319,-4.0139,-4.0042,-4.0022,-3.9819,-3.9645,-3.9645,-3.9712,-3.9603,-3.9462,-3.9282,-3.909,-3.909,-3.9063,-3.8961,-3.8803,-3.8719,-3.875,-3.8792,-3.8762,-3.8719,-3.875,-3.8719,-3.8719,-3.8707,-3.8707,-3.8382,-3.7628,-3.6738,-3.5934,-3.5175,-3.4091,-3.3043,-3.1979,-3.0723,-2.9532,-2.84,-2.7786,-2.7894,-2.8383,-2.8415,-2.8091,-2.7675,-2.7575,-2.7137,-2.6486,-2.537,-2.4247,-2.2987,-2.1794,-2.0386,-1.9617,-1.9365,-1.8911,-1.8056,-1.7001,-1.6079,-1.5234,-1.4243,-1.2799,-1.1135,-0.9214,-0.7521,-0.6025,-0.4314,-0.2276,-0.0471,0.1173,0.2336,0.3108,0.4988,0.7011,0.8542,0.9448,1.0051,1.1922,1.3237,1.381,1.4307,1.5163,1.6149,1.6784,1.7558,1.837,1.9596,2.0927,2.1557,2.2011,2.2457,2.275,2.3065,2.3245,2.3185,2.3352,2.3695,2.4381,2.5329,2.5877,2.6269,2.7019,2.7745,2.8042,2.8319,2.8701,2.9058,-3.9238,-3.9339,-3.958,-3.9735,-3.98,-3.9781,-3.98,-3.9821,-3.9821,-3.9842,-3.98,-3.9735,-3.9712,-3.9709,-3.9599,-3.9599,-3.9552,-3.9552,-3.9481,-3.9178,-3.8942,-3.8803,-3.8803,-3.8785,-3.8762,-3.8707,-3.8707,-3.8707,-3.8707,-3.8707,-3.8707,-3.8707,-3.8707,-3.8707,-3.8707,-3.8627,-3.8252,-3.7488,-3.7035,-3.6409,-3.5566,-3.4754,-3.3812,-3.28,-3.0879,-2.9354,-2.8499,-2.7859,-2.7675,-2.776,-2.781,-2.776,-2.7524,-2.7049,-2.6669,-2.6354,-2.5897,-2.4752,-2.3195,-2.1747,-2.064,-1.942,-1.911,-1.8911,-1.8076,-1.7139,-1.621,-1.5226,-1.4322,-1.3148,-1.1859,-0.9407,-0.7447,-0.6022,-0.43,-0.2663,-0.1255,0.0782,0.2336,0.3343,0.4988,0.7099,0.8922,0.9296,1.0271,1.199,1.2893,1.3535,1.408,1.4552,1.5383,1.6253,1.6838,1.7741,1.9236,2.0387,2.0994,2.1707,2.2193,2.2457,2.2775,2.3125,2.3125,2.3125,2.3185,2.4034,2.5119,2.5508,2.5892,2.6759,2.756,2.776,2.7944,2.8238,2.8701,-3.8971,-3.9125,-3.9289,-3.9438,-3.9599,-3.9599,-3.9599,-3.9599,-3.9599,-3.9599,-3.9576,-3.9457,-3.9364,-3.9339,-3.9223,-3.9181,-3.9216,-3.9308,-3.9197,-3.8961,-3.8855,-3.8815,-3.8707,-3.8707,-3.8707,-3.8707,-3.8707,-3.8707,-3.8707,-3.8707,-3.8707,-3.8707,-3.8707,-3.8707,-3.8627,-3.8465,-3.8083,-3.756,-3.702,-3.6481,-3.5951,-3.5338,-3.4234,-3.2934,-3.0845,-2.9236,-2.8629,-2.8263,-2.7955,-2.7715,-2.7575,-2.7423,-2.71,-2.6707,-2.639,-2.5962,-2.5013,-2.4046,-2.253,-2.1186,-1.9901,-1.8844,-1.8654,-1.8462,-1.792,-1.7139,-1.6219,-1.5234,-1.433,-1.3316,-1.2244,-0.9596,-0.7318,-0.5065,-0.3822,-0.2737,-0.1411,0.086,0.2649,0.3422,0.4988,0.7003,0.8466,0.919,1.0475,1.2205,1.264,1.3248,1.3418,1.3965,1.4958,1.5716,1.6181,1.7126,1.8723,1.9806,2.0539,2.1282,2.2034,2.2178,2.2371,2.2726,2.3125,2.3125,2.3125,2.3989,2.4894,2.5231,2.5783,2.6916,2.756,2.756,2.766,2.786,2.8463,-3.8844,-3.9036,-3.9036,-3.9205,-3.9451,-3.9451,-3.9427,-3.9432,-3.9476,-3.9402,-3.9408,-3.9152,-3.9054,-3.8999,-3.8862,-3.8738,-3.8792,-3.8894,-3.8913,-3.8773,-3.8913,-3.8844,-3.8719,-3.8707,-3.8707,-3.8707,-3.8707,-3.8707,-3.8707,-3.8707,-3.8707,-3.8658,-3.8596,-3.8515,-3.8433,-3.8065,-3.7685,-3.7379,-3.6786,-3.6333,-3.6139,-3.5654,-3.4622,-3.2915,-3.0942,-2.9696,-2.9146,-2.8831,-2.8502,-2.7985,-2.7835,-2.7299,-2.6679,-2.6312,-2.6122,-2.5398,-2.415,-2.2809,-2.1732,-2.0406,-1.9299,-1.8202,-1.7794,-1.7803,-1.752,-1.6793,-1.5869,-1.4791,-1.3738,-1.2546,-1.1652,-0.9397,-0.6492,-0.4267,-0.3276,-0.266,-0.1333,0.1175,0.2824,0.3346,0.5021,0.7099,0.8503,0.9535,1.0935,1.219,1.2555,1.2893,1.3034,1.3516,1.4565,1.5619,1.6146,1.7605,1.9177,1.9464,2.0125,2.1206,2.2016,2.228,2.2387,2.2997,2.3427,2.3175,2.3352,2.4047,2.4567,2.4851,2.5673,2.6967,2.7357,2.7188,2.7306,2.7524,2.8271,-3.8719,-3.8743,-3.8762,-3.8803,-3.8862,-3.8862,-3.8892,-3.8833,-3.8902,-3.8862,-3.8862,-3.8803,-3.8773,-3.8762,-3.875,-3.8707,-3.8719,-3.8773,-3.8762,-3.8689,-3.8792,-3.8732,-3.8719,-3.8707,-3.8707,-3.8707,-3.8658,-3.8627,-3.8658,-3.8707,-3.8578,-3.8546,-3.8234,-3.8032,-3.7929,-3.7542,-3.7097,-3.6847,-3.6399,-3.6037,-3.5749,-3.5328,-3.4703,-3.3144,-3.1313,-3.0363,-3.0043,-2.9669,-2.9355,-2.9205,-2.8727,-2.774,-2.6693,-2.5967,-2.5578,-2.4993,-2.3904,-2.2445,-2.1066,-2.0568,-1.9497,-1.8317,-1.7364,-1.689,-1.663,-1.5974,-1.495,-1.3715,-1.2251,-1.0714,-0.912,-0.8188,-0.6652,-0.4668,-0.3383,-0.2678,-0.1182,0.1111,0.3117,0.3338,0.5195,0.707,0.8348,0.9414,1.0469,1.1599,1.2384,1.2692,1.292,1.35,1.4281,1.5281,1.6271,1.8035,1.9902,1.971,1.9961,2.1242,2.2139,2.2678,2.2963,2.3541,2.3766,2.3477,2.3346,2.3662,2.4118,2.4523,2.5022,2.5901,2.6332,2.6721,2.6982,2.7291,2.8125,-3.8707,-3.8707,-3.8707,-3.8707,-3.8707,-3.8707,-3.8707,-3.8707,-3.8707,-3.8707,-3.8707,-3.8707,-3.8707,-3.8707,-3.8707,-3.8707,-3.8707,-3.8707,-3.8707,-3.8707,-3.8707,-3.8707,-3.8707,-3.8707,-3.8707,-3.8627,-3.8465,-3.83,-3.83,-3.8267,-3.8201,-3.7895,-3.7614,-3.7542,-3.7433,-3.702,-3.6684,-3.6333,-3.583,-3.5386,-3.4988,-3.456,-3.3649,-3.2914,-3.1824,-3.0923,-3.0421,-2.982,-2.9239,-2.8805,-2.8177,-2.7471,-2.6771,-2.604,-2.5213,-2.4379,-2.3556,-2.2372,-2.0974,-2.0515,-1.9607,-1.7541,-1.6775,-1.6367,-1.5762,-1.4958,-1.3833,-1.2345,-1.1075,-0.9588,-0.8533,-0.7609,-0.5873,-0.3826,-0.3075,-0.2418,-0.0717,0.1772,0.2769,0.3446,0.5363,0.7022,0.8205,0.9152,0.9902,1.0958,1.2095,1.2575,1.2902,1.3622,1.4474,1.6031,1.7175,1.8729,2.0232,2.0058,2.0333,2.146,2.236,2.2923,2.3508,2.4038,2.4004,2.3753,2.3697,2.3666,2.3982,2.4505,2.4741,2.4927,2.5767,2.6428,2.6654,2.7108,2.7947,-3.8707,-3.8707,-3.8707,-3.8707,-3.8707,-3.8707,-3.8707,-3.8707,-3.8707,-3.8707,-3.8707,-3.8707,-3.8707,-3.8707,-3.8707,-3.8707,-3.8707,-3.8707,-3.8707,-3.8707,-3.8707,-3.8707,-3.8707,-3.8676,-3.8627,-3.8382,-3.8165,-3.7893,-3.7946,-3.7843,-3.7542,-3.736,-3.719,-3.7038,-3.6921,-3.6481,-3.6291,-3.589,-3.5232,-3.464,-3.4153,-3.3287,-3.2586,-3.2532,-3.191,-3.124,-3.078,-3.0031,-2.9435,-2.8784,-2.7959,-2.7152,-2.6897,-2.6268,-2.513,-2.3763,-2.3389,-2.2308,-2.1101,-2.059,-1.9596,-1.7472,-1.6567,-1.5929,-1.5161,-1.4147,-1.2641,-1.1087,-0.9745,-0.8937,-0.826,-0.7231,-0.5317,-0.3502,-0.2922,-0.2448,-0.0327,0.1723,0.3131,0.4172,0.5715,0.6958,0.8247,0.8914,0.969,1.1133,1.2284,1.2825,1.3233,1.4124,1.5264,1.7047,1.8417,1.9665,2.0487,2.0525,2.1008,2.215,2.2793,2.3363,2.3879,2.4384,2.4252,2.423,2.4004,2.4014,2.43,2.4255,2.4079,2.4429,2.5508,2.6079,2.6147,2.6849,2.783,-3.8707,-3.8707,-3.8707,-3.8707,-3.8707,-3.8707,-3.8707,-3.8707,-3.8707,-3.8707,-3.8707,-3.8707,-3.8707,-3.8707,-3.8707,-3.8707,-3.8707,-3.8707,-3.8707,-3.8707,-3.8707,-3.8707,-3.8707,-3.8707,-3.8496,-3.8216,-3.7962,-3.7893,-3.7755,-3.7433,-3.721,-3.702,-3.6643,-3.6498,-3.6457,-3.6054,-3.5694,-3.5588,-3.4988,-3.4284,-3.3633,-3.2895,-3.2586,-3.2327,-3.1879,-3.1407,-3.1113,-3.0411,-2.9832,-2.9714,-2.8521,-2.7577,-2.6934,-2.6281,-2.5534,-2.4735,-2.3978,-2.2957,-2.1168,-2.0584,-1.9833,-1.7772,-1.6474,-1.5685,-1.4754,-1.3348,-1.1932,-1.1476,-0.9682,-0.8375,-0.799,-0.7281,-0.5521,-0.4205,-0.3264,-0.2241,-0.0339,0.2019,0.3379,0.428,0.5583,0.7022,0.8353,0.8897,0.9616,1.108,1.2287,1.282,1.3678,1.4615,1.553,1.7195,1.8894,2.0235,2.0576,2.0576,2.1486,2.2581,2.3112,2.367,2.4542,2.5049,2.4928,2.4833,2.4582,2.4192,2.4086,2.3888,2.3454,2.3904,2.4924,2.5315,2.5494,2.6534,2.7896,-3.8707,-3.8707,-3.8707,-3.8707,-3.8707,-3.8707,-3.8707,-3.8707,-3.8707,-3.8707,-3.8707,-3.8707,-3.8707,-3.8707,-3.8707,-3.8707,-3.8707,-3.8707,-3.8707,-3.8707,-3.8707,-3.8707,-3.8707,-3.8707,-3.8515,-3.8183,-3.779,-3.747,-3.736,-3.6981,-3.6643,-3.6316,-3.6097,-3.5941,-3.6028,-3.5739,-3.5622,-3.5316,-3.4592,-3.3479,-3.261,-3.216,-3.2023,-3.1966,-3.164,-3.1524,-3.1204,-3.0194,-2.9628,-2.9275,-2.8066,-2.7052,-2.655,-2.5921,-2.5239,-2.5287,-2.4195,-2.2986,-2.1599,-2.093,-1.9682,-1.8199,-1.6572,-1.5383,-1.4396,-1.3153,-1.1668,-1.0584,-0.9776,-0.8742,-0.7694,-0.7078,-0.5952,-0.4818,-0.3767,-0.2554,-0.079,0.1931,0.3798,0.4617,0.5518,0.688,0.7887,0.8115,0.8694,0.9904,1.1193,1.2054,1.3497,1.5177,1.616,1.7114,1.8903,2.0489,2.0576,2.0644,2.1603,2.2541,2.3143,2.3913,2.5322,2.5837,2.5428,2.514,2.4958,2.4531,2.4092,2.3816,2.3701,2.4025,2.4381,2.5097,2.5882,2.7219,2.8359,-3.8578,-3.8707,-3.8707,-3.8707,-3.8707,-3.8707,-3.8707,-3.8707,-3.8707,-3.8707,-3.8707,-3.8707,-3.8707,-3.8707,-3.8707,-3.8707,-3.8707,-3.8707,-3.8707,-3.8707,-3.8707,-3.8707,-3.8707,-3.8707,-3.8546,-3.8318,-3.7596,-3.7058,-3.6666,-3.6416,-3.6011,-3.5622,-3.5756,-3.5667,-3.5622,-3.5577,-3.5487,-3.48,-3.3887,-3.2772,-3.1838,-3.1567,-3.1524,-3.1524,-3.1467,-3.1467,-3.1278,-2.9936,-2.9052,-2.8798,-2.7524,-2.6501,-2.5995,-2.5505,-2.4917,-2.4945,-2.4366,-2.3697,-2.2321,-2.1156,-1.991,-1.8524,-1.697,-1.5498,-1.3705,-1.302,-1.2182,-1.0326,-0.9248,-0.8242,-0.7308,-0.6905,-0.6244,-0.5198,-0.4156,-0.3035,-0.1526,0.1517,0.3646,0.4271,0.526,0.6599,0.7285,0.721,0.7837,0.8798,1.0009,1.1289,1.3237,1.5426,1.6764,1.7577,1.8123,1.9844,2.0489,2.0779,2.1745,2.2414,2.2999,2.3638,2.4814,2.5335,2.5196,2.5105,2.5162,2.5378,2.5228,2.4608,2.4092,2.44,2.4857,2.5675,2.6651,2.7923,2.8823,-3.8267,-3.8707,-3.8689,-3.8707,-3.8707,-3.8707,-3.8707,-3.8707,-3.8707,-3.8707,-3.8707,-3.8707,-3.8707,-3.8707,-3.8707,-3.8707,-3.8707,-3.8707,-3.8707,-3.8707,-3.8707,-3.8707,-3.8658,-3.8546,-3.8252,-3.7596,-3.7152,-3.6586,-3.5994,-3.5941,-3.5694,-3.5639,-3.5639,-3.5639,-3.5487,-3.527,-3.4721,-3.4003,-3.3145,-3.2422,-3.1739,-3.1467,-3.1467,-3.1467,-3.1467,-3.1467,-3.1409,-2.9875,-2.8876,-2.8812,-2.7351,-2.6094,-2.5511,-2.5004,-2.4518,-2.4195,-2.4472,-2.3677,-2.2386,-2.1384,-2.0514,-1.9184,-1.76,-1.581,-1.3858,-1.1815,-1.0787,-1.0399,-0.9158,-0.7824,-0.7243,-0.6926,-0.6518,-0.5736,-0.4621,-0.3304,-0.1435,0.1615,0.3489,0.4016,0.5085,0.6602,0.7139,0.7139,0.7665,0.8715,1.0438,1.1724,1.3594,1.5621,1.7155,1.7985,1.7772,1.8727,2.0157,2.076,2.1135,2.1811,2.2403,2.2999,2.37,2.4163,2.4837,2.5257,2.5455,2.592,2.6222,2.5492,2.5023,2.4975,2.5329,2.6056,2.7027,2.8211,2.9103,-3.7773,-3.8183,-3.8183,-3.8382,-3.8707,-3.8707,-3.8707,-3.8707,-3.8707,-3.8707,-3.8707,-3.8707,-3.8707,-3.8707,-3.8707,-3.8707,-3.8707,-3.8707,-3.8676,-3.8707,-3.8707,-3.8707,-3.8627,-3.8332,-3.798,-3.7506,-3.7058,-3.662,-3.6182,-3.5783,-3.5622,-3.5639,-3.5532,-3.527,-3.5115,-3.4609,-3.3853,-3.3287,-3.268,-3.2216,-3.1682,-3.1467,-3.1467,-3.1467,-3.1467,-3.1219,-3.0718,-2.9628,-2.8876,-2.8117,-2.7095,-2.6057,-2.4992,-2.448,-2.3891,-2.322,-2.3466,-2.2671,-2.2221,-2.1205,-2.0062,-1.8428,-1.7292,-1.6145,-1.4117,-1.2462,-1.1289,-1.0428,-0.9056,-0.7841,-0.7136,-0.7044,-0.6763,-0.6057,-0.4996,-0.358,-0.1613,0.1346,0.3138,0.366,0.5262,0.6959,0.7139,0.7139,0.7841,0.8803,1.0524,1.2328,1.4028,1.5199,1.6378,1.7302,1.709,1.7883,1.9237,1.9875,2.0372,2.1135,2.1886,2.2339,2.2947,2.3965,2.4669,2.5147,2.555,2.5975,2.6077,2.6025,2.587,2.5726,2.5871,2.6334,2.7385,2.8464,2.9012,-3.7248,-3.7703,-3.7685,-3.8083,-3.8658,-3.8707,-3.8707,-3.8707,-3.8707,-3.8707,-3.8707,-3.8707,-3.8707,-3.8707,-3.8707,-3.8707,-3.8627,-3.8546,-3.8465,-3.8415,-3.8415,-3.8382,-3.8201,-3.7998,-3.772,-3.7415,-3.6847,-3.6333,-3.6028,-3.5722,-3.5453,-3.5316,-3.527,-3.4958,-3.4592,-3.3735,-3.3039,-3.268,-3.2272,-3.212,-3.1524,-3.1467,-3.1467,-3.1409,-3.1278,-3.0896,-3.0133,-2.924,-2.8376,-2.7736,-2.6892,-2.5861,-2.485,-2.3891,-2.3294,-2.2414,-2.1593,-2.0981,-2.1187,-2.0897,-1.955,-1.7869,-1.7357,-1.6093,-1.4468,-1.2772,-1.1214,-1.0605,-0.9318,-0.8017,-0.7139,-0.7139,-0.7051,-0.6419,-0.473,-0.331,-0.1793,0.0449,0.2058,0.3303,0.5174,0.7139,0.7139,0.7228,0.8273,0.8877,0.9808,1.1712,1.3717,1.4622,1.4906,1.5569,1.5875,1.7009,1.8382,1.8744,1.9335,2.0702,2.1375,2.1593,2.2317,2.3227,2.3767,2.374,2.4394,2.5527,2.5972,2.5844,2.6113,2.6368,2.6557,2.6784,2.7046,2.7981,2.8548,-3.6724,-3.719,-3.7228,-3.7756,-3.8546,-3.8658,-3.8658,-3.8627,-3.8658,-3.8707,-3.8707,-3.8707,-3.8707,-3.8676,-3.8627,-3.8546,-3.8465,-3.815,-3.7929,-3.7911,-3.7929,-3.7667,-3.7596,-3.7506,-3.7285,-3.662,-3.6308,-3.6011,-3.5694,-3.5667,-3.5316,-3.4894,-3.48,-3.4496,-3.4431,-3.3235,-3.2641,-3.2477,-3.1853,-3.164,-3.1409,-3.1278,-3.1278,-3.0955,-3.0584,-3.0133,-2.9566,-2.8684,-2.7868,-2.7417,-2.685,-2.5652,-2.3963,-2.3672,-2.2713,-2.1088,-2.0789,-2.0479,-2.0547,-2.0537,-1.9265,-1.7568,-1.7172,-1.6034,-1.4139,-1.226,-1.0869,-1.0438,-0.8707,-0.7489,-0.7139,-0.7139,-0.7139,-0.6514,-0.4821,-0.3312,-0.1973,0.0539,0.2419,0.3571,0.544,0.7139,0.7139,0.7401,0.8532,0.9213,0.9529,1.1086,1.3457,1.423,1.4343,1.474,1.5231,1.6456,1.7616,1.7641,1.8301,1.9835,2.0789,2.1165,2.1207,2.1515,2.1912,2.2189,2.2837,2.3777,2.4838,2.5646,2.5951,2.6274,2.6982,2.7249,2.7339,2.7404,2.7868,-3.6165,-3.6661,-3.6684,-3.7076,-3.7703,-3.8032,-3.8165,-3.8216,-3.8496,-3.8707,-3.8707,-3.8707,-3.8707,-3.8627,-3.835,-3.8234,-3.8117,-3.7703,-3.7433,-3.7433,-3.7433,-3.736,-3.721,-3.6943,-3.6764,-3.6416,-3.6097,-3.5871,-3.5622,-3.5639,-3.5532,-3.5207,-3.4252,-3.3684,-3.3182,-3.2327,-3.1853,-3.1853,-3.1582,-3.1278,-3.0777,-3.0703,-3.051,-3.0025,-2.9642,-2.9254,-2.8812,-2.7934,-2.7484,-2.7027,-2.6521,-2.5429,-2.3879,-2.3441,-2.2563,-2.0847,-2.0157,-1.9116,-1.8656,-1.8353,-1.8146,-1.7286,-1.6601,-1.5711,-1.4068,-1.1912,-1.0961,-1.0091,-0.8444,-0.7401,-0.7139,-0.7139,-0.7051,-0.6605,-0.527,-0.4034,-0.2244,0.1168,0.3597,0.4202,0.5528,0.6691,0.7139,0.7312,0.8356,0.957,0.9981,1.1445,1.3555,1.3997,1.4223,1.4545,1.5032,1.6175,1.6919,1.7415,1.839,2.0079,2.0644,2.0722,2.0661,2.0579,2.1106,2.1855,2.1902,2.1977,2.3525,2.4826,2.5523,2.6089,2.6731,2.7095,2.6947,2.6824,2.6863,-3.5827,-3.6097,-3.6139,-3.6333,-3.6746,-3.7342,-3.7702,-3.798,-3.8465,-3.8707,-3.8707,-3.8707,-3.8707,-3.8546,-3.8183,-3.7893,-3.7825,-3.721,-3.6921,-3.6921,-3.6921,-3.6764,-3.6563,-3.6498,-3.6333,-3.6097,-3.5854,-3.5639,-3.5639,-3.5639,-3.527,-3.4592,-3.3853,-3.2986,-3.2327,-3.1796,-3.1524,-3.1582,-3.1467,-3.1146,-3.0584,-3.0269,-2.9875,-2.9254,-2.8748,-2.8298,-2.7789,-2.7417,-2.704,-2.6508,-2.5943,-2.5217,-2.3963,-2.2999,-2.2188,-2.0769,-1.9599,-1.855,-1.7764,-1.6894,-1.6812,-1.6609,-1.6026,-1.5213,-1.3977,-1.1906,-1.0961,-0.9918,-0.8269,-0.7485,-0.7139,-0.7139,-0.6962,-0.6605,-0.5359,-0.4032,-0.2606,0.0809,0.3597,0.4202,0.544,0.6422,0.7139,0.7489,0.8009,0.9309,1.0519,1.2077,1.3555,1.3906,1.4088,1.4328,1.481,1.5786,1.6764,1.7577,1.8709,2.0323,2.0576,2.0576,2.0643,2.0658,2.1054,2.1324,2.1292,2.1638,2.2926,2.4054,2.5298,2.607,2.6427,2.6577,2.6521,2.6521,2.6521,-3.5639,-3.5639,-3.5639,-3.5622,-3.5827,-3.6746,-3.7433,-3.7911,-3.8415,-3.8627,-3.8627,-3.8658,-3.8627,-3.8546,-3.8065,-3.779,-3.7524,-3.6746,-3.6481,-3.6374,-3.6374,-3.6097,-3.6054,-3.6097,-3.6028,-3.5783,-3.5639,-3.5639,-3.5577,-3.5424,-3.48,-3.3887,-3.3198,-3.2422,-3.1853,-3.1582,-3.1467,-3.1467,-3.1467,-3.1029,-3.0464,-3.0133,-2.9566,-2.8812,-2.8117,-2.7591,-2.7082,-2.6688,-2.6358,-2.5873,-2.537,-2.448,-2.3441,-2.2542,-2.1593,-2.0459,-1.9274,-1.823,-1.6935,-1.5974,-1.5726,-1.5628,-1.5538,-1.497,-1.3704,-1.1821,-1.0783,-0.9744,-0.8356,-0.7661,-0.7139,-0.7139,-0.7139,-0.6065,-0.4905,-0.3758,-0.2786,-0.0269,0.2601,0.4293,0.5891,0.6871,0.7136,0.7489,0.8273,0.9653,1.0956,1.226,1.3476,1.3913,1.4088,1.4173,1.4741,1.5387,1.6363,1.7577,1.8868,2.0411,2.0566,2.0566,2.0633,2.0584,2.0777,2.0911,2.0761,2.1401,2.293,2.4327,2.5697,2.6233,2.6452,2.6521,2.6521,2.6521,2.6589,-3.5639,-3.5639,-3.5639,-3.5639,-3.5711,-3.6333,-3.6904,-3.7433,-3.7911,-3.8132,-3.815,-3.8546,-3.8496,-3.8099,-3.7614,-3.723,-3.6706,-3.6224,-3.5924,-3.5854,-3.5898,-3.5722,-3.5739,-3.5783,-3.5694,-3.5667,-3.5639,-3.5577,-3.5424,-3.5207,-3.4544,-3.3633,-3.2895,-3.2216,-3.1739,-3.1467,-3.1467,-3.1467,-3.1467,-3.1029,-3.0329,-2.9766,-2.9066,-2.8247,-2.7417,-2.6824,-2.6126,-2.5791,-2.537,-2.4552,-2.4181,-2.3441,-2.2478,-2.2027,-2.1268,-1.8532,-1.7738,-1.7009,-1.5387,-1.4734,-1.4657,-1.4657,-1.465,-1.3873,-1.2766,-1.1558,-1.0351,-0.9314,-0.8273,-0.7401,-0.7139,-0.7139,-0.7139,-0.6422,-0.5085,-0.3757,-0.2515,0.009,0.2871,0.4378,0.5974,0.6871,0.7139,0.7925,0.8886,1.0178,1.1472,1.2607,1.3483,1.3913,1.4088,1.4173,1.4817,1.5628,1.6764,1.798,1.9195,2.0245,2.0411,2.0576,2.0615,2.0585,2.0585,2.07,2.0775,2.1761,2.3176,2.4469,2.5499,2.6233,2.6521,2.6521,2.6521,2.6521,2.6521,-3.5639,-3.5639,-3.5639,-3.5639,-3.5667,-3.5924,-3.6291,-3.6706,-3.747,-3.798,-3.8267,-3.8546,-3.8396,-3.7893,-3.7433,-3.6943,-3.6399,-3.5941,-3.5667,-3.5667,-3.5639,-3.5622,-3.5622,-3.5639,-3.5622,-3.5639,-3.5577,-3.5424,-3.5144,-3.4544,-3.3836,-3.3182,-3.2749,-3.2216,-3.1754,-3.1467,-3.1467,-3.1467,-3.1409,-3.097,-3.0269,-2.9456,-2.857,-2.7736,-2.6905,-2.6151,-2.5511,-2.5229,-2.4564,-2.3891,-2.3661,-2.2691,-2.1886,-2.1583,-2.0333,-1.798,-1.7342,-1.6281,-1.4817,-1.425,-1.4088,-1.4088,-1.4088,-1.3464,-1.2504,-1.1295,-1.0178,-0.9056,-0.8013,-0.7139,-0.7139,-0.7139,-0.7139,-0.7051,-0.5447,-0.3758,-0.1433,0.1078,0.2867,0.4372,0.5617,0.6691,0.7577,0.8364,0.9323,1.0438,1.1558,1.2681,1.347,1.3997,1.4088,1.4088,1.4977,1.5944,1.7163,1.823,1.9274,2.0089,2.0489,2.0576,2.0576,2.0566,2.0624,2.0769,2.0981,2.2038,2.3147,2.3963,2.4921,2.5721,2.6452,2.6521,2.6521,2.6521,2.6521,-3.5639,-3.5639,-3.5639,-3.5639,-3.5639,-3.5622,-3.5711,-3.581,-3.7155,-3.8032,-3.835,-3.8496,-3.815,-3.7578,-3.7155,-3.6724,-3.6249,-3.5783,-3.5639,-3.5639,-3.5639,-3.5639,-3.5639,-3.5639,-3.5639,-3.5639,-3.5532,-3.5316,-3.4592,-3.3937,-3.3235,-3.2586,-3.2437,-3.2064,-3.1582,-3.1278,-3.1161,-3.1146,-3.0955,-3.0644,-3.0147,-2.9393,-2.857,-2.7736,-2.696,-2.6302,-2.5873,-2.5441,-2.4791,-2.4036,-2.3147,-2.1886,-2.1517,-2.1155,-1.9423,-1.8141,-1.7423,-1.6041,-1.4741,-1.4088,-1.4088,-1.4088,-1.4088,-1.3203,-1.2077,-1.1209,-1.0091,-0.8969,-0.7925,-0.7228,-0.7139,-0.7139,-0.7139,-0.6514,-0.5265,-0.403,-0.2515,0.0538,0.3758,0.5174,0.6242,0.7139,0.7316,0.8105,0.9323,1.0438,1.1558,1.2681,1.347,1.3997,1.4088,1.4166,1.5061,1.6108,1.7172,1.8221,1.9195,1.9923,2.0323,2.0323,2.0089,2.0245,2.0576,2.0712,2.0934,2.1886,2.2914,2.3661,2.4552,2.5581,2.6164,2.6452,2.6521,2.6521,2.6521,-3.5639,-3.5639,-3.5639,-3.5639,-3.5639,-3.5639,-3.581,-3.6224,-3.6563,-3.6882,-3.7038,-3.734,-3.734,-3.6904,-3.6746,-3.6374,-3.5854,-3.5739,-3.5622,-3.5639,-3.5639,-3.5639,-3.5639,-3.5639,-3.5577,-3.5639,-3.5515,-3.5052,-3.4284,-3.3443,-3.2803,-3.2532,-3.216,-3.1682,-3.1467,-3.1087,-3.0718,-3.0703,-3.0011,-3.0011,-2.9889,-2.8812,-2.7802,-2.7484,-2.6973,-2.5709,-2.5063,-2.4181,-2.2936,-2.1756,-2.1308,-2.0934,-2.0934,-2.0712,-1.9432,-1.7827,-1.7261,-1.6041,-1.4824,-1.4088,-1.4088,-1.4088,-1.3822,-1.2687,-1.1729,-1.1037,-1.0091,-0.8969,-0.8013,-0.7489,-0.7139,-0.7139,-0.6962,-0.6065,-0.4994,-0.43,-0.3419,0.0358,0.4378,0.5714,0.6782,0.7228,0.7404,0.8189,0.9318,1.0443,1.1558,1.2681,1.347,1.4088,1.4088,1.425,1.5054,1.6108,1.709,1.79,1.8709,1.9432,1.9835,1.9756,1.9599,2.0089,2.0576,2.0644,2.0934,2.1745,2.2478,2.3147,2.4108,2.5288,2.6094,2.6452,2.6521,2.6521,2.6521,-3.5639,-3.5639,-3.5639,-3.5639,-3.5639,-3.5639,-3.5783,-3.6028,-3.6054,-3.6071,-3.6182,-3.6764,-3.6865,-3.6457,-3.6374,-3.6054,-3.565,-3.5622,-3.5639,-3.5639,-3.5577,-3.5639,-3.5639,-3.5532,-3.5316,-3.5224,-3.4447,-3.3887,-3.3649,-3.2826,-3.2064,-3.2064,-3.1625,-3.1467,-3.1336,-3.0777,-3.0269,-3.0269,-2.9066,-2.8812,-2.9192,-2.8247,-2.767,-2.7484,-2.6744,-2.5557,-2.4624,-2.3806,-2.2627,-2.1527,-2.1001,-2.0722,-2.0722,-2.0644,-1.9432,-1.7989,-1.7098,-1.6363,-1.4824,-1.4088,-1.4088,-1.4088,-1.4088,-1.3124,-1.2649,-1.1866,-0.957,-0.8448,-0.7665,-0.7139,-0.7139,-0.7139,-0.7139,-0.6514,-0.4725,-0.3309,-0.1343,0.1789,0.4285,0.5523,0.6505,0.7139,0.7665,0.8969,1.0009,1.0702,1.1729,1.2857,1.373,1.4088,1.4088,1.425,1.4977,1.5621,1.6273,1.709,1.7989,1.863,1.9274,1.9756,1.9923,2.0323,2.0566,2.0644,2.0789,2.1155,2.1897,2.2702,2.3745,2.5004,2.5804,2.6452,2.6452,2.6383,2.6452,-3.5515,-3.5577,-3.5639,-3.5639,-3.5639,-3.5639,-3.5622,-3.5622,-3.5622,-3.5622,-3.5722,-3.6545,-3.6626,-3.6457,-3.6266,-3.5898,-3.5588,-3.5316,-3.5379,-3.5424,-3.5424,-3.5316,-3.5316,-3.5362,-3.4958,-3.4301,-3.3495,-3.3093,-3.2803,-3.2064,-3.164,-3.1524,-3.1467,-3.1467,-3.1219,-3.0644,-3.0011,-2.9504,-2.8671,-2.7723,-2.7604,-2.7537,-2.7484,-2.7229,-2.6756,-2.5791,-2.4838,-2.3818,-2.285,-2.1886,-2.0924,-2.0547,-2.0245,-2.0079,-1.878,-1.7488,-1.6846,-1.5794,-1.458,-1.4088,-1.4088,-1.4088,-1.4088,-1.3763,-1.3284,-1.1785,-0.9492,-0.8097,-0.7401,-0.7139,-0.7139,-0.7139,-0.7139,-0.6605,-0.4552,-0.2234,0.0357,0.2505,0.3653,0.4977,0.6233,0.6959,0.7921,0.9314,1.0178,1.0869,1.1906,1.3124,1.3997,1.4082,1.4088,1.425,1.4657,1.522,1.5703,1.6273,1.7098,1.7658,1.8301,1.9344,2.0157,2.0489,2.0576,2.0576,2.0789,2.1011,2.1603,2.2328,2.3452,2.4409,2.485,2.5417,2.5943,2.5943,2.6245,-3.5098,-3.5622,-3.5639,-3.5639,-3.5639,-3.5639,-3.5639,-3.5639,-3.5639,-3.5639,-3.5667,-3.5694,-3.581,-3.5783,-3.5739,-3.547,-3.5035,-3.4847,-3.48,-3.48,-3.4894,-3.4847,-3.4752,-3.464,-3.4333,-3.3684,-3.2986,-3.2641,-3.2327,-3.1796,-3.1467,-3.1467,-3.1467,-3.1409,-3.1219,-3.0389,-2.9254,-2.8812,-2.792,-2.6837,-2.6769,-2.6769,-2.6714,-2.6358,-2.5791,-2.4838,-2.3806,-2.284,-2.1886,-2.1078,-2.0557,-2.0079,-1.9599,-1.9195,-1.8052,-1.6919,-1.6273,-1.547,-1.458,-1.4166,-1.4088,-1.4088,-1.3913,-1.3222,-1.246,-1.1419,-0.9401,-0.7661,-0.7139,-0.7139,-0.7139,-0.7139,-0.7051,-0.6257,-0.465,-0.179,0.0897,0.1519,0.2045,0.4265,0.6325,0.6868,0.7228,0.8444,0.9309,1.0178,1.13,1.2516,1.3997,1.4088,1.4088,1.425,1.4412,1.4977,1.5538,1.5538,1.6116,1.6683,1.7568,1.8948,1.9923,2.0489,2.0576,2.0576,2.0576,2.0722,2.1385,2.1962,2.2328,2.3073,2.3514,2.4108,2.4838,2.5511,2.5804]},{"header":{"parameterUnit":"m.s-1","parameterCategory":1,"la1":31.0,"la2":29.5877,"lo1":-88.7671,"lo2":-86.6584,"dy":0.0162,"dx":0.0185,"nx":115,"ny":88,"refTime":"2023-10-25T00:00:00:Z","depth":0,"parameterNumber":3,"parameterNumberName":"V-component_of_WINDS"},"data":[0.0,0.0,0.0,0.0,0.0,0.0,0.0,0.0,0.0,0.0,0.0,0.0,0.0,0.0,0.0,0.0,0.0,0.0,0.0,0.0,0.0,0.0,0.0,0.0,0.0,0.0,0.0,0.0,0.0,0.0,0.0,0.0,0.0,0.0,0.0,0.0,0.0,0.0,0.0,0.0,0.0,0.0,0.0,0.0,0.0,0.0,0.0,0.0,0.0,0.0,0.0,0.0,0.0,0.0,0.0,0.0,0.0,0.0,0.0,0.0,0.0,0.0,0.0,0.0,0.0,0.0,0.0,0.0,0.0,0.0,0.0,0.0,0.0,0.0,0.0,0.0,0.0,0.0,0.0,0.0,0.0,0.0,0.0,0.0,0.0,0.0,0.0,0.0,0.0,0.0,0.0,0.0,0.0,0.0,0.0,0.0,0.0,0.0,0.0,0.0,0.0,0.0,0.0,0.0,0.0,0.0,0.0,0.0,0.0,0.0,0.0,0.0,0.0,0.0,0.0,0.0,0.0,0.0,0.0,0.0,0.0,0.0,0.0,0.0,0.0,0.0,0.0,0.0,0.0,0.0,0.0,0.0,0.0,0.0,0.0,0.0,0.0,0.0,0.0,0.0,0.0,0.0,0.0,0.0,0.0,0.0,0.0,0.0,0.0,0.0,0.0,0.0,0.0,0.0,0.0,0.0,0.0,0.0,0.0,0.0,0.0,0.0,0.0,0.0,0.0,0.0,0.0,0.0,0.0,0.0,0.0,0.0,0.0,0.0,0.0,0.0,0.0,0.0,0.0,0.0,0.0,0.0,0.0,0.0,0.0,0.0,0.0,0.0,0.0,0.0,0.0,0.0,0.0,0.0,0.0,0.0,0.0,0.0,0.0,0.0,0.0,0.0,0.0,0.0,0.0,0.0,0.0,0.0,0.0,0.0,0.0,0.0,0.0,0.0,0.0,0.0,0.0,0.0,0.0,0.0,0.0,0.0,0.0,0.0,0.0,0.0,0.0,0.0,0.0,0.0,0.0,0.0,0.0,0.0,0.0,0.0,0.0,0.0,0.0,0.0,0.0,0.0,0.0,0.0,0.0,0.0,0.0,0.0,0.0,0.0,0.0,0.0,0.0,0.0,0.0,0.0,0.0,0.0,0.0,0.0,0.0,0.0,0.0,0.0,0.0,0.0,0.0,0.0,0.0,0.0,0.0,0.0,0.0,0.0,0.0,0.0,0.0,0.0,0.0,0.0,0.0,0.0,0.0,0.0,0.0,0.0,0.0,0.0,0.0,0.0,0.0,0.0,0.0,0.0,0.0,0.0,0.0,0.0,0.0,0.0,0.0,0.0,0.0,0.0,0.0,0.0,0.0,0.0,0.0,0.0,0.0,0.0,0.0,0.0,0.0,0.0,0.0,0.0,0.0,0.0,0.0,0.0,0.0,0.0,0.0,0.0,0.0,0.0,0.0,0.0,0.0,0.0,0.0,0.0,0.0,0.0,0.0,0.0,0.0,0.0,0.0,0.0,0.0,0.0,0.0,0.0,0.0,0.0,0.0,0.0,0.0,0.0,0.0,0.0,0.0,0.0,0.0,0.0,0.0,0.0,0.0,0.0,0.0,0.0,0.0,0.0,0.0,0.0,0.0,0.0,0.0,0.0,0.0,0.0,0.0,0.0,0.0,0.0,0.0,0.0,0.0,0.0,0.0,0.0,0.0,0.0,0.0,0.0,0.0,0.0,0.0,0.0,0.0,0.0,0.0,0.0,0.0,0.0,0.0,0.0,0.0,0.0,0.0,0.0,0.0,0.0,0.0,0.0,0.0,0.0,0.0,0.0,0.0,0.0,0.0,0.0,0.0,0.0,0.0,0.0,0.0,0.0,0.0,0.0,0.0,0.0,0.0,0.0,0.0,0.0,0.0,0.0,0.0,0.0,0.0,0.0,0.0,0.0,0.0,0.0,0.0,0.0,0.0,0.0,0.0,0.0,0.0,0.0,0.0,0.0,0.0,0.0,0.0,0.0,0.0,0.0,0.0,0.0,0.0,0.0,0.0,0.0,0.0,0.0,0.0,0.0,0.0,0.0,0.0,0.0,0.0,0.0,0.0,0.0,0.0,0.0,0.0,0.0,0.0,0.0,0.0,0.0,0.0,0.0,0.0,0.0,0.0,0.0,0.0,0.0,0.0,0.0,0.0,0.0,0.0,0.0,0.0,0.0,0.0,0.0,0.0,0.0,0.0,0.0,0.0,0.0,0.0,0.0,0.0,0.0,0.0,0.0,0.0,0.0,0.0,0.0,0.0,0.0,0.0,0.0,0.0,0.0,0.0,0.0,0.0,0.0,0.0,0.0,0.0,0.0,0.0,0.0,0.0,0.0,0.0,0.0,0.0,0.0,0.0,0.0,0.0,0.0,0.0,0.0,0.0,0.0,0.0,0.0,0.0,0.0,0.0,0.0,0.0,0.0,0.0,0.0,0.0,0.0,0.0,0.0,0.0,0.0,0.0,0.0,0.0,0.0,0.0,0.0,0.0,0.0,0.0,0.0,0.0,0.0,0.0,0.0,0.0,0.0,0.0,0.0,0.0,0.0,0.0,0.0,0.0,0.0,0.0,0.0,0.0,0.0,0.0,0.0,0.0,0.0,0.0,0.0,0.0,0.0,0.0,0.0,0.0,0.0,0.0,0.0,0.0,0.0,0.0,0.0,0.0,0.0,0.0,0.0,0.0,0.0,0.0,0.0,0.0,0.0,0.0,0.0,0.0,0.0,0.0,0.0,0.0,0.0,0.0,0.0,0.0,0.0,0.0,0.0,0.0,0.0,0.0,0.0,0.0,0.0,0.0,0.0,0.0,0.0,0.0,0.0,0.0,0.0,0.0,0.0,0.0,0.0,0.0,0.0,0.0,0.0,0.0,0.0,0.0,0.0,0.0,0.0,0.0,0.0,0.0,0.0,0.0,0.0,0.0,0.0,0.0,0.0,0.0,0.0,0.0,0.0,0.0,0.0,0.0,0.0,0.0,0.0,0.0,0.0,0.0,0.0,0.0,0.0,0.0,0.0,0.0,0.0,0.0,0.0,0.0,0.0,0.0,0.0,0.0,0.0,0.0,0.0,0.0,0.0,0.0,0.0,0.0,0.0,0.0,0.0,0.0,0.0,0.0,0.0,0.0,0.0,0.0,0.0,0.0,0.0,0.0,0.0,0.0,0.0,0.0,0.0,0.0,0.0,0.0,0.0,0.0,0.0,0.0,0.0,0.0,0.0,0.0,0.0,0.0,0.0,0.0,0.0,0.0,0.0,0.0,0.0,0.0,0.0,0.0,0.0,0.0,0.0,0.0,0.0,0.0,0.0,0.0,0.0,0.0,0.0,0.0,0.0,0.0,0.0,0.0,0.0,0.0,0.0,0.0,0.0,0.0,0.0,0.0,0.0,0.0,0.0,0.0,0.0,0.0,0.0,0.0,0.0,0.0,0.0,0.0,0.0,0.0,0.0,0.0,0.0,0.0,0.0,0.0,0.0,0.0,0.0,0.0,0.0,0.0,0.0,0.0,0.0,0.0,0.0,0.0,0.0,0.0,0.0,0.0,0.0,0.0,0.0,0.0,0.0,0.0,0.0,0.0,0.0,0.0,0.0,0.0,0.0,0.0,0.0,0.0,0.0,0.0,0.0,0.0,0.0,0.0,0.0,0.0,0.0,0.0,0.0,0.0,0.0,0.0,0.0,0.0,0.0,0.0,0.0,0.0,0.0,0.0,0.0,0.0,0.0,0.0,0.0,0.0,0.0,0.0,0.0,0.0,0.0,0.0,0.0,0.0,0.0,0.0,0.0,0.0,0.0,0.0,0.0,0.0,0.0,0.0,0.0,0.0,0.0,0.0,0.0,0.0,0.0,0.0,0.0,0.0,0.0,0.0,0.0,0.0,0.0,0.0,0.0,0.0,0.0,0.0,0.0,0.0,0.0,0.0,0.0,0.0,0.0,0.0,0.0,0.0,0.0,0.0,0.0,0.0,0.0,0.0,0.0,0.0,0.0,0.0,0.0,0.0,0.0,0.0,0.0,0.0,0.0,0.0,0.0,0.0,0.0,0.0,0.0,0.0,0.0,0.0,0.0,0.0,0.0,0.0,0.0,0.0,0.0,0.0,0.0,0.0,0.0,0.0,0.0,0.0,0.0,0.0,0.0,0.0,0.0,0.0,0.0,0.0,0.0,0.0,0.0,0.0,0.0,0.0,0.0,0.0,0.0,0.0,0.0,0.0,0.0,0.0,0.0,0.0,0.0,0.0,0.0,-2.4398,0.0,0.0,0.0,0.0,0.0,0.0,0.0,0.0,0.0,0.0,0.0,0.0,0.0,0.0,0.0,0.0,0.0,0.0,0.0,0.0,0.0,0.0,0.0,0.0,0.0,0.0,0.0,0.0,0.0,0.0,0.0,0.0,0.0,0.0,0.0,0.0,0.0,0.0,0.0,0.0,0.0,0.0,0.0,0.0,0.0,0.0,0.0,0.0,0.0,0.0,0.0,0.0,0.0,0.0,0.0,0.0,0.0,0.0,0.0,0.0,0.0,0.0,0.0,0.0,0.0,0.0,0.0,0.0,0.0,0.0,0.0,0.0,0.0,0.0,0.0,0.0,0.0,0.0,0.0,0.0,0.0,0.0,0.0,0.0,0.0,0.0,0.0,0.0,0.0,0.0,0.0,0.0,0.0,0.0,0.0,0.0,0.0,0.0,0.0,0.0,0.0,0.0,0.0,0.0,0.0,0.0,0.0,0.0,0.0,0.0,-2.4892,-2.4972,-2.4489,-2.436,-2.4666,0.0,0.0,0.0,0.0,0.0,0.0,0.0,0.0,0.0,0.0,0.0,0.0,0.0,0.0,0.0,0.0,0.0,0.0,0.0,0.0,0.0,0.0,0.0,0.0,0.0,0.0,0.0,0.0,0.0,0.0,0.0,0.0,0.0,0.0,0.0,0.0,0.0,0.0,0.0,0.0,0.0,0.0,0.0,0.0,0.0,0.0,0.0,0.0,0.0,0.0,0.0,0.0,0.0,0.0,0.0,0.0,0.0,0.0,0.0,0.0,0.0,0.0,0.0,0.0,0.0,0.0,0.0,0.0,0.0,0.0,0.0,0.0,0.0,0.0,0.0,0.0,0.0,0.0,0.0,0.0,0.0,0.0,0.0,0.0,0.0,0.0,0.0,0.0,0.0,0.0,0.0,0.0,0.0,0.0,0.0,0.0,0.0,0.0,0.0,0.0,0.0,0.0,0.0,0.0,0.0,0.0,0.0,0.0,0.0,0.0,0.0,0.0,-2.4942,-2.476,-2.4654,0.0,0.0,0.0,0.0,0.0,0.0,0.0,0.0,0.0,0.0,0.0,0.0,0.0,0.0,0.0,0.0,0.0,0.0,0.0,0.0,0.0,0.0,0.0,0.0,0.0,0.0,0.0,0.0,0.0,0.0,0.0,0.0,0.0,0.0,0.0,0.0,0.0,0.0,0.0,0.0,0.0,0.0,0.0,0.0,0.0,0.0,0.0,0.0,0.0,0.0,0.0,0.0,0.0,0.0,0.0,0.0,0.0,0.0,0.0,0.0,0.0,0.0,0.0,0.0,0.0,0.0,0.0,0.0,0.0,0.0,0.0,0.0,0.0,0.0,0.0,0.0,0.0,0.0,0.0,0.0,0.0,0.0,0.0,0.0,0.0,0.0,0.0,0.0,0.0,0.0,0.0,0.0,0.0,0.0,0.0,0.0,0.0,0.0,0.0,0.0,0.0,0.0,0.0,0.0,0.0,0.0,0.0,0.0,0.0,0.0,-2.5149,-2.4842,-2.4818,0.0,-2.4284,0.0,0.0,0.0,0.0,0.0,0.0,0.0,0.0,0.0,0.0,0.0,0.0,0.0,0.0,0.0,0.0,0.0,0.0,0.0,0.0,0.0,0.0,0.0,0.0,0.0,0.0,0.0,0.0,0.0,0.0,0.0,0.0,0.0,0.0,0.0,0.0,0.0,0.0,0.0,0.0,0.0,0.0,0.0,0.0,0.0,0.0,0.0,0.0,0.0,0.0,0.0,0.0,0.0,0.0,0.0,0.0,0.0,0.0,0.0,0.0,0.0,0.0,0.0,0.0,0.0,0.0,0.0,0.0,0.0,0.0,0.0,0.0,0.0,0.0,0.0,0.0,0.0,0.0,0.0,0.0,0.0,0.0,0.0,0.0,0.0,0.0,0.0,0.0,0.0,0.0,0.0,0.0,0.0,0.0,0.0,0.0,0.0,0.0,0.0,0.0,0.0,0.0,0.0,0.0,0.0,0.0,0.0,0.0,0.0,0.0,-2.5138,-2.516,-2.508,-2.4904,0.0,0.0,0.0,0.0,0.0,0.0,0.0,0.0,0.0,0.0,0.0,0.0,0.0,0.0,0.0,0.0,0.0,0.0,0.0,0.0,0.0,0.0,0.0,0.0,0.0,0.0,0.0,0.0,0.0,0.0,0.0,0.0,0.0,0.0,0.0,0.0,0.0,0.0,0.0,0.0,0.0,0.0,0.0,0.0,0.0,0.0,0.0,0.0,0.0,0.0,0.0,0.0,0.0,0.0,0.0,0.0,0.0,0.0,0.0,0.0,0.0,0.0,0.0,0.0,0.0,0.0,0.0,0.0,0.0,0.0,0.0,0.0,0.0,0.0,0.0,0.0,0.0,0.0,0.0,0.0,0.0,0.0,0.0,0.0,0.0,0.0,0.0,0.0,0.0,0.0,0.0,0.0,0.0,0.0,0.0,0.0,0.0,0.0,0.0,0.0,0.0,0.0,0.0,0.0,0.0,0.0,0.0,0.0,0.0,0.0,-2.5138,-2.5194,-2.5329,-2.5203,-2.5055,-2.4914,0.0,0.0,0.0,0.0,0.0,0.0,0.0,0.0,0.0,0.0,0.0,0.0,0.0,0.0,0.0,0.0,0.0,0.0,0.0,0.0,0.0,0.0,0.0,0.0,0.0,0.0,0.0,0.0,0.0,0.0,0.0,0.0,0.0,0.0,0.0,0.0,0.0,0.0,0.0,0.0,0.0,0.0,0.0,0.0,0.0,0.0,0.0,0.0,0.0,0.0,0.0,0.0,0.0,0.0,0.0,0.0,0.0,0.0,0.0,0.0,0.0,0.0,0.0,0.0,0.0,0.0,0.0,0.0,0.0,0.0,0.0,0.0,0.0,0.0,0.0,0.0,0.0,0.0,0.0,0.0,0.0,0.0,0.0,0.0,0.0,0.0,0.0,0.0,0.0,0.0,0.0,0.0,0.0,0.0,0.0,0.0,0.0,0.0,0.0,0.0,0.0,0.0,0.0,0.0,0.0,0.0,0.0,0.0,-2.4861,-2.5195,-2.5316,-2.5224,-2.5034,-2.4908,0.0,0.0,0.0,0.0,0.0,0.0,0.0,0.0,0.0,0.0,0.0,0.0,0.0,0.0,0.0,0.0,0.0,0.0,0.0,0.0,0.0,0.0,0.0,0.0,0.0,0.0,0.0,0.0,0.0,0.0,0.0,0.0,0.0,0.0,0.0,0.0,0.0,0.0,0.0,0.0,0.0,0.0,0.0,0.0,0.0,0.0,0.0,0.0,0.0,0.0,0.0,0.0,0.0,0.0,0.0,0.0,0.0,0.0,0.0,0.0,0.0,0.0,0.0,0.0,0.0,0.0,0.0,0.0,0.0,0.0,0.0,0.0,0.0,0.0,0.0,0.0,0.0,0.0,0.0,0.0,0.0,0.0,0.0,0.0,0.0,0.0,0.0,0.0,0.0,0.0,0.0,0.0,0.0,0.0,0.0,0.0,0.0,0.0,0.0,0.0,0.0,0.0,0.0,0.0,0.0,0.0,0.0,0.0,0.0,-2.5271,-2.5416,-2.5447,-2.5275,-2.5367,-2.5418,0.0,0.0,0.0,0.0,0.0,0.0,0.0,0.0,0.0,0.0,0.0,0.0,0.0,0.0,0.0,0.0,0.0,0.0,0.0,0.0,0.0,0.0,0.0,0.0,0.0,0.0,0.0,0.0,0.0,0.0,0.0,0.0,0.0,0.0,0.0,0.0,0.0,0.0,0.0,0.0,0.0,0.0,0.0,0.0,0.0,0.0,0.0,0.0,0.0,0.0,0.0,0.0,0.0,0.0,0.0,0.0,0.0,0.0,0.0,0.0,0.0,0.0,0.0,0.0,0.0,0.0,0.0,0.0,0.0,0.0,0.0,0.0,0.0,0.0,0.0,0.0,0.0,0.0,0.0,0.0,0.0,0.0,0.0,0.0,0.0,0.0,0.0,0.0,0.0,0.0,0.0,0.0,0.0,0.0,0.0,0.0,0.0,0.0,0.0,0.0,0.0,0.0,0.0,0.0,0.0,0.0,0.0,0.0,0.0,-2.5285,0.0,-2.5139,-2.4919,-2.5327,-2.5511,0.0,0.0,0.0,0.0,0.0,0.0,0.0,0.0,0.0,0.0,0.0,0.0,0.0,0.0,0.0,0.0,0.0,0.0,0.0,0.0,0.0,0.0,0.0,0.0,0.0,0.0,0.0,0.0,0.0,0.0,0.0,0.0,0.0,0.0,0.0,0.0,0.0,0.0,0.0,0.0,0.0,0.0,0.0,0.0,0.0,0.0,0.0,0.0,0.0,0.0,0.0,0.0,0.0,0.0,0.0,0.0,0.0,0.0,0.0,0.0,0.0,0.0,0.0,0.0,0.0,0.0,0.0,0.0,0.0,0.0,0.0,0.0,0.0,0.0,0.0,0.0,0.0,0.0,0.0,0.0,0.0,0.0,0.0,0.0,0.0,0.0,0.0,0.0,0.0,0.0,0.0,0.0,0.0,0.0,0.0,0.0,0.0,0.0,0.0,0.0,0.0,0.0,0.0,0.0,0.0,0.0,0.0,0.0,-2.519,-2.4838,-2.4612,-2.439,-2.4056,-2.4891,-2.5183,0.0,0.0,0.0,0.0,0.0,0.0,0.0,0.0,0.0,0.0,0.0,0.0,0.0,0.0,0.0,0.0,0.0,0.0,0.0,0.0,0.0,0.0,0.0,0.0,0.0,0.0,0.0,0.0,0.0,0.0,0.0,0.0,0.0,0.0,0.0,0.0,0.0,0.0,0.0,0.0,0.0,0.0,0.0,0.0,0.0,0.0,0.0,0.0,0.0,0.0,0.0,0.0,0.0,0.0,0.0,0.0,0.0,0.0,0.0,0.0,0.0,0.0,0.0,0.0,0.0,0.0,0.0,0.0,0.0,0.0,0.0,0.0,0.0,0.0,0.0,0.0,0.0,0.0,0.0,0.0,0.0,0.0,0.0,0.0,0.0,0.0,0.0,0.0,0.0,0.0,0.0,0.0,0.0,0.0,0.0,0.0,0.0,0.0,0.0,0.0,0.0,0.0,0.0,0.0,0.0,0.0,0.0,0.0,0.0,-2.5351,-2.4587,-2.431,-2.4605,-2.4878,-2.5005,0.0,0.0,0.0,0.0,0.0,0.0,0.0,0.0,0.0,0.0,0.0,0.0,0.0,0.0,0.0,0.0,0.0,0.0,0.0,0.0,0.0,0.0,0.0,0.0,0.0,0.0,0.0,0.0,0.0,0.0,0.0,0.0,0.0,0.0,0.0,0.0,0.0,0.0,0.0,0.0,0.0,0.0,0.0,0.0,0.0,0.0,0.0,0.0,0.0,0.0,0.0,0.0,0.0,0.0,0.0,0.0,0.0,0.0,0.0,0.0,0.0,0.0,0.0,0.0,0.0,0.0,0.0,0.0,0.0,0.0,0.0,0.0,0.0,0.0,0.0,0.0,0.0,0.0,0.0,0.0,0.0,0.0,0.0,0.0,0.0,0.0,0.0,0.0,0.0,0.0,0.0,0.0,0.0,0.0,0.0,0.0,0.0,0.0,0.0,0.0,0.0,0.0,0.0,0.0,0.0,0.0,0.0,0.0,0.0,-2.4746,-2.3929,-2.3572,-2.3943,-2.4248,-2.4351,-2.4247,0.0,0.0,0.0,0.0,0.0,0.0,0.0,0.0,0.0,0.0,0.0,0.0,0.0,0.0,0.0,0.0,0.0,0.0,0.0,0.0,0.0,0.0,0.0,0.0,0.0,0.0,0.0,0.0,0.0,0.0,0.0,0.0,0.0,0.0,0.0,0.0,0.0,0.0,0.0,0.0,0.0,0.0,0.0,0.0,0.0,0.0,0.0,0.0,0.0,0.0,0.0,0.0,0.0,0.0,0.0,0.0,0.0,0.0,0.0,0.0,0.0,0.0,0.0,0.0,0.0,0.0,0.0,0.0,0.0,0.0,0.0,0.0,0.0,0.0,0.0,0.0,0.0,0.0,0.0,0.0,0.0,0.0,0.0,0.0,0.0,0.0,0.0,0.0,0.0,0.0,0.0,0.0,0.0,0.0,0.0,0.0,0.0,0.0,0.0,0.0,0.0,0.0,0.0,0.0,0.0,0.0,0.0,0.0,-2.3354,-2.2735,-2.2392,-2.2368,-2.3193,-2.3445,0.0,0.0,0.0,0.0,0.0,0.0,0.0,0.0,0.0,0.0,0.0,0.0,0.0,0.0,0.0,0.0,0.0,0.0,0.0,0.0,0.0,0.0,0.0,0.0,0.0,0.0,0.0,0.0,0.0,0.0,0.0,0.0,0.0,0.0,0.0,0.0,0.0,0.0,0.0,0.0,0.0,0.0,0.0,0.0,0.0,0.0,0.0,0.0,0.0,0.0,0.0,0.0,0.0,0.0,0.0,0.0,0.0,0.0,0.0,0.0,0.0,0.0,0.0,0.0,0.0,0.0,0.0,0.0,0.0,0.0,0.0,0.0,0.0,0.0,0.0,0.0,0.0,0.0,0.0,0.0,0.0,0.0,0.0,0.0,0.0,0.0,0.0,0.0,0.0,0.0,0.0,0.0,0.0,0.0,0.0,0.0,0.0,0.0,0.0,0.0,0.0,0.0,0.0,0.0,0.0,0.0,0.0,0.0,0.0,-2.2694,-2.1869,-2.1726,-2.2435,-2.339,-2.3496,0.0,0.0,0.0,0.0,0.0,0.0,0.0,0.0,0.0,0.0,0.0,0.0,0.0,0.0,0.0,0.0,0.0,0.0,0.0,0.0,0.0,0.0,0.0,0.0,0.0,0.0,0.0,0.0,0.0,0.0,0.0,0.0,0.0,0.0,0.0,0.0,0.0,0.0,0.0,0.0,0.0,0.0,0.0,0.0,0.0,0.0,0.0,0.0,0.0,0.0,0.0,0.0,0.0,0.0,0.0,0.0,0.0,0.0,0.0,0.0,0.0,0.0,0.0,0.0,0.0,0.0,0.0,0.0,0.0,0.0,0.0,0.0,0.0,0.0,0.0,0.0,0.0,0.0,0.0,0.0,0.0,0.0,0.0,0.0,0.0,0.0,0.0,0.0,0.0,0.0,0.0,0.0,0.0,0.0,0.0,0.0,0.0,0.0,0.0,0.0,0.0,0.0,0.0,0.0,0.0,0.0,0.0,0.0,-2.2637,-2.1856,-2.1469,-2.1453,-2.1854,-2.2591,-2.2726,0.0,0.0,0.0,0.0,0.0,0.0,0.0,0.0,0.0,0.0,0.0,0.0,0.0,0.0,0.0,0.0,0.0,0.0,0.0,0.0,0.0,0.0,0.0,0.0,0.0,0.0,0.0,0.0,0.0,0.0,0.0,0.0,0.0,0.0,0.0,0.0,0.0,0.0,0.0,0.0,0.0,0.0,0.0,0.0,0.0,0.0,0.0,0.0,0.0,0.0,0.0,0.0,0.0,0.0,0.0,0.0,0.0,0.0,0.0,0.0,0.0,0.0,0.0,0.0,0.0,0.0,0.0,0.0,0.0,0.0,0.0,0.0,0.0,0.0,0.0,0.0,0.0,0.0,0.0,0.0,0.0,0.0,0.0,0.0,0.0,0.0,0.0,0.0,0.0,0.0,0.0,0.0,0.0,0.0,0.0,0.0,0.0,0.0,0.0,0.0,0.0,0.0,0.0,0.0,0.0,0.0,0.0,0.0,-2.2508,-2.0958,-2.1337,-2.1354,-2.0943,-2.1325,-2.1524,0.0,0.0,0.0,0.0,0.0,0.0,0.0,0.0,0.0,0.0,0.0,0.0,0.0,0.0,0.0,0.0,0.0,0.0,0.0,0.0,0.0,0.0,0.0,0.0,0.0,0.0,0.0,0.0,0.0,0.0,0.0,0.0,0.0,0.0,0.0,0.0,0.0,0.0,0.0,0.0,0.0,0.0,0.0,0.0,0.0,0.0,0.0,0.0,0.0,0.0,0.0,0.0,0.0,0.0,0.0,0.0,0.0,0.0,0.0,0.0,0.0,0.0,0.0,0.0,0.0,0.0,0.0,0.0,0.0,0.0,0.0,0.0,0.0,0.0,0.0,0.0,0.0,0.0,0.0,0.0,0.0,0.0,0.0,0.0,0.0,0.0,0.0,0.0,0.0,0.0,0.0,0.0,0.0,0.0,0.0,0.0,0.0,0.0,0.0,0.0,0.0,0.0,0.0,0.0,0.0,0.0,0.0,0.0,-2.1661,-2.0514,-2.0878,-2.091,-2.0449,-2.0775,-2.1021,0.0,0.0,0.0,0.0,0.0,0.0,0.0,0.0,0.0,0.0,0.0,0.0,0.0,0.0,0.0,0.0,0.0,0.0,0.0,0.0,0.0,0.0,0.0,0.0,0.0,0.0,0.0,0.0,0.0,0.0,0.0,0.0,0.0,0.0,0.0,0.0,0.0,0.0,0.0,0.0,0.0,0.0,0.0,0.0,0.0,0.0,0.0,0.0,0.5082,0.0,0.0,0.0,0.0,0.0,0.0,0.0,0.0,0.0,0.0,0.0,0.0,0.0,0.0,0.0,0.0,0.0,0.0,0.0,0.0,0.0,0.0,0.0,0.0,0.0,0.0,0.0,0.0,0.0,0.0,0.0,0.0,0.0,0.0,0.0,0.0,0.0,0.0,0.0,0.0,0.0,0.0,0.0,0.0,0.0,0.0,0.0,0.0,0.0,0.0,0.0,0.0,0.0,0.0,0.0,0.0,0.0,0.0,0.0,-2.1682,-2.0681,-2.1055,-2.107,-2.0567,-1.8596,-1.8363,0.0,0.0,0.0,0.0,0.0,0.0,0.0,0.0,0.0,0.0,0.0,0.0,0.0,0.0,0.0,0.0,0.0,0.0,0.0,0.0,0.0,0.0,0.0,0.0,0.0,0.0,0.0,0.0,0.0,0.0,0.0,0.0,0.0,0.0,0.0,0.0,0.0,0.0,0.0,0.0,0.0,0.0,0.0,0.0,0.0,0.0,0.0,0.0,0.0,0.0,0.0,0.0,0.0,0.0,0.0,0.0,0.0,0.0,0.0,0.0,0.0,0.0,0.0,0.0,0.0,0.0,0.0,0.0,0.0,0.0,0.0,0.0,0.0,0.0,0.0,0.0,0.0,0.0,0.0,0.0,0.0,0.0,0.0,0.0,0.0,0.0,0.0,0.0,0.0,0.0,0.0,0.0,0.0,0.0,0.0,0.0,0.0,0.0,0.0,0.0,0.0,0.0,0.0,0.0,0.0,0.0,0.0,-2.2394,-2.1795,-2.0616,-2.0943,-2.0863,-2.0224,-1.5957,-1.5345,-1.8934,0.0,0.0,0.0,0.0,0.0,0.0,0.0,0.0,0.0,0.0,0.0,0.0,0.0,0.0,0.0,0.0,0.0,0.0,0.0,0.0,0.0,0.0,0.0,0.0,0.0,0.0,0.0,0.0,0.0,0.0,0.0,0.0,0.0,0.0,0.0,0.0,0.0,0.0,0.4561,0.5545,0.0,0.0,0.0,0.0,0.0,0.0,0.0,0.0,0.5023,0.0,0.0,0.0,0.0,0.0,0.0,0.0,0.0,0.0,0.0,0.0,0.0,0.0,0.0,0.0,0.0,0.0,0.0,0.0,0.0,0.0,0.0,0.0,0.0,0.0,0.0,0.0,0.0,0.0,0.0,0.0,0.0,0.0,0.0,0.0,0.0,0.0,0.0,0.0,0.0,0.0,0.0,0.0,0.0,0.0,0.0,0.0,0.0,0.0,0.0,0.0,0.0,0.0,0.0,0.0,0.0,-2.1402,-2.1779,-2.0885,-1.8574,-1.8899,-1.8455,-1.7089,-1.4576,-1.4363,-1.6637,0.0,0.0,0.0,0.0,0.0,0.0,0.0,0.0,0.0,0.0,0.0,0.0,0.0,0.0,0.0,0.0,0.0,0.0,0.0,0.0,0.0,0.0,0.0,0.0,0.0,0.0,0.0,0.0,0.0,0.0,0.0,0.0,0.0,0.0,0.0,0.0,0.0,0.0,0.0,0.6334,0.6475,0.0,0.0,0.0,0.0,0.0,0.0,0.0,0.0,0.5293,0.0,0.0,0.0,0.0,0.0,0.0,0.0,0.0,0.0,0.0,0.0,0.0,0.0,0.0,0.0,0.0,0.0,0.0,0.0,0.0,0.0,0.0,0.0,0.0,0.0,0.0,0.0,0.0,0.0,0.0,0.0,0.0,0.0,0.0,0.0,0.0,0.0,0.0,0.0,0.0,0.0,0.0,0.0,0.0,0.0,0.0,0.0,0.0,0.0,0.0,0.0,0.0,0.0,0.0,0.0,-2.1943,-2.1376,-2.0171,-1.8418,-1.8512,-1.7984,-1.6587,-1.2624,-1.2348,0.0,0.0,0.0,0.0,0.0,0.0,0.0,0.0,0.0,0.0,0.0,0.0,0.0,0.0,0.0,0.0,0.0,0.0,0.0,0.0,0.0,0.0,0.0,0.0,0.0,0.0,0.0,0.0,0.0,0.0,0.0,0.0,0.0,0.0,0.0,0.0,0.0,0.0,0.0,0.0,0.6582,0.6975,0.6684,0.0,0.0,0.0,0.0,0.0,0.0,0.548,0.5312,0.0,0.0,0.0,0.0,0.0,0.0,0.0,0.0,0.0,0.0,0.0,0.0,0.0,0.0,0.0,0.0,0.0,0.0,0.0,0.0,0.0,0.0,0.0,0.0,0.0,0.0,0.0,0.0,0.0,0.0,0.0,0.0,0.0,0.0,0.0,0.0,0.0,0.0,0.0,0.0,0.0,0.0,0.0,0.0,0.0,0.0,0.0,0.0,0.0,0.0,0.0,0.0,0.0,0.0,0.0,-2.2292,-2.0891,-1.9383,-1.7882,-1.7777,-1.7037,-1.5399,-1.0454,-1.0178,0.0,0.0,0.0,0.0,0.0,0.0,0.0,0.0,0.0,0.0,0.0,0.0,0.0,0.0,0.0,0.0,0.0,0.0,0.0,0.0,0.0,0.0,0.0,0.0,0.0,0.0,0.0,0.0,0.0,0.0,0.0,0.0,0.0,0.0,0.0,0.0,0.0,0.0,0.0,0.0,0.0,0.7438,0.7151,0.7008,0.0,0.0,0.0,0.0,0.6438,0.6042,0.0,0.0,0.0,0.0,0.0,0.0,0.0,0.0,0.0,0.0,0.0,0.0,0.0,0.0,0.0,0.0,0.0,0.0,0.0,0.0,0.0,0.0,0.0,0.0,0.0,0.0,0.0,0.0,0.0,0.0,0.0,0.0,0.0,0.0,0.0,0.0,0.0,0.0,0.0,0.0,0.0,0.0,0.0,0.0,0.0,0.0,0.0,0.0,0.0,0.0,0.0,0.0,0.0,0.0,0.0,0.0,-2.1146,-2.01,-1.8112,-1.5269,-1.508,-1.3567,-1.0508,-0.7942,-0.8336,0.0,0.0,0.0,0.0,0.0,0.0,0.0,0.0,0.0,0.0,0.0,0.0,0.0,0.0,0.0,0.0,0.0,0.0,0.0,0.0,0.0,0.0,0.0,0.0,0.0,0.0,0.0,0.0,0.0,0.0,0.0,0.0,0.0,0.0,0.0,0.0,0.0,0.0,0.0,0.0,0.0,0.7908,0.7116,0.7181,0.7274,0.0,0.0,0.6756,0.8158,0.7832,0.0,0.0,0.0,0.0,0.0,0.0,0.0,0.0,0.0,0.0,0.0,0.0,0.0,0.0,0.0,0.0,0.0,0.0,0.0,0.0,0.0,0.0,0.0,0.0,0.0,0.0,0.0,0.0,0.0,0.0,0.0,0.0,0.0,0.0,0.0,0.0,0.0,0.0,0.0,0.0,0.0,0.0,0.0,0.0,0.0,0.0,0.0,0.0,0.0,0.0,0.0,0.0,0.0,0.0,0.0,-2.1724,-2.1582,-1.8313,-1.5724,-1.412,-1.3615,-1.2014,-0.9082,-0.6985,-0.8043,0.0,0.0,0.0,0.0,0.0,0.0,0.0,0.0,0.0,0.0,0.0,0.0,0.0,0.0,0.0,0.0,0.0,0.0,0.0,0.0,0.0,0.0,0.0,0.0,0.0,0.0,0.0,0.0,0.0,0.0,0.0,0.0,0.0,0.0,0.0,0.0,0.0,0.0,0.0,0.0,0.0,0.0,0.7398,0.743,0.0,0.0,0.0,0.6896,0.7941,0.0,0.0,0.0,0.0,0.0,0.0,0.0,0.0,0.0,0.0,0.0,0.0,0.0,0.0,0.0,0.0,0.0,0.0,0.0,0.0,0.0,0.0,0.0,0.0,0.0,0.0,0.0,0.0,0.0,0.0,0.0,0.0,0.0,0.0,0.0,0.0,0.0,0.0,0.0,0.0,0.0,0.0,0.0,0.0,0.0,0.0,0.0,0.0,0.0,0.0,0.0,0.0,0.0,0.0,0.0,0.0,0.0,-2.192,-1.7002,-1.4057,-1.3417,-1.2608,-1.0839,-0.8004,-0.6299,0.0,0.0,0.0,0.0,0.0,0.0,0.0,0.0,0.0,0.0,0.0,0.0,0.0,0.0,0.0,0.0,0.0,0.0,0.0,0.0,0.0,0.0,0.0,0.0,0.0,0.0,0.0,0.8729,0.0,0.0,0.0,0.0,0.0,0.0,0.0,0.0,0.0,0.0,0.0,0.0,0.0,0.0,0.7647,0.814,0.7994,0.7941,0.0,0.0,0.7209,0.809,0.8078,0.8028,0.0,0.0,0.0,0.0,0.0,0.0,0.0,0.0,0.0,0.0,0.0,0.0,0.0,0.0,0.0,0.0,0.0,0.0,0.0,0.0,0.0,0.0,0.0,0.0,0.0,0.0,0.0,0.0,0.0,0.0,0.0,0.0,0.0,0.0,0.0,0.0,0.0,0.0,0.0,0.0,0.0,0.0,0.0,0.0,0.0,0.0,0.0,0.0,0.0,0.0,0.0,0.0,0.0,0.0,-2.2216,-2.1174,-1.6856,-1.4037,-1.2969,-1.1918,-0.9707,-0.6188,-0.5625,-0.5199,0.0,0.0,0.0,0.0,0.0,0.0,0.0,0.0,0.0,0.0,0.0,0.0,0.0,0.0,0.0,0.0,0.0,0.0,0.0,0.0,0.0,0.0,0.0,0.0,0.0,0.0,0.0,0.0,0.0,0.0,0.0,0.0,0.0,0.0,0.0,0.0,0.0,0.0,0.0,0.0,0.0,0.805,0.9372,0.903,0.8894,0.0,0.8506,0.8098,0.9458,0.9138,0.8942,0.9555,0.0,0.0,0.0,0.0,0.0,0.0,0.0,0.0,0.0,0.0,0.0,0.0,0.0,0.0,0.0,0.0,0.0,0.0,0.0,0.0,0.0,0.0,0.0,0.0,0.0,0.0,0.0,0.0,0.0,0.0,0.0,0.0,0.0,0.0,0.0,0.0,0.0,0.0,0.0,0.0,0.0,0.0,0.0,0.0,0.0,0.0,0.0,0.0,0.0,0.0,0.0,0.0,0.0,-2.1377,-2.1602,-1.5479,-1.2278,-1.2227,-1.1002,-0.8663,-0.5315,-0.5106,-0.4745,0.0,0.0,0.0,0.0,0.0,0.0,0.0,0.0,0.0,0.0,0.0,0.0,0.0,0.0,0.0,0.0,0.0,0.0,0.0,0.0,0.0,0.0,0.0,0.0,0.0,0.0,0.0,0.0,0.8871,0.8168,0.8761,0.0,0.0,0.0,0.0,0.0,0.0,0.0,0.0,0.0,0.0,0.9106,0.9629,0.9482,0.0,0.0,0.8612,0.8057,0.9008,0.8962,0.885,0.9159,0.8956,0.0,0.0,0.0,0.0,0.0,0.0,0.0,0.0,0.0,0.0,0.0,0.0,0.0,0.0,0.0,0.0,0.0,0.0,0.0,0.0,0.0,0.0,0.0,0.0,0.0,0.0,0.0,0.0,0.0,0.0,0.0,0.0,0.0,0.0,0.0,0.0,0.0,0.0,0.0,0.0,0.0,0.0,0.0,0.0,0.0,0.0,0.0,0.0,0.0,0.0,0.0,0.0,-2.1379,-2.2161,-1.4928,-1.1337,-1.1848,-1.0282,-0.7893,-0.4719,-0.4703,-0.3998,0.0,0.0,0.0,0.0,0.0,0.0,0.0,0.0,0.0,0.0,0.0,0.0,0.0,0.0,0.0,0.0,0.0,0.0,0.0,0.0,0.0,0.0,0.0,0.0,0.0,0.0,0.0,0.0,0.9245,0.83,0.8728,0.0,0.0,0.0,0.0,0.0,0.0,0.0,0.0,0.0,0.0,1.0089,1.03,0.9987,0.9636,0.9481,0.829,0.7622,0.8374,0.8468,0.8514,0.8752,0.0,0.0,0.0,0.0,0.0,0.0,0.0,0.0,0.0,0.0,0.0,0.0,0.0,0.0,0.0,0.0,0.0,0.0,0.0,0.0,0.0,0.0,0.0,0.0,0.0,0.0,0.0,0.0,0.0,0.0,-1.4149,0.0,0.0,0.0,0.0,0.0,0.0,0.0,0.0,0.0,0.0,0.0,0.0,0.0,0.0,0.0,0.0,0.0,0.0,0.0,0.0,0.0,0.0,-2.2598,-2.2573,-1.5339,-1.1652,-1.1637,-0.9813,-0.7273,-0.4193,-0.4549,-0.2527,0.2178,0.0,0.0,0.0,0.0,0.0,0.0,0.0,0.0,0.0,0.0,0.0,0.0,0.0,0.0,0.0,0.0,0.0,0.0,0.0,0.0,0.0,0.0,0.0,0.0,0.0,0.0,1.0875,0.8317,0.7176,0.0,0.0,0.0,0.0,0.0,0.0,0.0,0.0,0.0,0.0,1.0789,1.0998,1.1648,1.0554,0.9533,0.8888,0.7606,0.6908,0.7652,0.7729,0.7982,0.0,0.0,0.0,0.0,0.0,0.0,0.0,0.0,0.0,0.0,0.0,0.0,0.0,0.0,0.0,0.0,0.0,0.0,0.0,0.0,0.0,0.0,0.0,0.0,0.0,0.0,0.0,-0.8373,-0.886,0.0,0.0,0.0,0.0,0.0,0.0,0.0,0.0,0.0,0.0,0.0,-1.4346,-1.4478,0.0,0.0,0.0,0.0,0.0,0.0,0.0,0.0,0.0,0.0,0.0,0.0,-2.0951,-2.004,-1.3534,-1.0058,-0.9989,-0.8874,-0.6916,-0.4064,-0.4198,-0.2355,0.159,0.0,0.0,0.0,0.0,0.0,0.0,0.0,0.0,0.0,0.0,0.0,0.0,0.0,0.0,0.0,0.0,0.0,0.0,0.0,0.0,0.0,0.0,0.0,0.0,0.0,1.1972,0.0,0.0,0.0,0.0,0.0,0.0,0.0,0.0,0.0,0.0,0.0,0.8711,1.0527,1.0797,1.1199,1.2344,1.1316,1.0332,0.0,0.0,0.0,0.0,0.0,0.0,0.0,0.0,0.0,0.0,0.0,0.0,0.0,0.0,0.8268,0.7777,0.7283,0.6794,0.6308,0.0,0.0,0.0,0.0,0.0,0.0,0.0,0.0,0.0,0.0,0.0,0.0,0.0,0.0,-0.6234,0.0,-0.7486,0.0,0.0,0.0,0.0,0.0,0.0,0.0,0.0,-1.0312,-0.9279,-1.0848,-1.0959,-1.2354,0.0,-1.6337,-1.8511,0.0,0.0,0.0,0.0,0.0,0.0,0.0,0.0,-1.9107,-1.7134,-1.1651,-0.8734,-0.8734,-0.7936,-0.624,-0.3661,-0.2018,0.0253,0.3331,0.8182,1.0971,0.0,0.0,0.0,0.0,0.0,0.0,0.0,0.0,0.0,0.0,0.0,0.0,0.0,0.0,0.0,0.0,0.0,0.0,0.0,0.0,0.0,0.0,0.0,1.2482,0.0,0.0,0.0,0.0,0.0,0.0,0.0,0.0,0.0,0.7787,0.8847,1.0191,1.1375,1.1534,1.1895,1.2977,0.0,0.0,0.0,0.0,0.0,0.0,0.0,0.9234,0.9519,0.9533,0.9425,0.9166,0.9112,0.9112,0.9112,0.0,0.0,0.8193,0.7883,0.7557,0.7074,0.6966,0.6912,0.6642,0.6421,0.614,0.0,0.0,0.0,0.0,0.0,0.0,0.0,0.0,-0.4315,-0.4318,0.0,-0.5061,0.0,0.0,0.0,0.0,0.0,-0.967,0.0,0.0,-0.5424,-0.455,-0.5477,-0.5617,-0.6384,-0.797,-0.9731,-1.1606,-1.3961,-1.8074,0.0,0.0,0.0,0.0,0.0,0.0,-1.7183,-1.3752,-0.9858,-0.7842,-0.7777,-0.7028,-0.5325,-0.2608,0.1593,0.4887,0.7272,1.0207,1.3215,1.6009,1.6757,0.0,0.0,0.0,0.0,0.0,0.0,0.0,0.0,0.0,0.0,0.0,0.0,0.0,0.0,0.0,0.0,0.0,0.0,0.0,0.0,1.396,0.0,0.0,0.0,0.0,0.0,0.0,0.0,0.0,0.0,0.0,1.0027,1.0847,1.1978,1.2686,0.0,0.0,0.0,0.0,1.1333,1.0986,0.9694,0.8786,0.8713,0.9328,1.0002,1.0748,0.0,0.0,0.9846,0.9679,0.9666,0.9679,0.9659,0.9506,0.8951,0.8253,0.7794,0.7729,0.7723,0.7456,0.6907,0.7074,0.7063,-0.1864,0.0,0.0,0.0,0.0,-0.3577,-0.3059,-0.2213,-0.2213,-0.2147,-0.2278,-0.3039,0.0,0.0,0.0,0.0,0.0,0.0,-0.949,-0.912,-0.6976,-0.5738,-0.5428,-0.6645,-0.7399,-0.7906,-0.8409,-0.9569,-1.1301,-1.148,-1.4933,-2.136,0.0,0.0,0.0,0.0,-1.3642,-1.1541,-0.7975,-0.6133,-0.6129,-0.5272,-0.3469,-0.0802,0.1734,0.423,0.6667,0.9132,1.1547,1.4011,1.5951,0.0,0.0,0.0,0.0,0.0,0.0,0.0,0.0,0.0,0.0,0.0,0.0,0.0,0.0,0.0,0.0,0.0,0.0,0.0,1.4768,1.7678,1.8343,0.0,0.0,0.0,0.0,0.0,0.0,0.0,0.0,0.0,1.202,1.1818,1.1796,0.0,0.0,1.2739,1.303,1.2797,1.2545,1.2431,1.1184,0.0,0.0,0.9979,1.002,1.0788,1.0899,1.0629,0.9846,0.9686,0.9686,0.9693,0.9686,0.9619,0.9466,0.9085,0.8719,0.8479,0.8049,0.7836,0.8049,0.7171,0.6199,-0.0774,-0.0899,-0.2164,-0.2476,-0.2143,-0.2143,-0.1608,-0.0806,-0.0806,-0.0806,-0.0806,-0.1338,-0.2068,-0.2998,-0.4745,0.0,0.0,0.0,-0.7887,-0.754,-0.6599,-0.5947,-0.5491,-0.6449,-0.6894,-0.6959,-0.7593,-0.8094,-0.8409,-0.8094,-1.028,-1.4955,0.0,0.0,-1.5752,-1.3287,-1.0906,-0.86,-0.61,-0.4821,-0.4818,-0.3274,-0.1467,0.0467,0.2271,0.4704,0.7904,0.9296,1.1279,1.3947,1.5626,1.6927,0.0,0.0,0.0,0.0,0.0,0.0,0.0,0.0,0.0,0.0,0.0,1.8082,1.6617,0.0,0.0,0.0,1.6978,1.6907,1.6913,1.903,0.0,0.0,0.0,0.0,0.0,0.0,0.0,1.602,1.5194,1.4261,1.3799,1.3412,1.3109,1.2982,1.3077,1.3359,1.4016,0.0,1.3719,1.353,1.2768,1.1966,1.1366,1.1396,1.1637,1.2115,1.2216,1.176,1.0723,1.0552,1.0432,1.0147,1.0033,0.998,0.9892,0.9679,0.9499,0.9212,0.8815,0.8478,0.8306,0.7119,0.6215,0.0,0.0,-0.1793,-0.1956,-0.1215,-0.1215,-0.0744,0.0,0.0,0.0,0.0,0.0,-0.0471,-0.1274,-0.2933,0.0,-0.3791,-0.4722,-0.4734,-0.4082,-0.4957,-0.5428,-0.5428,-0.5428,-0.5435,-0.5446,-0.6981,-0.6924,-0.5459,-0.6872,-0.7567,-0.7687,-1.0876,-1.1805,-1.0535,-1.0411,-0.8722,-0.5352,-0.4483,-0.3949,-0.3747,-0.1335,0.0467,0.1399,0.3201,0.6144,1.0151,1.0532,1.2081,1.5206,1.5695,1.6769,1.8782,0.0,0.0,0.0,0.0,0.0,0.0,0.0,0.0,0.0,0.0,0.0,0.0,0.0,0.0,1.9086,2.0088,0.0,2.0362,1.8927,0.0,0.0,0.0,1.985,1.4239,1.4891,1.5898,1.6367,0.0,0.0,1.5407,1.5365,1.5477,1.5799,1.4984,1.4693,1.5706,1.5305,1.4791,1.435,1.4236,1.3652,1.2348,1.3066,1.3718,1.3811,1.4094,1.3374,1.2035,1.1735,1.1454,1.0703,1.0611,1.051,1.0221,1.0154,1.0067,0.98,0.9641,0.9124,0.7971,0.7431,0.6899,0.0,0.0,-0.0434,-0.05,-0.0286,-0.0286,-0.0215,0.0,0.0,0.0,0.0,0.0,-0.0135,-0.0337,-0.0739,-0.1341,-0.2007,-0.2872,-0.3542,-0.4082,-0.4957,-0.5428,-0.5428,-0.5428,-0.5423,-0.5597,-0.5935,-0.5576,-0.4556,-0.49,-0.5105,-0.5099,-0.5931,-0.7109,-0.8496,-0.7932,-0.6569,-0.435,-0.4082,-0.3345,-0.1941,-0.0668,0.0734,0.2339,0.4695,0.7338,1.0276,1.1637,1.3262,1.5274,1.6525,1.7238,1.7384,2.0035,0.0,0.0,0.0,0.0,0.0,0.0,0.0,0.0,0.0,2.1886,2.0354,0.0,2.0422,0.0,2.262,2.2571,2.0184,2.096,0.0,0.0,1.9803,1.996,2.0008,1.8634,1.7539,1.7302,1.6563,1.6173,1.6596,1.6553,1.7042,1.8639,1.7393,1.6095,1.5552,1.5843,1.5847,1.5187,1.4606,1.4083,1.3708,1.339,1.338,1.3312,1.3321,1.294,1.1958,1.1834,1.1524,1.0807,1.0618,1.0584,1.049,1.051,1.0428,1.0334,0.9567,0.8968,0.9026,0.8257,0.7483,0.0,0.0,0.0,0.0,0.0,0.0,0.0,0.0,0.0,0.0,0.0,0.0,0.0,0.0,0.0,-0.0488,-0.1321,-0.1807,-0.257,-0.3472,-0.3958,-0.4168,-0.4166,-0.4237,-0.4271,-0.4331,-0.4333,-0.408,-0.3555,-0.3557,-0.3557,-0.3555,-0.3557,-0.4204,-0.5508,-0.559,-0.5127,-0.4097,-0.3223,-0.1908,-0.0205,0.074,0.1672,0.2676,0.5235,0.7421,0.919,1.1261,1.3159,1.4796,1.6291,1.7126,1.7241,2.0146,2.2094,0.0,0.0,0.0,0.0,0.0,0.0,0.0,0.0,0.0,0.0,0.0,2.1295,2.0685,2.277,2.3088,2.0512,2.1866,2.2468,2.1353,2.1368,2.1922,2.3158,2.1029,1.9545,1.96,1.8409,1.7718,1.8191,1.8388,1.8795,1.9767,1.9183,1.8242,1.706,1.6666,1.6322,1.5911,1.5255,1.4787,1.4986,1.4532,1.424,1.456,1.4622,1.4249,1.3092,1.2712,1.2241,1.1056,1.0648,1.0618,1.0618,1.0618,1.0618,1.0514,1.0053,0.9541,0.9522,0.89,0.8404,0.0,0.0,0.0,0.0,0.0,0.0,0.0,0.0,0.0,0.0,0.0,0.0,0.0,0.0,0.0,-0.0437,-0.1163,-0.1236,-0.1743,-0.2542,-0.2613,-0.2687,-0.2687,-0.2687,-0.2691,-0.2772,-0.2699,-0.263,-0.2567,-0.2567,-0.2567,-0.2566,-0.2566,-0.264,-0.2785,-0.337,-0.3651,-0.3627,-0.1986,-0.0351,0.1264,0.2117,0.2622,0.2956,0.5526,0.7399,0.8175,1.0767,1.2789,1.4305,1.5891,1.7079,1.7884,2.0211,2.206,0.0,2.4257,0.0,0.0,0.0,0.0,0.0,0.0,0.0,0.0,2.3675,2.1956,1.9805,2.2164,2.3129,2.1484,2.232,2.2946,2.2962,2.3807,2.443,2.4394,2.2671,2.1642,2.2156,2.1143,2.0406,2.0116,2.0536,2.0611,2.0484,2.0712,2.0475,1.932,1.7845,1.68,1.6696,1.6035,1.5701,1.5984,1.575,1.5679,1.6437,1.6335,1.601,1.4499,1.3897,1.3108,1.1659,1.0972,1.0712,1.0715,1.0755,1.0752,1.0715,1.0655,1.0384,0.9755,0.9545,0.9204,0.0,0.0,0.0,0.0,0.0,0.0,0.0,0.0,0.0,0.0,0.0,0.0,0.0,0.0,0.0,-0.0073,-0.0291,-0.1018,-0.1381,-0.1598,-0.2324,-0.2687,-0.2687,-0.2687,-0.2788,-0.2843,-0.2847,-0.2498,-0.1854,-0.1854,-0.1777,-0.1777,-0.1855,-0.2238,-0.2927,0.0,0.0,0.0,-0.036,0.036,0.1442,0.1471,0.2136,0.3783,0.6999,0.0,1.0014,1.2989,1.476,1.5139,1.7136,0.0,0.0,0.0,0.0,0.0,0.0,0.0,0.0,0.0,0.0,0.0,2.6755,2.6207,2.58,2.5152,2.4405,2.3549,2.4042,2.4178,2.3566,2.3419,2.3259,2.2982,2.3874,2.4478,2.4475,2.4083,2.3622,2.2906,2.4258,2.4387,2.229,2.1991,2.23,2.269,2.2519,2.2177,2.1877,1.9571,1.7991,1.7698,1.6961,1.65,1.659,1.6011,1.5937,1.6402,1.6128,1.568,1.5274,1.4551,1.3727,1.2617,1.1843,1.1224,1.122,1.1231,1.1229,1.1263,1.1076,1.0842,1.0417,1.0371,1.0301,0.0,0.0,0.0608,0.0521,0.0,0.0601,0.051,0.0,0.0,0.0,0.0,0.0,0.0,0.0,0.0,0.0,0.0,-0.0454,-0.068,-0.068,-0.1132,-0.1358,-0.1359,-0.136,-0.1367,-0.1461,-0.1461,-0.1239,-0.0784,-0.0235,0.0,0.0,0.0469,0.0468,0.0,0.1557,0.2079,0.1654,0.1561,0.1995,0.3025,0.3369,0.4021,0.5005,0.0,0.0,0.0,0.0,0.0,0.0,0.0,0.0,0.0,0.0,0.0,2.3842,2.4359,2.5077,2.6036,2.6002,2.6313,2.7117,2.7314,2.7299,2.709,2.6757,2.6277,2.5619,2.5838,2.5793,2.5202,2.4991,2.489,2.4793,2.544,2.6117,2.6532,2.6018,2.5463,2.5264,2.6027,2.5991,2.4433,2.3985,2.394,2.4055,2.3827,2.3473,2.2871,2.0934,1.91,1.8137,1.7496,1.709,1.7057,1.692,1.6864,1.7222,1.7015,1.6599,1.6105,1.5116,1.4123,1.3218,1.2204,1.1404,1.1389,1.1397,1.1441,1.1416,1.1283,1.1189,1.0995,1.0768,1.0618,0.0449,0.0718,0.1701,0.1433,0.0359,0.1406,0.1135,0.0,0.0,0.0,0.0,0.0,0.0,0.0,0.0,0.0,0.0,0.0,0.0,0.0,0.0,0.0,0.0,0.0,0.0,0.0,0.0236,0.0314,0.0314,0.1332,0.188,0.1957,0.2657,0.3203,0.3435,0.4295,0.445,0.3895,0.337,0.3636,0.4763,0.5434,0.6001,0.6433,0.8648,0.9495,0.8974,1.1714,1.3597,1.4373,1.6532,1.8167,1.9073,2.0617,2.1857,2.2493,2.3598,2.4626,2.557,2.6318,2.6787,2.6863,2.7687,2.8169,2.8111,2.7876,2.7479,2.6847,2.7231,2.7199,2.656,2.6548,2.6586,2.6599,2.7237,2.8027,2.8768,2.7924,2.7139,2.7261,2.716,2.6877,2.6224,2.5879,2.5574,2.5168,2.4905,2.4611,2.3689,2.1971,2.0193,1.9083,1.8543,1.8006,1.7794,1.7992,1.8192,1.793,1.7959,1.7725,1.6917,1.5854,1.4739,1.3855,1.2628,1.1988,1.1852,1.1763,1.1666,1.1793,1.1637,1.1503,1.1463,1.1089,1.0735,0.2147,0.3126,0.3304,0.2681,0.1612,0.1695,0.116,0.0,0.0,0.0,0.0,0.0,0.0,0.0,0.0,0.0,0.0,0.0,0.0,0.0,0.0,0.0,0.0,0.0,0.0,0.0,0.0951,0.1333,0.1489,0.2423,0.289,0.289,0.3046,0.3593,0.445,0.4611,0.5535,0.7003,0.4488,0.402,0.5867,0.5101,0.5825,0.8327,0.9454,1.0392,1.0996,1.3132,1.4644,1.5374,1.7401,1.9137,2.0434,2.0746,2.1397,2.2417,2.32,2.4094,2.5178,2.5777,2.6522,2.7412,2.8384,2.8602,2.7775,2.7528,2.75,2.7595,2.7553,2.7505,2.7615,2.7505,2.727,2.6883,2.7944,2.8839,2.901,2.8779,2.83,2.7539,2.8135,2.8169,2.7218,2.7017,2.7063,2.6871,2.6039,2.5303,2.4846,2.3161,2.1729,2.1167,2.0568,1.99,1.9107,1.9048,1.8787,1.8066,1.8076,1.8008,1.7716,1.6934,1.5969,1.511,1.4045,1.3462,1.3295,1.2677,1.2649,1.3082,1.262,1.1959,1.1938,1.1585,1.1223,0.2148,0.2771,0.4018,0.3838,0.2769,0.2771,0.2057,0.1074,0.1666,0.1218,0.0,0.0,0.0,0.0,0.0,0.0337,0.1008,0.1008,0.1343,0.1931,0.193,0.193,0.1929,0.1909,0.1983,0.198,0.234,0.2552,0.2629,0.3461,0.3982,0.3982,0.453,0.5386,0.6311,0.6388,0.7076,0.8537,0.6674,0.636,0.7821,0.7847,0.8537,0.9838,1.0647,1.151,1.2415,1.3597,1.4845,1.6127,1.7655,1.8967,2.0002,2.0501,2.1197,2.2016,2.2712,2.3434,2.4287,2.5265,2.6234,2.7138,2.778,2.8223,2.8409,2.8579,2.8579,2.8299,2.8524,2.8695,2.8608,2.9021,2.9224,2.8962,2.9406,2.9452,2.9081,2.9,2.8868,2.862,2.8815,2.8848,2.8501,2.8375,2.8188,2.7908,2.6829,2.6192,2.6433,2.4967,2.3411,2.2551,2.1696,2.0726,1.9607,1.9299,1.8911,1.8134,1.8395,1.8462,1.8134,1.7552,1.6986,1.6123,1.5158,1.4576,1.4486,1.4183,1.4122,1.4219,1.3678,1.2964,1.2777,1.2289,1.1619,0.1969,0.2415,0.4198,0.4463,0.357,0.357,0.3035,0.2324,0.3213,0.2592,0.0984,0.0793,0.07,0.0437,0.043,0.0768,0.1363,0.1363,0.2043,0.3148,0.3233,0.3318,0.3569,0.3641,0.363,0.3621,0.3628,0.3668,0.382,0.4619,0.5104,0.516,0.5867,0.6718,0.748,0.7706,0.8313,0.9221,0.8761,0.8841,0.9593,1.0415,1.1007,1.1434,1.1781,1.2529,1.363,1.3998,1.4972,1.6612,1.7659,1.8542,1.9376,2.007,2.0701,2.1259,2.2007,2.2863,2.3749,2.4844,2.5834,2.6646,2.696,2.7549,2.8581,2.9252,2.944,2.9116,2.9544,2.9767,2.9608,3.0253,3.0897,3.0872,3.0479,3.0213,2.9985,2.9425,2.9302,2.9783,3.015,3.0317,2.9933,2.9787,2.9354,2.8386,2.7372,2.7036,2.7309,2.6453,2.5145,2.405,2.2962,2.187,2.0417,2.0063,1.9628,1.871,1.9166,1.9233,1.8854,1.8607,1.8046,1.7179,1.6323,1.5833,1.5572,1.5246,1.5226,1.5334,1.4688,1.3939,1.3556,1.2769,1.1948,0.2413,0.3392,0.366,0.3748,0.357,0.357,0.3482,0.3393,0.357,0.3481,0.3301,0.3296,0.2671,0.1696,0.1602,0.1155,0.0445,0.0179,0.098,0.2043,0.1958,0.2577,0.3625,0.3658,0.3628,0.3787,0.4552,0.4919,0.4997,0.5863,0.6228,0.6193,0.6261,0.6416,0.6567,0.7403,0.8313,0.9301,1.0115,1.0559,1.064,1.0789,1.1668,1.3375,1.2631,1.3121,1.4877,1.4698,1.5221,1.6833,1.7573,1.8311,1.9291,1.9519,1.9702,2.0054,2.1148,2.2489,2.4122,2.463,2.5169,2.6016,2.6404,2.685,2.7502,2.8359,2.9232,2.9792,3.0071,3.0191,3.0445,3.0708,3.088,3.0894,3.057,3.0899,3.2163,3.0623,2.957,3.1092,3.2711,3.3284,3.1198,3.0831,3.0325,2.876,2.7859,2.744,2.7535,2.7,2.644,2.5952,2.4966,2.3748,2.2699,2.2077,2.1215,2.0451,2.0398,2.0398,2.0215,2.0096,1.9854,1.8113,1.7726,1.7298,1.6551,1.5921,1.5613,1.6175,1.5666,1.4807,1.3882,1.2983,1.2303,0.2057,0.2591,0.3303,0.3215,0.268,0.3303,0.357,0.3659,0.4374,0.4999,0.562,0.562,0.4639,0.286,0.2858,0.2949,0.322,0.322,0.384,0.4907,0.4907,0.5176,0.5614,0.5665,0.564,0.572,0.6037,0.6147,0.6195,0.6427,0.6441,0.6458,0.6383,0.6567,0.7176,0.7629,0.8313,0.9301,1.0265,1.0789,1.0864,1.1391,1.2358,1.3528,1.331,1.4019,1.5799,1.5852,1.6323,1.7532,1.7999,1.8612,1.9533,1.9784,2.0171,2.0836,2.1774,2.2741,2.3864,2.4328,2.4679,2.5012,2.5786,2.6438,2.7016,2.7688,2.8549,2.9569,2.9859,3.0035,3.0318,3.0474,3.0642,3.0869,3.1172,3.1939,3.3145,3.2347,3.196,3.2692,3.3861,3.408,3.2331,3.1244,3.036,2.9196,2.8491,2.8156,2.8088,2.7545,2.738,2.7419,2.6505,2.512,2.3974,2.3059,2.2286,2.1658,2.172,2.1856,2.0899,2.1112,2.0762,1.9017,1.8808,1.8429,1.7588,1.7245,1.7019,1.7185,1.6673,1.572,1.4799,1.3803,1.3157,0.2325,0.2413,0.3215,0.2948,0.1968,0.3126,0.357,0.366,0.4554,0.5354,0.6157,0.6514,0.5711,0.4283,0.4107,0.4461,0.4821,0.491,0.5534,0.6517,0.6602,0.6782,0.7051,0.7139,0.7139,0.7126,0.6947,0.6966,0.6912,0.6719,0.6576,0.6522,0.639,0.6705,0.739,0.7662,0.8318,0.9301,1.0265,1.0938,1.1242,1.1922,1.2739,1.36,1.3673,1.4593,1.6515,1.6576,1.6991,1.793,1.8471,1.9052,1.9705,2.0167,2.0819,2.1707,2.2185,2.274,2.3496,2.3784,2.4085,2.443,2.5259,2.604,2.6616,2.7233,2.8077,2.9098,2.9681,3.0102,3.0208,3.054,3.0769,3.0903,3.1789,3.2905,3.3961,3.3813,3.3471,3.3999,3.458,3.444,3.3128,3.1741,3.0476,2.9512,2.9265,2.8784,2.8411,2.8012,2.7981,2.8174,2.7225,2.6133,2.494,2.4231,2.3331,2.2807,2.3,2.2845,2.1581,2.1982,2.1641,2.0084,1.9868,1.917,1.8114,1.7872,1.794,1.7794,1.7217,1.6419,1.572,1.4799,1.4099,0.3481,0.3481,0.357,0.2948,0.1878,0.3126,0.357,0.357,0.3749,0.3748,0.4194,0.5087,0.545,0.5267,0.5267,0.4732,0.3927,0.3927,0.4641,0.5625,0.5625,0.6071,0.7051,0.7139,0.7139,0.7139,0.7122,0.7054,0.6939,0.6909,0.6834,0.6688,0.6539,0.6541,0.6831,0.7488,0.8318,0.9296,1.0265,1.1236,1.207,1.2231,1.2806,1.36,1.3745,1.4665,1.6349,1.6636,1.706,1.8008,1.8803,1.9437,1.9867,2.0552,2.1391,2.2187,2.1943,2.221,2.3203,2.3146,2.329,2.421,2.4855,2.5465,2.6104,2.704,2.7942,2.8645,2.996,3.0601,3.065,3.1312,3.1482,3.1031,3.2326,3.3965,3.5586,3.4437,3.4119,3.4855,3.5181,3.4679,3.3416,3.2385,3.1108,3.0149,3.0217,3.0093,2.8558,2.8276,2.8244,2.7849,2.7225,2.651,2.6322,2.5591,2.4867,2.4284,2.3936,2.3872,2.3412,2.2871,2.1904,2.1141,2.0632,1.9738,1.8519,1.8008,1.8076,1.7852,1.7354,1.6715,1.6567,1.5799,1.5092,0.357,0.357,0.357,0.3304,0.3037,0.3392,0.357,0.357,0.357,0.4016,0.4732,0.5181,0.5361,0.545,0.616,0.6248,0.5888,0.5797,0.6068,0.6514,0.6517,0.6697,0.7051,0.7139,0.7139,0.7139,0.7139,0.7112,0.7058,0.6973,0.6905,0.6834,0.6695,0.6894,0.7426,0.7754,0.8362,0.9311,1.026,1.1013,1.1539,1.2572,1.339,1.3665,1.4307,1.5296,1.6567,1.7148,1.7901,1.8777,1.9166,1.9868,2.1024,2.1572,2.2138,2.2802,2.243,2.2349,2.2839,2.3146,2.319,2.3334,2.4168,2.514,2.5891,2.6976,2.8136,2.9364,3.0563,3.1318,3.179,3.2276,3.252,3.2493,3.3392,3.4642,3.5566,3.5447,3.5237,3.5385,3.5005,3.4282,3.377,3.2859,3.1864,3.1002,3.0874,3.0485,2.994,2.9412,2.8979,2.8701,2.8192,2.7615,2.7203,2.6549,2.5906,2.5342,2.4894,2.4208,2.3708,2.3365,2.2592,2.1768,2.1215,2.0386,1.9222,1.8395,1.8395,1.8519,1.7949,1.7354,1.7501,1.6645,1.6079,0.455,0.4194,0.4196,0.3927,0.3659,0.357,0.357,0.357,0.357,0.4105,0.4819,0.5181,0.5361,0.5628,0.6605,0.7139,0.7139,0.7051,0.7139,0.7139,0.7139,0.7139,0.7139,0.7139,0.7139,0.7139,0.7139,0.7139,0.7132,0.7044,0.7,0.6987,0.7179,0.7623,0.815,0.8431,0.8994,0.9872,1.083,1.1366,1.189,1.3353,1.4171,1.4314,1.5163,1.593,1.6567,1.7501,1.8269,1.8844,1.9365,2.0526,2.2077,2.2476,2.2865,2.3489,2.3089,2.3004,2.3473,2.3937,2.4107,2.403,2.4998,2.5967,2.6798,2.7724,2.8902,3.0231,3.1364,3.2275,3.2866,3.3455,3.3626,3.3427,3.4228,3.5254,3.5898,3.5945,3.5782,3.5514,3.4795,3.4205,3.3952,3.3323,3.2503,3.1725,3.1453,3.1302,3.0627,3.0136,2.9496,2.9196,2.8905,2.8429,2.8084,2.7482,2.6712,2.6111,2.5687,2.4894,2.4266,2.3872,2.3339,2.2457,2.1643,2.0876,1.9987,1.9034,1.8911,1.9233,1.8576,1.7784,1.7716,1.7491,1.6853,0.6337,0.5447,0.545,0.4821,0.4014,0.3926,0.3748,0.3748,0.3749,0.3926,0.4196,0.491,0.5361,0.5628,0.6605,0.7051,0.6962,0.7051,0.7139,0.7139,0.7139,0.7139,0.7139,0.7139,0.7139,0.7139,0.7139,0.7139,0.7136,0.7126,0.7119,0.7365,0.8185,0.867,0.875,0.9475,1.0204,1.1118,1.1889,1.2712,1.3658,1.4593,1.5155,1.5296,1.614,1.6636,1.6706,1.7501,1.8076,1.8337,1.9628,2.1353,2.2628,2.3015,2.3446,2.3974,2.3712,2.4109,2.5118,2.5379,2.5604,2.601,2.7274,2.7879,2.8401,2.9138,2.9992,3.1047,3.2206,3.3158,3.38,3.4611,3.4697,3.3471,3.4706,3.5757,3.5917,3.5886,3.5719,3.5456,3.4867,3.4358,3.4052,3.3758,3.3096,3.2272,3.2091,3.1864,3.0808,3.0427,2.9789,2.9136,2.9076,2.9123,2.8808,2.8385,2.7593,2.6861,2.6486,2.5892,2.5217,2.4711,2.4124,2.3335,2.2384,2.1557,2.0824,1.9944,1.9497,1.9486,1.8721,1.8134,1.7862,1.7647,1.7423,0.6874,0.6609,0.6605,0.6337,0.5977,0.5977,0.5622,0.4912,0.4821,0.4823,0.491,0.527,0.5361,0.5628,0.6605,0.6694,0.6071,0.6697,0.7139,0.7139,0.7139,0.7139,0.7139,0.7139,0.7139,0.7139,0.7139,0.7139,0.7139,0.7139,0.7489,0.8261,0.8657,0.9582,1.0789,1.1122,1.157,1.2299,1.3154,1.3675,1.3912,1.5296,1.614,1.6289,1.7079,1.7569,1.7569,1.7872,1.8269,1.8787,1.9431,2.0526,2.2002,2.2811,2.3471,2.4163,2.4121,2.4171,2.4752,2.5315,2.572,2.6032,2.6682,2.7602,2.8728,2.9756,3.0723,3.1744,3.297,3.3971,3.4415,3.488,3.5004,3.471,3.5339,3.5836,3.5948,3.5843,3.5691,3.5495,3.5136,3.4786,3.4505,3.4209,3.3755,3.3099,3.2755,3.2143,3.1793,3.1116,3.0683,2.9968,2.9995,2.9659,2.9046,2.8616,2.8126,2.7431,2.6997,2.6669,2.6054,2.5659,2.5022,2.4271,2.3263,2.2433,2.1643,2.1026,2.0568,1.9998,1.9497,1.8911,1.8202,1.793,1.7842,0.7139,0.7139,0.7139,0.7139,0.7139,0.7139,0.6694,0.6071,0.5983,0.5983,0.6071,0.6071,0.6071,0.616,0.6782,0.6694,0.616,0.6782,0.7316,0.758,0.7228,0.7139,0.7228,0.7577,0.8013,0.8356,0.8444,0.8356,0.8356,0.8444,0.8794,0.9492,0.9923,1.0716,1.2003,1.2413,1.2917,1.3698,1.4358,1.4793,1.5242,1.636,1.7139,1.7276,1.7978,1.8462,1.8529,1.8787,1.8921,1.8988,1.9365,2.059,2.2199,2.2884,2.3603,2.4452,2.4768,2.4984,2.5593,2.6373,2.6741,2.7042,2.7567,2.8511,2.9776,3.0848,3.1661,3.2455,3.3485,3.4334,3.4655,3.4945,3.5197,3.5461,3.5588,3.5758,3.5911,3.5827,3.5657,3.5514,3.5328,3.5085,3.4775,3.4551,3.4195,3.3805,3.3057,3.2517,3.2316,3.1714,3.1027,3.0617,3.0543,2.993,2.9106,2.8763,2.8583,2.8,2.7429,2.7071,2.664,2.6587,2.6187,2.5425,2.4557,2.382,2.3097,2.2225,2.1596,2.0991,2.0333,1.9617,1.8977,1.8664,1.8452,0.7228,0.7228,0.7139,0.7139,0.7139,0.7139,0.7051,0.7051,0.7051,0.6962,0.6962,0.6962,0.6962,0.7051,0.7051,0.7051,0.7051,0.7048,0.7753,0.8193,0.7841,0.7489,0.7749,0.8623,0.9405,1.0178,1.0346,1.0351,1.0178,1.0178,1.0611,1.0783,1.1552,1.2322,1.2602,1.3284,1.4049,1.4981,1.5431,1.6119,1.6982,1.7697,1.7998,1.8008,1.8741,1.9177,1.9233,1.989,1.9694,1.8664,1.9879,2.1353,2.2628,2.3065,2.3767,2.5021,2.53,2.6014,2.721,2.7674,2.8356,2.8942,2.9475,3.0659,3.1258,3.1862,3.2409,3.2921,3.3688,3.4288,3.4651,3.4907,3.5162,3.5463,3.5611,3.5767,3.5948,3.5815,3.5666,3.5541,3.5456,3.5285,3.4774,3.4655,3.4375,3.3813,3.3075,3.2616,3.2316,3.1806,3.1061,3.0838,3.0855,3.0241,2.9393,2.9119,2.8808,2.7985,2.7545,2.7393,2.7086,2.7034,2.6864,2.6215,2.5659,2.5007,2.4253,2.3263,2.2372,2.1655,2.0974,2.0333,1.9814,1.9441,1.8988,0.8452,0.8368,0.7489,0.7139,0.7139,0.7139,0.7139,0.7139,0.7139,0.7139,0.7139,0.7139,0.7139,0.7139,0.7139,0.7139,0.7228,0.7228,0.7753,0.8715,0.8627,0.8969,0.9575,1.0005,1.0351,1.0697,1.0788,1.0611,1.0611,1.0783,1.1128,1.1809,1.2157,1.2766,1.3529,1.382,1.4413,1.5328,1.6078,1.6792,1.7586,1.8176,1.8407,1.8517,1.9039,1.933,1.9365,2.0139,2.0462,2.0085,2.091,2.1678,2.2322,2.2823,2.359,2.4465,2.5213,2.5786,2.6698,2.7545,2.8304,2.9255,2.9629,3.0156,3.1275,3.2073,3.2502,3.2813,3.3411,3.4136,3.4567,3.4804,3.5056,3.5446,3.5713,3.5914,3.5937,3.5819,3.5632,3.5521,3.5488,3.5232,3.4851,3.4653,3.4442,3.3813,3.3148,3.255,3.2417,3.1967,3.1257,3.1134,3.1015,3.0393,2.9851,2.9515,2.8955,2.7976,2.761,2.756,2.724,2.7034,2.6774,2.6351,2.6054,2.555,2.4781,2.3962,2.3135,2.2359,2.1803,2.1227,2.0398,1.989,1.9441,0.9323,0.889,0.8105,0.7577,0.7139,0.7139,0.7139,0.7139,0.7139,0.7139,0.7228,0.7665,0.7841,0.7925,0.836,0.8532,0.8528,0.8532,0.8965,0.9575,1.0178,1.0697,1.1209,1.1295,1.1558,1.2083,1.2083,1.2089,1.2169,1.2083,1.2425,1.2942,1.3033,1.347,1.3997,1.4166,1.458,1.5427,1.6317,1.7132,1.801,1.8604,1.9002,1.9263,1.9765,2.0238,2.088,2.1416,2.1542,2.1365,2.1628,2.2075,2.2384,2.2823,2.3471,2.4292,2.5201,2.6111,2.6901,2.7799,2.8764,2.954,2.9761,3.0251,3.1061,3.1842,3.2248,3.2583,3.3166,3.3795,3.4394,3.4802,3.5166,3.5476,3.5801,3.6002,3.6015,3.5834,3.5653,3.5548,3.5472,3.5289,3.4774,3.4694,3.4375,3.3865,3.3284,3.2934,3.2745,3.2092,3.16,3.1449,3.1297,3.0816,3.0131,2.9721,2.9159,2.8244,2.776,2.771,2.7458,2.7152,2.7086,2.6826,2.6481,2.5986,2.5161,2.4496,2.3917,2.3267,2.2725,2.2063,2.1302,2.0602,2.015,1.0183,0.9231,0.9152,0.8452,0.7661,0.7489,0.7749,0.7577,0.7661,0.7661,0.7837,0.8623,0.9061,0.9148,0.9836,1.0438,1.0438,1.0178,1.0519,1.1037,1.1729,1.2419,1.2419,1.2504,1.2942,1.3646,1.3997,1.3913,1.3737,1.3822,1.3997,1.3913,1.3997,1.3997,1.4088,1.4088,1.4734,1.5875,1.6549,1.7526,1.8506,1.919,1.9561,2.0177,2.0918,2.1853,2.259,2.3007,2.2689,2.2075,2.2002,2.2445,2.3017,2.3138,2.359,2.4376,2.5481,2.6578,2.7395,2.8403,2.9524,3.0064,3.0251,3.0559,3.1117,3.164,3.2074,3.2484,3.2952,3.356,3.4271,3.4999,3.5381,3.5528,3.5776,3.5924,3.5954,3.584,3.5646,3.5528,3.5491,3.5247,3.4908,3.4653,3.4483,3.3902,3.339,3.3136,3.2903,3.2517,3.2039,3.1733,3.1513,3.1341,3.0613,2.9886,2.9265,2.8556,2.8107,2.7845,2.761,2.7458,2.7509,2.7342,2.7019,2.6375,2.5439,2.4881,2.4496,2.3695,2.2871,2.2506,2.2125,2.1628,2.1112,1.1809,1.1466,1.0605,1.0091,0.9831,0.9826,0.9831,0.9744,0.9744,0.9657,0.9831,1.0091,1.0178,1.0269,1.0611,1.0611,1.0783,1.0783,1.1042,1.2072,1.3124,1.3646,1.3646,1.3639,1.3822,1.4088,1.4088,1.4088,1.4088,1.4088,1.4088,1.4088,1.4088,1.4088,1.4088,1.425,1.5068,1.6593,1.7073,1.8153,1.9512,1.9763,2.0216,2.0997,2.1924,2.2831,2.3493,2.3376,2.3017,2.2884,2.2823,2.2884,2.3198,2.3721,2.4118,2.4576,2.5672,2.6777,2.7399,2.8341,2.9204,3.0192,3.0435,3.0559,3.1151,3.1565,3.1986,3.2466,3.2939,3.3593,3.4441,3.5109,3.5417,3.5509,3.566,3.5839,3.5935,3.5831,3.5646,3.5527,3.5491,3.5289,3.4812,3.4694,3.4398,3.3858,3.3587,3.3291,3.317,3.3073,3.2802,3.2599,3.2345,3.2171,3.1391,3.0656,2.9982,2.9202,2.8662,2.8107,2.7875,2.756,2.756,2.756,2.7509,2.6692,2.5673,2.5287,2.4894,2.3989,2.3125,2.2884,2.2628,2.2261,2.1628,1.2851,1.2242,1.1638,1.1123,1.0611,1.0611,1.0611,1.0611,1.0611,1.0611,1.0697,1.1128,1.1381,1.1466,1.1992,1.226,1.2083,1.1643,1.2077,1.2942,1.3379,1.3555,1.4088,1.4088,1.4088,1.4088,1.4088,1.4088,1.4088,1.4088,1.4088,1.4088,1.4088,1.4088,1.425,1.4573,1.5387,1.6527,1.7658,1.8789,1.9621,2.0198,2.0876,2.2006,2.3033,2.3887,2.3917,2.3715,2.3353,2.3153,2.3138,2.3318,2.3662,2.4047,2.4394,2.4962,2.6129,2.7179,2.7822,2.8762,2.9783,3.0601,3.074,3.0878,3.1196,3.1565,3.2004,3.2484,3.2957,3.359,3.4576,3.4896,3.5184,3.548,3.5616,3.5774,3.591,3.5829,3.5644,3.5539,3.5491,3.5209,3.4926,3.4904,3.4805,3.4465,3.4495,3.4287,3.4954,3.4782,3.4196,3.3897,3.3547,3.3075,3.2266,3.1543,3.0884,3.0114,2.9373,2.8773,2.825,2.794,2.756,2.756,2.756,2.6759,2.5892,2.5563,2.5007,2.3813,2.3125,2.3125,2.3005,2.2763,2.1939,1.347,1.2589,1.2589,1.1986,1.1219,1.1219,1.1305,1.1214,1.1133,1.1391,1.13,1.2157,1.2595,1.2766,1.3476,1.4004,1.3737,1.3203,1.3209,1.373,1.3209,1.347,1.3997,1.4088,1.4088,1.4088,1.4088,1.4088,1.4088,1.4088,1.4088,1.4166,1.4334,1.4496,1.4657,1.5379,1.6191,1.6838,1.8141,1.9116,1.952,2.0275,2.1216,2.2728,2.4066,2.4589,2.4456,2.4192,2.3916,2.3378,2.3253,2.3731,2.434,2.4536,2.4681,2.5398,2.6587,2.767,2.845,2.9416,3.0293,3.1055,3.1291,3.1308,3.1445,3.175,3.2179,3.2645,3.3166,3.3781,3.4574,3.4768,3.5028,3.5388,3.5651,3.58,3.5932,3.5899,3.5885,3.5565,3.5723,3.5687,3.5419,3.5277,3.5216,3.5153,3.5211,3.5422,3.6056,3.615,3.5381,3.4672,3.4235,3.364,3.2883,3.2555,3.1896,3.0999,3.0164,2.9432,2.8784,2.8273,2.7919,2.7619,2.7342,2.6707,2.6229,2.596,2.5119,2.3754,2.3365,2.3531,2.3424,2.3198,2.2187,1.3997,1.3815,1.3822,1.3646,1.3476,1.3476,1.3392,1.3561,1.33,1.3476,1.3476,1.3646,1.373,1.3822,1.3913,1.4088,1.3997,1.373,1.3822,1.4082,1.3737,1.3906,1.3997,1.4088,1.4088,1.4088,1.4166,1.425,1.4166,1.4088,1.4328,1.4412,1.5061,1.5462,1.5711,1.6519,1.7496,1.7971,1.8948,1.9668,2.0226,2.0914,2.179,2.3424,2.4796,2.5253,2.5209,2.4895,2.4632,2.4506,2.4104,2.465,2.5441,2.5517,2.5466,2.5769,2.6782,2.7966,2.8995,2.9374,3.0166,3.0942,3.1487,3.1765,3.1946,3.2214,3.2616,3.3112,3.366,3.4242,3.464,3.4772,3.5038,3.5456,3.5954,3.6033,3.6113,3.635,3.6547,3.6331,3.6389,3.637,3.6158,3.6077,3.6212,3.6236,3.6223,3.6344,3.674,3.6593,3.6023,3.5354,3.4695,3.4098,3.3453,3.3295,3.2894,3.1941,3.1038,3.0232,2.9524,2.8813,2.8323,2.7979,2.7578,2.71,2.6669,2.6297,2.5686,2.4687,2.4341,2.406,2.3767,2.3412,2.2372,1.4088,1.4088,1.4088,1.4088,1.4088,1.4088,1.4088,1.4088,1.4088,1.4088,1.4088,1.4088,1.4088,1.4088,1.4088,1.4088,1.4088,1.4088,1.4088,1.4088,1.4088,1.4088,1.4088,1.4088,1.4088,1.425,1.4573,1.4894,1.4894,1.4977,1.5144,1.5794,1.6355,1.6519,1.6764,1.7658,1.839,1.9116,1.9963,2.074,2.1441,2.2124,2.3452,2.4244,2.5314,2.5832,2.564,2.5922,2.5755,2.5597,2.5595,2.6069,2.6538,2.6848,2.6802,2.6722,2.7218,2.8125,2.9134,2.9435,3.0048,3.1321,3.1716,3.195,3.2318,3.2634,3.319,3.3688,3.4086,3.4574,3.487,3.5043,3.5573,3.6401,3.7001,3.6893,3.6497,3.6891,3.726,3.7498,3.7568,3.7433,3.7011,3.705,3.7281,3.7291,3.7225,3.7313,3.747,3.7173,3.6744,3.6006,3.541,3.4857,3.4347,3.4223,3.3673,3.2733,3.1934,3.1121,3.0089,2.929,2.8734,2.8308,2.7869,2.7587,2.687,2.6394,2.5957,2.5588,2.4883,2.4323,2.4105,2.3564,2.2531,1.4088,1.4088,1.4088,1.4088,1.4088,1.4088,1.4088,1.4088,1.4088,1.4088,1.4088,1.4088,1.4088,1.4088,1.4088,1.4088,1.4088,1.4088,1.4088,1.4088,1.4088,1.4088,1.4088,1.4173,1.425,1.4734,1.513,1.5696,1.5621,1.5869,1.6519,1.6927,1.7342,1.7666,1.7908,1.8789,1.9195,1.9894,2.0961,2.1962,2.2713,2.3963,2.5004,2.5075,2.5955,2.6214,2.5942,2.6569,2.6737,2.6724,2.6999,2.751,2.7731,2.8168,2.828,2.807,2.7874,2.8424,2.9042,2.9406,3.0031,3.1359,3.1825,3.2301,3.3077,3.3736,3.4266,3.4636,3.5139,3.5514,3.5778,3.5541,3.6115,3.7218,3.8189,3.8633,3.7518,3.7578,3.8702,3.8878,3.882,3.8477,3.7982,3.8232,3.8506,3.8196,3.8088,3.8053,3.8161,3.8028,3.7543,3.6767,3.6145,3.566,3.5307,3.5194,3.4451,3.3307,3.2704,3.2009,3.084,2.9713,2.929,2.8876,2.8607,2.8241,2.7345,2.6703,2.6625,2.6197,2.5176,2.4641,2.4597,2.3859,2.2738,1.4088,1.4088,1.4088,1.4088,1.4088,1.4088,1.4088,1.4088,1.4088,1.4088,1.4088,1.4088,1.4088,1.4088,1.4088,1.4088,1.4088,1.4088,1.4088,1.4088,1.4088,1.4088,1.4088,1.4088,1.4489,1.5054,1.553,1.5696,1.6026,1.6764,1.7253,1.7658,1.847,1.8798,1.8877,1.9678,2.0401,2.0547,2.1441,2.2478,2.3441,2.4564,2.5004,2.537,2.5931,2.6471,2.6455,2.7142,2.7576,2.7588,2.7906,2.8432,2.8883,2.8555,2.8861,2.8961,2.8959,2.8732,2.9404,2.9672,3.025,3.1572,3.2159,3.307,3.4135,3.5232,3.5922,3.6398,3.6774,3.7013,3.6799,3.6189,3.64,3.7637,3.9279,3.9468,3.8807,3.8521,3.9622,3.9888,3.9727,3.9319,3.8878,3.9318,3.9671,3.9288,3.8968,3.8878,3.8626,3.8323,3.7962,3.7086,3.6295,3.5766,3.5639,3.5639,3.4891,3.3795,3.3315,3.2728,3.1413,3.0253,2.9973,2.9594,2.9295,2.8831,2.8077,2.7602,2.7461,2.6782,2.5809,2.5425,2.5273,2.4208,2.2996,1.4088,1.4088,1.4088,1.4088,1.4088,1.4088,1.4088,1.4088,1.4088,1.4088,1.4088,1.4088,1.4088,1.4088,1.4088,1.4088,1.4088,1.4088,1.4088,1.4088,1.4088,1.4088,1.4088,1.4088,1.4496,1.5137,1.5944,1.6683,1.6927,1.7738,1.847,1.9107,1.9599,1.9923,1.9766,2.0323,2.0566,2.1011,2.2038,2.3661,2.4909,2.5581,2.5816,2.5886,2.6314,2.6452,2.6769,2.7789,2.8363,2.8643,2.9318,3.0177,3.0542,3.0619,3.0754,3.0003,3.0692,3.0782,3.0703,3.0596,3.1345,3.2497,3.3421,3.4349,3.5408,3.6138,3.6726,3.6911,3.7133,3.749,3.7819,3.7283,3.7578,3.8548,4.0038,4.031,4.0207,4.0207,4.0368,4.0519,4.0544,4.0038,3.9653,3.9886,4.0043,3.9721,3.9357,3.9122,3.8649,3.8041,3.7613,3.7124,3.6312,3.5667,3.5639,3.5577,3.4911,3.4056,3.3673,3.2914,3.1692,3.0791,3.0573,3.0228,2.9744,2.9235,2.8712,2.8382,2.8121,2.7275,2.6375,2.6103,2.577,2.4616,2.3691,1.4328,1.4088,1.4088,1.4088,1.4088,1.4088,1.4088,1.4088,1.4088,1.4088,1.4088,1.4088,1.4088,1.4088,1.4088,1.4088,1.4088,1.4088,1.4088,1.4088,1.4088,1.4088,1.4088,1.4088,1.4412,1.4901,1.6445,1.7577,1.8381,1.8957,1.9756,2.0566,2.0333,2.0489,2.0566,2.0644,2.0799,2.1745,2.3073,2.4696,2.6013,2.6371,2.6452,2.6452,2.6521,2.6521,2.6714,2.8038,2.8925,2.9178,3.0435,3.1304,3.1675,3.1921,3.2037,3.1643,3.2189,3.2467,3.2176,3.2115,3.265,3.359,3.4793,3.5431,3.6413,3.6767,3.7217,3.7875,3.8153,3.8363,3.8492,3.8666,3.8877,3.9483,4.0392,4.0844,4.1124,4.087,4.0657,4.0635,4.0637,4.0521,4.0284,4.0377,4.0319,4.0101,3.9775,3.937,3.8718,3.7941,3.7433,3.7058,3.6751,3.5985,3.5667,3.5453,3.48,3.435,3.3937,3.3447,3.2338,3.1708,3.1393,3.0864,3.0388,2.9978,2.9669,2.9197,2.8712,2.8193,2.7607,2.6821,2.6075,2.5031,2.4835,1.4977,1.4088,1.4082,1.4088,1.4088,1.4088,1.4088,1.4088,1.4088,1.4088,1.4088,1.4088,1.4088,1.4088,1.4088,1.4088,1.4088,1.4088,1.4088,1.4088,1.4088,1.4088,1.4166,1.4412,1.5068,1.6445,1.7423,1.8541,1.9747,1.9923,2.0401,2.0576,2.0576,2.0576,2.0799,2.1088,2.1907,2.2936,2.4192,2.5217,2.6164,2.6521,2.6521,2.6521,2.6521,2.6521,2.6589,2.8103,2.9129,2.9192,3.0644,3.1796,3.2216,3.2586,3.2685,3.2998,3.3376,3.3658,3.3502,3.3086,3.2989,3.3735,3.4917,3.636,3.7314,3.8644,3.9227,3.915,3.9278,3.9785,4.0053,4.0308,4.002,4.0178,4.0558,4.0843,4.1088,4.1101,4.0906,4.0779,4.0679,4.054,4.0489,4.0489,4.0372,4.0139,3.9645,3.9264,3.8656,3.7946,3.7427,3.7079,3.7052,3.6557,3.581,3.5419,3.5174,3.4736,3.4333,3.3937,3.338,3.2804,3.2222,3.1894,3.1435,3.1027,3.0567,3.0112,2.9689,2.9372,2.8755,2.7698,2.7027,2.6307,2.6551,1.6034,1.5137,1.5137,1.4734,1.4088,1.4088,1.4088,1.4088,1.4088,1.4088,1.4088,1.4088,1.4088,1.4088,1.4088,1.4088,1.4088,1.4088,1.4173,1.4088,1.4088,1.4088,1.425,1.481,1.5538,1.6601,1.7577,1.8559,1.9441,2.0245,2.0566,2.0576,2.0722,2.1088,2.1308,2.2048,2.3158,2.3963,2.485,2.5511,2.6233,2.6521,2.6521,2.6521,2.6521,2.6782,2.7297,2.8363,2.9129,2.9889,3.0896,3.1751,3.2571,3.2933,3.3339,3.3786,3.4304,3.4578,3.4382,3.4101,3.4401,3.559,3.6458,3.713,3.801,3.8933,3.937,3.9607,4.0023,4.0339,4.0469,4.0466,4.0414,4.0526,4.069,4.0918,4.1062,4.1111,4.1013,4.0813,4.0657,4.05,4.0489,4.0489,4.0339,4.012,3.9622,3.9099,3.8542,3.8096,3.7667,3.7317,3.7285,3.6869,3.618,3.5856,3.5644,3.5174,3.4688,3.4399,3.402,3.3598,3.3036,3.2772,3.241,3.1792,3.1354,3.1016,3.0559,2.9989,2.9241,2.824,2.7746,2.7488,2.8017,1.7172,1.6198,1.6191,1.5387,1.4166,1.4088,1.4088,1.4088,1.4088,1.4088,1.4088,1.4088,1.4088,1.4088,1.4088,1.4088,1.425,1.4412,1.4573,1.465,1.465,1.4734,1.5144,1.5545,1.6108,1.6756,1.7971,1.9116,1.9766,2.0313,2.0779,2.1011,2.1088,2.1527,2.2038,2.3294,2.4337,2.485,2.5441,2.5664,2.6452,2.6521,2.6521,2.6589,2.6714,2.7095,2.7855,2.8734,2.9642,3.0269,3.1073,3.1936,3.268,3.3339,3.3735,3.435,3.4894,3.5266,3.4914,3.4952,3.5634,3.6636,3.7011,3.7684,3.8442,3.9017,3.9432,3.958,3.9963,4.0304,4.0489,4.0489,4.0504,4.053,4.0722,4.0921,4.1074,4.115,4.0983,4.0824,4.0668,4.0489,4.0489,4.0473,4.0212,4.0043,3.9705,3.9226,3.8737,3.8342,3.8085,3.7819,3.7628,3.7108,3.6469,3.6394,3.6172,3.5498,3.5052,3.4894,3.4529,3.4113,3.3786,3.3591,3.3118,3.2527,3.2072,3.1773,3.112,3.0467,2.9755,2.9101,2.9258,2.9102,2.9177,1.831,1.7342,1.7261,1.6124,1.4412,1.4166,1.4166,1.425,1.4166,1.4088,1.4088,1.4088,1.4088,1.4173,1.425,1.4412,1.4573,1.522,1.5711,1.5703,1.5711,1.6281,1.6445,1.6601,1.709,1.8559,1.9204,1.9756,2.0401,2.0489,2.1011,2.1593,2.1745,2.2188,2.2253,2.4036,2.4933,2.5146,2.6025,2.6314,2.6589,2.6714,2.6714,2.7027,2.7417,2.7855,2.8427,2.9317,3.0147,3.0584,3.1161,3.2104,3.3287,3.3495,3.4153,3.527,3.547,3.565,3.5588,3.5571,3.6232,3.7041,3.7248,3.7773,3.8585,3.9181,3.9529,3.9645,4.0101,4.0406,4.0489,4.0489,4.0489,4.0554,4.0731,4.094,4.1085,4.1168,4.1022,4.0821,4.0633,4.0489,4.0489,4.0422,4.0138,3.9907,3.9692,3.9306,3.8807,3.8572,3.8363,3.815,3.7935,3.7399,3.6932,3.6985,3.6706,3.5968,3.547,3.5224,3.4948,3.4598,3.4394,3.4332,3.3858,3.3181,3.2812,3.2532,3.1762,3.1036,3.0631,3.0263,3.0497,3.0569,3.0413,1.9432,1.8479,1.839,1.7585,1.6198,1.5462,1.513,1.5054,1.4489,1.4088,1.4088,1.4088,1.4088,1.425,1.4817,1.5061,1.5304,1.6198,1.6764,1.6764,1.6764,1.6927,1.7253,1.7819,1.823,1.8957,1.9599,2.0089,2.0566,2.0576,2.0722,2.1155,2.2563,2.3368,2.4108,2.537,2.6025,2.6025,2.6383,2.6714,2.7229,2.7284,2.7471,2.7999,2.8376,2.8748,2.9192,3.0086,3.0524,3.0955,3.1467,3.2256,3.3323,3.3633,3.4252,3.5391,3.581,3.6333,3.6615,3.6811,3.7001,3.7281,3.7506,3.7929,3.8652,3.9268,3.9524,3.9735,4.0157,4.0422,4.0489,4.0489,4.0504,4.0559,4.0715,4.0954,4.1111,4.1175,4.1112,4.0839,4.0622,4.0526,4.0489,4.0438,4.0175,3.9863,3.9662,3.9264,3.8815,3.8719,3.8554,3.8392,3.8162,3.7649,3.7342,3.7135,3.6684,3.5854,3.5577,3.5532,3.5251,3.4936,3.4781,3.4638,3.4215,3.3842,3.3288,3.2796,3.2231,3.1649,3.116,3.0896,3.0999,3.1131,3.1176,2.0167,1.9599,1.952,1.9116,1.8221,1.6919,1.6101,1.5538,1.4573,1.4088,1.4088,1.4088,1.4088,1.4412,1.5137,1.5696,1.5861,1.7253,1.7908,1.7908,1.7908,1.823,1.863,1.8798,1.9116,1.9599,2.0079,2.0576,2.0576,2.0576,2.1088,2.2038,2.3158,2.4409,2.537,2.6094,2.6452,2.6383,2.6521,2.6837,2.7417,2.7736,2.8103,2.8748,2.9254,2.969,3.0194,3.0584,3.097,3.1452,3.1894,3.2422,3.3287,3.3937,3.4496,3.5436,3.6097,3.6603,3.7034,3.7503,3.754,3.7524,3.7755,3.8132,3.8664,3.9249,3.9524,3.9778,4.0193,4.0386,4.0489,4.0489,4.0519,4.0559,4.0703,4.0935,4.1128,4.1183,4.1112,4.0839,4.0633,4.0549,4.0489,4.0406,4.0266,3.9925,3.9603,3.9197,3.8815,3.8732,3.8707,3.8578,3.8332,3.7877,3.7433,3.7058,3.6522,3.5739,3.5639,3.5639,3.5397,3.5071,3.504,3.4968,3.4575,3.4129,3.3514,3.2956,3.2235,3.1766,3.1495,3.1394,3.1467,3.1467,3.1467,2.0576,2.0576,2.0576,2.0566,2.0167,1.8221,1.6764,1.5703,1.465,1.425,1.425,1.4166,1.425,1.4412,1.5379,1.5944,1.6511,1.8221,1.8789,1.9036,1.9036,1.9599,1.9678,1.9599,1.9766,2.0245,2.0576,2.0576,2.0644,2.0867,2.1745,2.3073,2.412,2.5217,2.6025,2.6383,2.6521,2.6521,2.6521,2.6973,2.755,2.7855,2.8427,2.9192,2.9889,3.0375,3.0881,3.1248,3.1552,3.1951,3.2327,3.2933,3.3633,3.4219,3.4894,3.5616,3.6249,3.6764,3.7377,3.7862,3.7966,3.7964,3.798,3.8249,3.87,3.9275,3.9552,3.9821,4.0175,4.0353,4.0489,4.0489,4.0489,4.0584,4.0682,4.0902,4.1136,4.1151,4.105,4.0849,4.063,4.0515,4.0469,4.0406,4.0212,3.9823,3.9505,3.9181,3.8862,3.875,3.8707,3.8676,3.8401,3.8083,3.7632,3.7058,3.644,3.5711,3.5622,3.5622,3.538,3.5296,3.5273,3.5148,3.4897,3.4416,3.3677,3.2876,3.2018,3.1682,3.1524,3.1467,3.1467,3.1467,3.1409,2.0576,2.0576,2.0576,2.0576,2.0411,1.9116,1.79,1.6764,1.5703,1.5213,1.522,1.4412,1.4489,1.5296,1.6355,1.7163,1.8301,1.9362,1.9913,2.0079,2.0001,2.0313,2.0323,2.0245,2.0401,2.0489,2.0576,2.0644,2.0867,2.1155,2.2113,2.3441,2.4564,2.5511,2.6164,2.6521,2.6521,2.6521,2.6521,2.6973,2.767,2.8247,2.8939,2.9766,3.0584,3.1131,3.1694,3.1992,3.2327,3.2879,3.313,3.3633,3.4284,3.4576,3.5048,3.6568,3.6981,3.7323,3.8083,3.8382,3.8433,3.8433,3.8415,3.864,3.8999,3.9333,3.9668,3.9944,4.0212,4.0422,4.0489,4.0489,4.0489,4.0549,4.0679,4.0882,4.1114,4.1172,4.1052,4.0801,4.0578,4.0515,4.0489,4.0302,4.0081,3.9712,3.9358,3.9091,3.8881,3.875,3.8707,3.8676,3.835,3.7964,3.7433,3.6865,3.6291,3.5783,3.5711,3.5639,3.5526,3.5476,3.5476,3.5318,3.5093,3.449,3.3721,3.2917,3.2201,3.1682,3.1467,3.1467,3.1467,3.1467,3.1467,2.0576,2.0576,2.0576,2.0576,2.0489,1.9913,1.9195,1.8301,1.6585,1.5538,1.4977,1.4412,1.4643,1.5696,1.6764,1.7819,1.8948,1.9923,2.0489,2.0489,2.0576,2.0566,2.0566,2.0576,2.0566,2.0576,2.0644,2.0867,2.1221,2.2113,2.3147,2.4108,2.4791,2.5511,2.6176,2.6521,2.6521,2.6521,2.6589,2.704,2.7736,2.857,2.9456,3.0269,3.1087,3.1724,3.2216,3.2437,3.2895,3.3339,3.3479,3.412,3.4688,3.4878,3.5576,3.6865,3.719,3.7667,3.835,3.8627,3.8707,3.8707,3.8707,3.8826,3.9063,3.9389,3.9712,4.0023,4.0285,4.0489,4.0489,4.0489,4.0489,4.0504,4.0692,4.0902,4.1049,4.1177,4.0994,4.0743,4.0609,4.0526,4.0389,4.0213,3.9982,3.9645,3.9333,3.9027,3.8844,3.8719,3.8707,3.8707,3.8267,3.779,3.723,3.6764,3.6249,3.5871,3.5667,3.5639,3.5639,3.5622,3.5543,3.5436,3.5266,3.4592,3.3836,3.3287,3.2625,3.2048,3.1524,3.1467,3.1467,3.1467,3.1467,2.0576,2.0576,2.0576,2.0576,2.0576,2.0566,2.0411,2.0157,1.7326,1.5462,1.4817,1.4489,1.522,1.6437,1.7326,1.831,1.9274,2.0245,2.0576,2.0576,2.0576,2.0576,2.0576,2.0576,2.0576,2.0576,2.0722,2.1011,2.2038,2.2999,2.4036,2.5004,2.5229,2.5734,2.6383,2.6714,2.685,2.6837,2.7027,2.7351,2.7868,2.8634,2.9456,3.0269,3.1014,3.1625,3.1951,3.2272,3.2749,3.3235,3.3836,3.4688,3.4941,3.5207,3.6147,3.6786,3.7152,3.7791,3.8401,3.8707,3.8707,3.8707,3.8707,3.8894,3.9197,3.9414,3.9735,4.0043,4.0302,4.0473,4.0489,4.0489,4.0489,4.0554,4.0676,4.0915,4.1114,4.111,4.0902,4.0668,4.0557,4.0489,4.0457,4.0286,3.9982,3.9645,3.9333,3.9027,3.8844,3.8719,3.8707,3.8658,3.8234,3.772,3.7248,3.6746,3.6291,3.5941,3.5739,3.5739,3.5871,3.5783,3.5639,3.5515,3.5362,3.4688,3.3971,3.3479,3.2879,3.216,3.1739,3.1524,3.1467,3.1467,3.1467,2.0576,2.0576,2.0576,2.0576,2.0576,2.0576,2.0157,1.9362,1.863,1.7989,1.7666,1.7017,1.7017,1.79,1.8221,1.9036,2.0079,2.0323,2.0566,2.0576,2.0576,2.0576,2.0576,2.0576,2.0644,2.0576,2.0712,2.1375,2.2478,2.3745,2.4719,2.5075,2.5581,2.6233,2.6521,2.6905,2.7297,2.7284,2.7986,2.7986,2.8117,2.9192,3.0208,3.0524,3.1029,3.2033,3.2516,3.313,3.4003,3.4816,3.5115,3.5362,3.5362,3.5515,3.6165,3.696,3.7228,3.7791,3.8368,3.8707,3.8707,3.8707,3.8762,3.9045,3.9282,3.9462,3.9735,4.0043,4.0285,4.0406,4.0489,4.0489,4.0519,4.0584,4.0671,4.0907,4.1147,4.0994,4.0801,4.0655,4.053,4.0473,4.0441,4.025,3.9963,3.9664,3.9333,3.9027,3.8844,3.8707,3.8707,3.8627,3.8216,3.772,3.7285,3.6904,3.6522,3.6165,3.5968,3.6011,3.6097,3.5871,3.5639,3.5577,3.5362,3.48,3.4284,3.3836,3.3182,3.2367,3.1796,3.1524,3.1467,3.1467,3.1467,2.0576,2.0576,2.0576,2.0576,2.0576,2.0576,2.0245,1.9766,1.9678,1.9687,1.9441,1.823,1.798,1.8877,1.9036,1.9678,2.0479,2.0566,2.0576,2.0576,2.0644,2.0576,2.0576,2.0722,2.1011,2.1165,2.2264,2.3073,2.3452,2.4624,2.5734,2.5734,2.6302,2.6521,2.6645,2.7229,2.7736,2.7736,2.8939,2.9192,2.8812,2.9766,3.0329,3.0524,3.1175,3.213,3.2826,3.3375,3.4186,3.4958,3.5299,3.5532,3.5532,3.5577,3.6165,3.6882,3.7303,3.7632,3.8368,3.8707,3.8707,3.8707,3.8707,3.8942,3.9222,3.9425,3.9863,4.0176,4.0372,4.0489,4.0489,4.0489,4.0489,4.0554,4.0683,4.0901,4.1013,4.0976,4.0771,4.0583,4.0496,4.0489,4.0372,4.0043,3.9775,3.9595,3.9282,3.899,3.8773,3.8707,3.8707,3.8627,3.8267,3.7946,3.7649,3.7285,3.6882,3.6563,3.6249,3.6011,3.5941,3.5739,3.5622,3.5577,3.547,3.5207,3.4704,3.4137,3.3443,3.2586,3.2007,3.1524,3.1524,3.1582,3.1524,2.0712,2.0644,2.0576,2.0576,2.0576,2.0576,2.0566,2.0566,2.0566,2.0566,2.0313,1.8621,1.8461,1.8877,1.9283,2.0001,2.0547,2.1011,2.0944,2.0867,2.0867,2.1011,2.1011,2.0934,2.1527,2.2489,2.3672,2.4264,2.4719,2.5734,2.6314,2.6452,2.6521,2.6521,2.6782,2.7351,2.7986,2.8492,2.9303,3.0254,3.0389,3.045,3.0524,3.0777,3.119,3.1992,3.2664,3.3391,3.4037,3.4688,3.5345,3.5588,3.5783,3.5854,3.6464,3.7079,3.7396,3.7895,3.8483,3.8707,3.8707,3.8707,3.8707,3.8865,3.9135,3.9469,3.9922,4.0248,4.0422,4.0489,4.0489,4.0489,4.0489,4.0559,4.0742,4.0916,4.0955,4.0959,4.0735,4.0535,4.05,4.05,4.0283,3.9944,3.9712,3.9529,3.9249,3.8942,3.8719,3.8689,3.8707,3.8627,3.8433,3.815,3.7911,3.7649,3.7303,3.702,3.6706,3.619,3.581,3.5667,3.5639,3.5639,3.547,3.5316,3.4911,3.4382,3.3649,3.2986,3.268,3.2241,3.1894,3.1894,3.1697,2.1298,2.0566,2.0576,2.0576,2.0576,2.0576,2.0576,2.0576,2.0576,2.0576,2.0489,2.0401,2.0157,2.0245,2.0323,2.0789,2.1364,2.1669,2.1745,2.1745,2.1593,2.1669,2.1821,2.1962,2.2403,2.3368,2.4409,2.4933,2.537,2.6094,2.6521,2.6521,2.6521,2.6589,2.6782,2.7604,2.8748,2.9192,3.0072,3.1146,3.1204,3.1204,3.1278,3.1552,3.1992,3.2664,3.3375,3.4021,3.4688,3.5253,3.5605,3.5854,3.6097,3.6291,3.6808,3.7342,3.7649,3.805,3.8483,3.8658,3.8707,3.8707,3.875,3.895,3.9221,3.9496,3.9924,4.0353,4.0489,4.0489,4.0489,4.0489,4.0504,4.0654,4.081,4.0996,4.1123,4.0948,4.073,4.0577,4.0505,4.0496,4.0473,4.0157,3.9925,3.9712,3.9408,3.91,3.8719,3.8707,3.8707,3.8627,3.8546,3.8267,3.798,3.798,3.7738,3.747,3.7041,3.6399,3.5941,3.5667,3.5639,3.5639,3.5639,3.5532,3.5068,3.464,3.4382,3.3887,3.3582,3.3182,3.2664,3.2216,3.2007]}]]